     2              OBSERVATION DATA    GPS                 RINEX VERSION / TYPE
teqc 2000Jul20 Karen Wendt 20030328 21:22:50UTC             PGM / RUN BY / DATE
                                                            COMMENT
L2: 1 -> 1; 150 -> 5; 250 -> 9                              COMMENT
L2: 1 -> 1; 150 -> 5; 250 -> 9                              COMMENT
L2: 1 -> 1; 150 -> 5; 250 -> 9                              COMMENT
L2: 1 -> 1; 150 -> 5; 250 -> 9                              COMMENT
L2: 1 -> 1; 150 -> 5; 250 -> 9                              COMMENT
L2: 1 -> 1; 150 -> 5; 250 -> 9                              COMMENT
L2: 1 -> 1; 150 -> 5; 250 -> 9                              COMMENT
L2: 1 -> 1; 150 -> 5; 250 -> 9                              COMMENT
L2: 1 -> 1; 150 -> 5; 250 -> 9                              COMMENT
L2: 1 -> 1; 150 -> 5; 250 -> 9                              COMMENT
L2: 1 -> 1; 150 -> 5; 250 -> 9                              COMMENT
L2: 1 -> 1; 150 -> 5; 250 -> 9                              COMMENT
L2: 1 -> 1; 150 -> 5; 250 -> 9                              COMMENT
L2: 1 -> 1; 150 -> 5; 250 -> 9                              COMMENT
Original Marker Name: benc Bench_1932_USC&GS                COMMENT
Campaign Name: USGS 2003                                    COMMENT
4-Character Station Name: BENC                              COMMENT
6-Character Antenna Code: DMRCHT                            COMMENT
Vertical Measurement Point: BCR                             COMMENT
Vertical Offset to Rinex Ref. Point: 0.0348                 COMMENT
Radial Measurement Point: ECF                               COMMENT
Radial Offset to Rinex Ref. Point: 0.1897                   COMMENT
Antenna Height from Field Measurement: 1.3930 m             COMMENT
Additional Antenna Identification Info.:                    COMMENT
Turborogue and Ashtech Choke Ring                           COMMENT
Original XYZ: -2618973.5109 -4472696.2485 3705696.5662      COMMENT
New XYZ position is based on association with SCEC monument COMMENT
E1F1E5C7+0011. Position of that monument is believed to be  COMMENT
valid to within 1 m horizontally; vertical accuracy         COMMENT
should be no worse than 3-times this value.                 COMMENT
                                                            COMMENT
Revised Rinex header created by UCSD GPS archive for        COMMENT
GSAC on 11-Jul-2003 (2003:192) 16:18:29 GMT                 COMMENT
For assistance contact dagnew@ucsd.edu                      COMMENT
or anderson@python.ucsd.edu                                 COMMENT
                                                            COMMENT
BENCH 1932                                                  MARKER NAME
JMS US GEOLOGICAL SURVEY                                    OBSERVER / AGENCY
LP019992804 ASHTECH Z-XII3 CD00                             REC # / TYPE / VERS
CR620022601 DORNE-MARGOL. TYPE T                            ANT # / TYPE
 -2618992.0308 -4472668.0828  3705683.6220                  APPROX POSITION XYZ
        1.3452        0.0000        0.0000                  ANTENNA: DELTA H/E/N
     1     1     0                                          WAVELENGTH FACT L1/2
     5    C1    L1    L2    P1    P2                        # / TYPES OF OBSERV
    30                                                      INTERVAL
  2003     3    23     0     1    0.000000                  TIME OF FIRST OBS
  2003     3    23    23    59   30.000000                  TIME OF LAST OBS
                                                            END OF HEADER
 03  3 23  0  1  0.0000000  0 11G29G14G 2G 6G23G17G15G16G 3G26G18
  24811163.782    -1555124.26749  -1201476.98745  24811163.568    24811170.445
  24164353.838    -4206993.31649  -3247983.24245  24164353.297    24164362.584
  24726523.359    -7844982.28949  -6099641.87445  24726522.625    24726532.252
  23263705.538   -12421562.57449  -9458507.58046  23263705.212    23263713.673
  20830188.610   -22458478.35049 -17481894.22948  20830187.931    20830192.683
  20919362.233   -23412623.70249 -18224722.17447  20919361.477    20919366.881
  20548905.661   -26442085.75249 -20104114.50048  20548904.809    20548909.866
  23824432.369    -7140893.99249  -5547822.59545  23824431.899    23824439.586
  23097205.330    -9834155.76849  -7374965.64746  23097204.888    23097211.467
  22871316.176   -11631067.05749  -8565781.42346  22871316.027    22871322.186
  20367392.777   -25695074.14949 -19416938.55548  20367392.168    20367395.779
 03  3 23  0  1 30.0000000  0 11G29G14G 2G 6G23G17G15G16G 3G26G18
  24828149.406    -1465864.20149  -1131923.71845  24828149.161    24828156.099
  24142855.785    -4319965.93749  -3336013.68745  24142855.290    24142864.576
  24729261.896    -7830591.78449  -6088428.54845  24729260.949    24729270.799
  23283650.069   -12316754.04349  -9376838.75146  23283649.764    23283658.240
  20835868.421   -22428630.75449 -17458636.36248  20835867.739    20835872.480
  20923170.193   -23392612.89449 -18209129.35447  20923169.431    20923174.818
  20543345.838   -26471302.85649 -20126881.06748  20543344.978    20543350.035
  23834771.560    -7086561.46249  -5505485.66545  23834771.111    23834778.720
  23081584.967    -9916240.97649  -7438928.06646  23081584.492    23081591.090
  22886526.392   -11551137.25049  -8503498.49746  22886526.267    22886532.403
  20367204.894   -25696061.43349 -19417707.85548  20367204.288    20367207.905
 03  3 23  0  2  0.0000000  0 11G29G14G 2G 6G23G17G15G16G 3G26G18
  24845184.587    -1376343.47449  -1062167.34545  24845184.377    24845191.319
  24121367.031    -4432889.86649  -3424006.20145  24121366.466    24121375.657
  24732071.448    -7815825.65549  -6076922.55345  24732070.964    24732080.884
  23303631.027   -12211753.98849  -9295020.69646  23303630.712    23303639.255
  20841601.848   -22398501.35849 -17435158.91348  20841601.160    20841605.910
  20927025.721   -23372351.83949 -18193341.53747  20927024.972    20927030.378
  20537831.187   -26500282.31649 -20149462.45548  20537830.316    20537835.373
  23845171.992    -7031907.29549  -5462898.11845  23845171.501    23845179.227
  23066027.496    -9997995.72049  -7502632.98546  23066027.011    23066033.578
  22901825.003   -11470742.67849  -8440853.42646  22901824.917    22901830.999
  20367089.414   -25696668.14849 -19418180.60848  20367088.818    20367092.423
 03  3 23  0  2 30.0000000  0 11G29G14G 2G 6G23G17G15G16G 3G26G18
  24862268.890    -1286564.61449   -992209.81245  24862268.670    24862275.613
  24099887.882    -4545762.96949  -3511959.12245  24099887.225    24099896.399
  24734952.580    -7800685.43949  -6065125.03945  24734952.248    24734961.997
  23323647.977   -12106564.92149  -9213055.35246  23323647.654    23323656.236
  20847388.562   -22368091.95749 -17411463.27748  20847387.874    20847392.623
  20930928.998   -23351840.18249 -18177358.44747  20930928.260    20930933.650
  20532361.926   -26529023.31949 -20171858.03048  20532361.072    20532366.137
  23855633.060    -6976934.30549  -5420062.14045  23855632.539    23855640.401
  23050533.320   -10079417.97549  -7566078.81646  23050532.858    23050539.371
  22917211.489   -11389886.18149  -8377848.39146  22917211.394    22917217.472
  20367046.065   -25696895.73449 -19418357.93348  20367045.478    20367049.092
 03  3 23  0  3  0.0000000  0 11G29G14G 2G 6G23G17G15G16G 3G26G18
  24879401.661    -1196531.54749   -922054.19345  24879401.269    24879408.386
  24078418.666    -4658583.67749  -3599871.21945  24078418.018    24078427.138
  24737904.676    -7785173.78649  -6053038.12445  24737904.135    24737913.824
  23343700.221   -12001190.41049  -9130945.50545  23343699.882    23343708.497
  20853227.984   -22337405.62249 -17387551.85547  20853227.291    20853232.054
  20934879.856   -23331078.33749 -18161180.40247  20934879.095    20934884.515
  20526938.027   -26557526.18849 -20194068.04848  20526937.167    20526942.203
  23866154.116    -6921646.37149  -5376980.75945  23866153.566    23866161.512
  23035102.614   -10160506.50349  -7629264.60546  23035102.131    23035108.669
  22932685.109   -11308571.98249  -8314486.72246  22932685.022    22932691.075
  20367074.465   -25696746.49249 -19418241.63348  20367073.858    20367077.490
 03  3 23  0  3 30.0000000  0 10G14G 2G 6G23G17G15G16G 3G26G18
  24056960.309    -4771347.70249  -3687739.15445  24056959.664    24056968.486
  24740927.382    -7769290.46349  -6040661.56245  24740926.683    24740936.325
  23363787.627   -11895630.97849  -9048691.55845  23363787.277    23363795.860
  20859120.093   -22306442.35049 -17363424.63047  20859119.392    20859124.162
  20938878.713   -23310064.16849 -18144805.74247  20938877.966    20938883.410
  20521559.928   -26585788.27749 -20216090.44248  20521559.080    20521564.106
  23876734.775    -6866044.96849  -5333655.10945  23876734.220    23876742.167
  23019736.201   -10241257.08149  -7692187.06246  23019735.738    23019742.323
  22948245.589   -11226801.11649  -8250769.18846  22948245.490    22948251.652
  20367174.637   -25696219.81449 -19417831.22148  20367174.049    20367177.674
 03  3 23  0  4  0.0000000  0 10G14G 2G 6G23G17G15G16G 3G26G18
  24035513.211    -4884052.33849  -3775560.78845  24035512.541    24035521.323
  24744020.501    -7753037.26049  -6027996.81145  24744019.632    24744029.318
  23383909.696   -11789889.16149  -8966295.49145  23383909.377    23383918.005
  20865064.550   -22275203.94349 -17339083.01247  20865063.867    20865068.627
  20942925.725   -23288797.04849 -18128233.97347  20942924.965    20942930.459
  20516227.821   -26613808.61949 -20237924.46548  20516226.962    20516231.961
  23887374.552    -6810133.10049  -5290087.52145  23887373.975    23887381.914
  23004434.460   -10321667.79249  -7754844.67546  23004434.012    23004440.598
  22963892.396   -11144576.59549  -8186698.16846  22963892.328    22963898.394
  20367346.440   -25695317.05049 -19417127.75748  20367345.840    20367349.455
 03  3 23  0  4 30.0000000  0 10G14G 2G 6G23G17G15G16G 3G26G18
  24014077.721    -4996695.87649  -3863334.81745  24014077.091    24014085.836
  24747183.220    -7736416.65149  -6015045.74745  24747182.352    24747192.043
  23404065.919   -11683968.21249  -8883759.84745  23404065.542    23404074.215
  20871060.871   -22243693.01649 -17314529.04447  20871060.186    20871064.945
  20947020.769   -23267277.33749 -18111465.38747  20947019.990    20947025.499
  20510941.686   -26641587.33549 -20259570.20748  20510940.831    20510945.828
  23898072.787    -6753914.31849  -5246280.80145  23898072.159    23898080.073
  22989197.728   -10401736.93249  -7817236.14046  22989197.250    22989203.877
  22979624.879   -11061902.09949  -8122276.51146  22979624.817    22979630.860
  20367589.421   -25694040.16249 -19416132.77248  20367588.812    20367592.418
 03  3 23  0  5  0.0000000  0 10G14G 2G 6G23G17G15G16G 3G26G18
  23992654.405    -5109275.44549  -3951059.00245  23992653.881    23992662.479
  24750415.840    -7719429.64049  -6001809.19045  24750414.815    24750424.701
  23424255.802   -11577870.42949  -8801086.41045  23424255.445    23424264.108
  20877108.777   -22211910.94049 -17289763.79147  20877108.109    20877112.894
  20951164.168   -23245503.77949 -18094498.99347  20951163.401    20951168.875
  20505701.806   -26669123.04049 -20281026.58448  20505700.959    20505705.949
  23908828.866    -6697391.16549  -5202236.89145  23908828.272    23908836.166
  22974026.537   -10481461.77649  -7879359.31246  22974026.093    22974032.674
  22995442.469   -10978780.30949  -8057506.31246  22995442.377    22995448.392
  20367903.398   -25692390.00449 -19414846.91848  20367902.794    20367906.388
 03  3 23  0  5 30.0000000  0 10G14G 2G 6G23G17G15G16G 3G26G18
  23971243.679    -5221788.48349  -4038731.33745  23971243.195    23971251.736
  24753717.734    -7702078.07549  -5988288.56245  24753716.809    24753726.714
  23444478.814   -11471598.24649  -8718277.08245  23444478.435    23444487.218
  20883207.925   -22179859.67849 -17264788.78547  20883207.256    20883212.037
  20955355.920   -23223476.13349 -18077334.61247  20955355.159    20955360.629
  20500508.315   -26696415.04549 -20302293.06748  20500507.454    20500512.448
  23919642.320    -6640566.65049  -5157958.17345  23919641.746    23919649.605
  22958921.350   -10560840.00149  -7941212.40646  22958920.900    22958927.446
  23011344.616   -10895214.20249  -7992389.89146  23011344.498    23011350.555
  20368288.246   -25690367.76649 -19413271.14148  20368287.638    20368291.231
 03  3 23  0  6  0.0000000  0 10G14G 2G 6G23G17G15G16G 3G26G18
  23949846.161    -5334232.50949  -4126349.88645  23949845.777    23949854.124
  24757088.711    -7684363.45249  -5974485.03445  24757087.885    24757097.821
  23464734.572   -11365154.17349  -8635333.81245  23464734.162    23464742.995
  20889357.985   -22147541.00749 -17239605.40947  20889357.289    20889362.068
  20959596.033   -23201194.08849 -18059972.00247  20959595.264    20959600.764
  20495361.345   -26723462.51849 -20323369.00948  20495360.497    20495365.498
  23930512.541    -6583443.69949  -5113446.90545  23930512.001    23930519.795
  22943882.464   -10639869.50149  -8002793.76146  22943882.031    22943888.509
  23027330.725   -10811206.79049  -7926929.59546  23027330.591    23027336.622
  20368743.624   -25687974.69549 -19411406.40948  20368743.023    20368746.578
 03  3 23  0  6 30.0000000  0 10G14G 2G 6G23G17G15G16G 3G26G18
  23928462.515    -5446603.61949  -4213911.60845  23928462.041    23928470.489
  24760528.784    -7666286.35349  -5960399.03945  24760527.794    24760537.788
  23485022.782   -11258539.46749  -8552257.56945  23485022.437    23485031.329
  20895558.794   -22114955.45049 -17214214.06247  20895558.096    20895562.894
  20963884.976   -23178655.53849 -18042409.50447  20963884.215    20963889.734
  20490261.283   -26750263.37949 -20344252.77448  20490260.428    20490265.420
  23941439.178    -6526024.07249  -5068704.44545  23941438.607    23941446.558
  22928910.602   -10718546.75649  -8064100.63946  22928910.166    22928916.647
  23043400.452   -10726759.73949  -7861126.73645  23043400.316    23043406.443
  20369269.600   -25685210.75749 -19409252.68048  20369268.989    20369272.548
 03  3 23  0  7  0.0000000  0 10G14G 2G 6G23G17G15G16G 3G26G18
  23907093.087    -5558899.98449  -4301415.09445  23907092.545    23907101.044
  24764037.283    -7647849.43549  -5946032.66645  24764036.204    24764046.407
  23505342.829   -11151757.38649  -8469050.92845  23505342.490    23505351.434
  20901809.875   -22082105.63549 -17188616.80747  20901809.189    20901814.020
  20968222.643   -23155860.92549 -18024647.48947  20968221.892    20968227.437
  20485208.168   -26776817.67849 -20364944.42248  20485207.306    20485212.316
  23952421.564    -6468311.60349  -5023733.81745  23952420.993    23952428.973
  22914006.088   -10796870.26449  -8125131.87946  22914005.654    22914012.142
  23059553.084   -10641877.06049  -7794984.40745  23059552.954    23059559.032
  20369865.721   -25682078.03849 -19406811.60048  20369865.106    20369868.666
 03  3 23  0  7 30.0000000  0 10G14G 2G 6G23G17G15G16G 3G26G18
  23885738.400    -5671119.06549  -4388858.35045  23885737.798    23885746.230
  24767613.901    -7629054.22249  -5931387.11145  24767612.928    24767622.856
  23525694.333   -11044810.24549  -8385715.66745  23525693.991    23525702.887
  20908110.893   -22048993.37349 -17162815.04947  20908110.226    20908115.055
  20972609.251   -23132809.30349 -18006685.20447  20972608.505    20972614.049
  20480202.191   -26803124.16749 -20385442.97348  20480201.342    20480206.345
  23963459.189    -6410308.91049  -4978537.05345  23963458.702    23963466.630
  22899169.353   -10874837.63549  -8185885.61246  22899168.935    22899175.370
  23075788.126   -10556561.40549  -7728504.70445  23075788.024    23075794.011
  20370531.784   -25678577.74549 -19404084.09348  20370531.175    20370534.720
 03  3 23  0  8  0.0000000  0 10G14G 2G 6G23G17G15G16G 3G26G18
  23864399.059    -5783257.44449  -4476238.71345  23864398.441    23864406.785
  24771258.486    -7609901.91949  -5916463.29945  24771257.565    24771267.540
  23546076.842   -10937699.98649  -8302253.29845  23546076.461    23546085.468
  20914461.701   -22015619.77149 -17136809.64647  20914461.030    20914465.884
  20977044.897   -23109499.91449 -17988522.05847  20977044.124    20977049.671
  20475243.642   -26829181.48249 -20405747.35848  20475242.784    20475247.804
  23974551.518    -6352018.74849  -4933116.27945  23974551.004    23974558.986
  22884400.906   -10952446.12149  -8246359.69546  22884400.479    22884406.874
  23092105.128   -10470815.32149  -7661689.60345  23092105.008    23092110.948
  20371267.708   -25674710.45249 -19401070.60848  20371267.095    20371270.636
 03  3 23  0  8 30.0000000  0 10G14G 2G 6G23G17G15G16G 3G26G18
  23843075.493    -5895312.79849  -4563554.38645  23843074.853    23843083.212
  24774970.680    -7590394.33149  -5901262.64445  24774969.915    24774979.674
  23566489.893   -10830429.22249  -8218665.86545  23566489.519    23566498.574
  20920861.839   -21981986.84349 -17110602.17447  20920861.149    20920866.007
  20981529.745   -23085931.98649 -17970157.45347  20981528.970    20981534.524
  20470332.661   -26854988.76949 -20425856.91848  20470331.804    20470336.813
  23985697.973    -6293443.94149  -4887473.70345  23985697.537    23985705.522
  22869701.147   -11029693.54549  -8306552.42346  22869700.736    22869707.114
  23108503.406   -10384641.98049  -7594541.56645  23108503.226    23108509.208
  20372073.208   -25670477.56249 -19397772.24548  20372072.608    20372076.158
 03  3 23  0  9  0.0000000  0 10G14G 2G 6G23G17G15G16G 3G26G18
  23821768.199    -6007282.40049  -4650803.23445  23821767.674    23821775.987
  24778750.204    -7570533.05249  -5885786.38145  24778749.428    24778759.176
  23586933.026   -10723000.44849  -8134955.30045  23586932.676    23586941.803
  20927311.021   -21948096.23949 -17084193.91547  20927310.315    20927315.179
  20986063.938   -23062104.51649 -17951590.60947  20986063.181    20986068.726
  20465469.468   -26880544.96549 -20445770.82248  20465468.611    20465473.600
  23996898.101    -6234587.54649  -4841611.71045  23996897.722    23996905.684
  22855070.559   -11106577.51749  -8366461.95846  22855070.134    22855076.498
  23124982.454   -10298044.11449  -7527062.74045  23124982.268    23124988.348
  20372948.011   -25665880.22449 -19394189.89648  20372947.422    20372950.980
 03  3 23  0  9 30.0000000  0 10G14G 2G 6G23G17G15G16G 3G26G18
  23800477.898    -6119163.11649  -4737982.82845  23800477.293    23800485.692
  24782596.794    -7550319.29949  -5870035.46445  24782596.036    24782605.706
  23607405.868   -10615415.68149  -8051123.20045  23607405.533    23607414.709
  20933808.976   -21913949.18349 -17057585.82247  20933808.276    20933813.129
  20990647.641   -23038017.17549 -17932821.26847  20990646.887    20990652.446
  20460654.298   -26905848.76949 -20465488.05748  20460653.444    20460658.414
  24008151.368    -6175451.92049  -4795532.13345  24008150.913    24008158.877
  22840509.702   -11183095.24549  -8426086.09946  22840509.245    22840515.575
  23141541.793   -10211024.36949  -7459255.18945  23141541.674    23141547.749
  20373892.108   -25660919.02349 -19390324.02048  20373891.518    20373895.071
 03  3 23  0 10  0.0000000  0 10G14G 2G 6G23G17G15G16G 3G26G18
  23779204.914    -6230952.56549  -4825091.29745  23779204.360    23779212.708
  24786510.050    -7529755.10849  -5854011.49445  24786509.157    24786519.050
  23627907.898   -10507677.42049  -7967171.48945  23627907.629    23627916.813
  20940355.391   -21879547.66749 -17030779.44847  20940354.694    20940359.552
  20995280.831   -23013669.64749 -17913849.18347  20995280.080    20995285.609
  20455887.303   -26930899.58449 -20485008.15748  20455886.445    20455891.397
  24019457.155    -6116040.25249  -4749237.46445  24019456.666    24019464.743
  22826018.875   -11259244.65349  -8485423.23946  22826018.456    22826024.766
  23158180.778   -10123585.86649  -7391121.32045  23158180.645    23158186.702
  20374905.120   -25655595.65349 -19386175.93448  20374904.527    20374908.080
 03  3 23  0 10 30.0000000  0 10G14G 2G 6G23G17G15G16G 3G26G18
  23757949.735    -6342648.58049  -4912126.95845  23757949.154    23757957.582
  24790489.641    -7508842.48549  -5837716.02845  24790488.781    24790498.707
  23648438.608   -10399788.54249  -7883102.41445  23648438.297    23648447.527
  20946949.794   -21844893.74549 -17003776.39547  20946949.089    20946953.951
  20999963.687   -22989061.39249 -17894673.93847  20999962.918    20999968.430
  20451168.531   -26955696.75649 -20504330.61148  20451167.671    20451172.608
  24030814.779    -6056355.94949  -4702730.35245  24030814.224    24030822.394
  22811598.519   -11335023.88749  -8544471.93246  22811598.090    22811604.390
  23174898.822   -10035732.14849  -7322663.91645  23174898.722    23174904.698
  20375986.733   -25649911.61049 -19381746.80548  20375986.138    20375989.693
 03  3 23  0 11  0.0000000  0 10G14G 2G 6G23G17G15G16G 3G26G18
  23736713.040    -6454247.55049  -4999087.01145  23736712.377    23736720.832
  24794535.307    -7487582.53849  -5821149.88345  24794534.471    24794544.317
  23668997.686   -10291750.80549  -7798917.34145  23668997.373    23669006.632
  20953592.045   -21809988.49649 -16976577.50247  20953591.350    20953596.220
  21004696.428   -22964190.78849 -17875294.26047  21004695.662    21004701.194
  20446498.411   -26980238.47949 -20523454.01748  20446497.544    20446502.475
  24042223.832    -5996401.30149  -4656012.59145  24042223.225    24042231.592
  22797249.224   -11410429.95449  -8603229.84746  22797248.783    22797255.055
  23191695.465    -9947465.29849  -7253884.59245  23191695.383    23191701.363
  20377136.896   -25643867.37349 -19377037.00348  20377136.322    20377139.864
 03  3 23  0 11 30.0000000  0 10G14G 2G 6G23G17G15G16G 3G26G18
  23715495.328    -6565746.74249  -5085969.31345  23715494.625    23715503.009
  24798646.887    -7465976.70749  -5804314.22845  24798646.014    24798655.938
  23689584.647   -10183566.42349  -7714618.00245  23689584.272    23689593.569
  20960281.812   -21774833.53449 -16949184.02747  20960281.119    20960286.010
  21009479.168   -22939057.34949 -17855709.77747  21009478.401    21009483.912
  20441877.055   -27004523.83049 -20542377.65148  20441876.194    20441881.112
  24053683.840    -5936179.16949  -4609086.39045  24053683.201    24053691.632
  22782971.347   -11485460.44549  -8661695.11046  22782970.888    22782977.192
  23208570.202    -9858788.27149  -7184785.64845  23208570.091    23208576.068
  20378355.381   -25637464.25149 -19372047.55048  20378354.779    20378358.319
 03  3 23  0 12  0.0000000  0 10G14G 2G 6G23G17G15G16G 3G26G18
  23694297.053    -6677143.37549  -5172771.69845  23694296.400    23694304.670
  24802823.825    -7444026.72749  -5787210.43345  24802823.033    24802832.875
  23710199.097   -10075237.61949  -7630206.13345  23710198.781    23710207.964
  20967018.809   -21739430.32949 -16921597.11647  20967018.115    20967022.995
  21014312.099   -22913660.38849 -17835919.94947  21014311.315    21014316.816
  20437304.697   -27028551.61549 -20561100.58248  20437303.839    20437308.757
  24065194.177    -5875692.23649  -4561953.84845  24065193.663    24065202.065
  22768765.401   -11560112.84749  -8719865.73646  22768764.932    22768771.243
  23225522.438    -9769703.95949  -7115369.34745  23225522.315    23225528.330
  20379641.966   -25630703.16249 -19366779.15648  20379641.358    20379644.895
 03  3 23  0 12 30.0000000  0 10G14G 2G 6G23G17G15G16G 3G26G18
  23673118.699    -6788435.64649  -5259492.76845  23673118.072    23673126.344
  24807065.733    -7421735.26449  -5769840.53145  24807064.926    24807074.853
  23730840.367    -9966767.83249  -7545684.40345  23730840.070    23730849.193
  20973802.559   -21703781.50049 -16893818.81647  20973801.859    20973806.735
  21019195.010   -22888000.55949 -17815925.29947  21019194.235    21019199.704
  20432781.388   -27052321.64049 -20579622.66648  20432780.530    20432785.438
  24076754.289    -5814944.34449  -4514617.97545  24076753.790    24076762.190
  22754631.673   -11634385.70549  -8777740.62546  22754631.226    22754637.503
  23242551.415    -9680216.25049  -7045638.71245  23242551.307    23242557.373
  20380996.278   -25623586.15849 -19361233.43248  20380995.680    20380999.224
 03  3 23  0 13  0.0000000  0 10G14G 2G 6G23G17G15G16G 3G26G18
  23651960.696    -6899620.70349  -5346130.30045  23651960.049    23651968.246
  24811372.388    -7399104.05949  -5752205.90845  24811371.544    24811381.618
  23751508.001    -9858159.55549  -7461054.76145  23751507.663    23751516.887
  20980632.735   -21667888.81949 -16865850.49947  20980632.051    20980636.921
  21024128.118   -22862076.93249 -17795725.09047  21024127.339    21024132.796
  20428307.346   -27075832.83249 -20597943.05948  20428306.488    20428311.393
  24088363.400    -5753938.42449  -4467081.02845  24088362.833    24088371.311
  22740570.597   -11708276.78249  -8835318.01846  22740570.161    22740576.428
  23259656.585    -9590328.01449  -6975595.99145  23259656.505    23259662.481
  20382418.070   -25616114.60649 -19355411.43748  20382417.466    20382421.011
 03  3 23  0 13 30.0000000  0 10G14G 2G 6G23G17G15G16G 3G26G18
  23630823.855    -7010694.75349  -5432681.33245  23630823.222    23630831.401
  24815743.583    -7376133.56449  -5734306.89445  24815742.849    24815752.823
  23772201.732    -9749413.94549  -7376318.10445  23772201.437    23772210.751
  20987509.221   -21631752.59149 -16837692.40247  20987508.530    20987513.411
  21029111.866   -22835887.25749 -17775317.56547  21029111.069    21029116.559
  20423883.044   -27099082.89349 -20616059.97248  20423882.181    20423887.042
  24100021.370    -5692676.22749  -4419344.39445  24100020.902    24100029.243
  22726582.928   -11781782.22849  -8892594.91946  22726582.514    22726588.698
  23276837.670    -9500041.05049  -6905242.56845  23276837.581    23276843.647
  20383907.378   -25608288.31249 -19349313.02048  20383906.775    20383910.307
 03  3 23  0 14  0.0000000  0 10G14G 2G 6G23G17G15G16G 3G26G18
  23609708.630    -7121655.26349  -5519143.89545  23609708.069    23609716.161
  24820178.921    -7352825.79949  -5716145.08645  24820178.228    24820188.256
  23792921.136    -9640533.54749  -7291476.42245  23792920.933    23792930.100
  20994431.697   -21595374.97049 -16809346.20247  20994430.998    20994435.840
  21034146.330   -22809430.86749 -17754702.21647  21034145.554    21034151.046
  20419508.491   -27122071.21649 -20633972.93248  20419507.629    20419512.488
  24111727.440    -5631160.96849  -4371410.55845  24111726.938    24111735.247
  22712668.995   -11854900.27549  -8949569.95646  22712668.567    22712674.725
  23294093.987    -9409358.60249  -6834580.95745  23294093.914    23294099.973
  20385463.889   -25600108.71149 -19342939.29848  20385463.277    20385466.802
 03  3 23  0 14 30.0000000  0 10G14G 2G 6G23G17G15G16G 3G26G18
  23588615.485    -7232499.71249  -5605516.01545  23588614.802    23588623.062
  24824678.164    -7329182.74349  -5697722.01745  24824677.383    24824687.594
  23813665.712    -9531520.86349  -7206531.65045  23813665.432    23813674.704
  21001399.755   -21558757.55449 -16780813.15547  21001399.064    21001403.888
  21039231.548   -22782707.85449 -17733879.11247  21039230.774    21039236.276
  20415183.987   -27144796.65849 -20651681.05748  20415183.123    20415187.956
  24123481.154    -5569395.55749  -4323281.81245  24123480.651    24123488.954
  22698829.182   -11927628.68249  -9006241.37646  22698828.748    22698834.897
  23311424.986    -9318283.77149  -6763613.61245  23311424.926    23311431.005
  20387087.362   -25591577.25349 -19336291.40648  20387086.754    20387090.276
 03  3 23  0 15  0.0000000  0  9G14G 6G23G17G15G16G 3G26G18
  23567545.163    -7343224.19549  -5691794.66845  23567544.569    23567552.654
  23834435.267    -9422377.11749  -7121484.76045  23834434.944    23834444.248
  21008413.349   -21521900.93149 -16752093.71047  21008412.649    21008417.490
  21044367.829   -22755716.44349 -17712846.85947  21044367.078    21044372.587
  20410909.823   -27167257.56649 -20669183.04648  20410908.952    20410913.802
  24135282.032    -5507381.98849  -4274959.71045  24135281.532    24135289.963
  22685064.207   -11999963.80149  -9062606.33846  22685063.777    22685069.911
  23328830.334    -9226818.22349  -6692341.80445  23328830.307    23328836.414
  20388777.767   -25582694.17449 -19329369.51548  20388777.163    20388780.650
 03  3 23  0 15 30.0000000  0  9G14G 6G23G17G15G16G 3G26G18
  23546498.450    -7453824.75549  -5777976.75345  23546497.819    23546505.873
  23855229.416    -9313103.76449  -7036336.87945  23855229.108    23855238.381
  21015472.340   -21484805.62049 -16723188.27747  21015471.642    21015476.487
  21049555.610   -22728454.60849 -17691603.89347  21049554.856    21049560.371
  20406686.432   -27189451.48949 -20686476.99748  20406685.566    20406690.421
  24147129.817    -5445121.97849  -4226445.54645  24147129.280    24147137.810
  22671374.684   -12071902.53549  -9118662.42846  22671374.234    22671380.328
  23346309.594    -9134963.98249  -6620767.12145  23346309.526    23346315.785
  20390535.115   -25573459.35749 -19322173.54548  20390534.497    20390537.964
 03  3 23  0 16  0.0000000  0  9G14G 6G23G17G15G16G 3G26G18
  23525475.003    -7564303.41049  -5864063.86445  23525474.403    23525482.331
  23876046.919    -9203707.87149  -6951093.51845  23876046.587    23876055.817
  21022575.540   -21447477.98349 -16694101.81047  21022574.864    21022579.693
  21054794.126   -22700926.12749 -17670153.14947  21054793.360    21054798.888
  20402513.205   -27211382.00649 -20703565.70148  20402512.335    20402517.197
  24159023.039    -5382623.24049  -4177745.36845  24159022.446    24159031.031
  22657760.085   -12143447.46849  -9174411.65746  22657759.659    22657765.744
  23363861.410    -9042728.65949  -6548895.46445  23363861.395    23363867.650
  20392358.240   -25563878.70349 -19314708.09248  20392357.635    20392361.094
 03  3 23  0 16 30.0000000  0  9G14G 6G23G17G15G16G 3G26G18
  23504475.413    -7674656.14549  -5950052.84245  23504474.781    23504482.688
  23896887.516    -9094190.40249  -6865755.40645  23896887.179    23896896.563
  21029722.960   -21409918.23949 -16664834.47447  21029722.276    21029727.094
  21060083.627   -22673129.55349 -17648493.49947  21060082.858    21060088.422
  20398390.499   -27233046.79849 -20720447.33848  20398389.629    20398394.529
  24170961.409    -5319887.14049  -4128860.23345  24170960.792    24170969.391
  22644221.148   -12214594.78649  -9229851.05946  22644220.682    22644226.768
  23381485.426    -8950114.02649  -6476728.25145  23381485.345    23381491.675
  20394247.223   -25553951.96349 -19306972.96048  20394246.617    20394250.075
 03  3 23  0 17  0.0000000  0  9G14G 6G23G17G15G16G 3G26G18
  23483500.455    -7784879.69749  -6035941.17045  23483499.772    23483507.665
  23917750.934    -8984553.27349  -6780324.07145  23917750.576    23917760.088
  21036914.286   -21372127.60949 -16635387.23347  21036913.598    21036918.417
  21065424.427   -22645063.54349 -17626623.90447  21065423.691    21065429.215
  20394318.700   -27254444.21649 -20737120.63848  20394317.828    20394322.712
  24182944.359    -5256916.31549  -4079792.20645  24182943.667    24182952.487
  22630758.427   -12285341.60549  -9284978.39046  22630757.973    22630764.014
  23399181.148    -8857122.45549  -6404267.32945  23399181.134    23399187.454
  20396201.883   -25543680.04649 -19298968.86148  20396201.284    20396204.744
 03  3 23  0 17 30.0000000  0  9G14G 6G23G17G15G16G 3G26G18
  23462550.558    -7894971.45349  -6121726.79945  23462549.895    23462557.764
  23938636.642    -8874798.89249  -6694801.35645  23938636.307    23938645.825
  21044149.190   -21334107.88849 -16605761.48347  21044148.509    21044153.335
  21070816.668   -22616727.21249 -17604543.67347  21070815.918    21070821.461
  20390297.966   -27275573.27949 -20753584.83248  20390297.101    20390301.983
  24194971.471    -5193713.72949  -4030543.57945  24194970.820    24194979.627
  22617372.271   -12355686.01749  -9339792.15846  22617371.840    22617377.837
  23416948.016    -8763757.12149  -6331515.16445  23416947.945    23416954.328
  20398222.028   -25533064.23649 -19290696.79148  20398221.415    20398224.877
 03  3 23  0 18  0.0000000  0  9G14G 6G23G17G15G16G 3G26G18
  23441626.405    -8004927.83949  -6207406.94945  23441625.761    23441633.596
  23959544.265    -8764929.03649  -6609188.67645  23959543.943    23959553.519
  21051427.500   -21295860.08649 -16575958.00447  21051426.810    21051431.650
  21076260.560   -22588119.34149 -17582251.84347  21076259.819    21076265.372
  20386328.589   -27296432.34349 -20769838.63748  20386327.729    20386332.608
  24207042.279    -5130281.79149  -3981116.26445  24207041.693    24207050.502
  22604063.373   -12425624.59849  -9394289.68746  22604062.923    22604068.898
  23434785.537    -8670020.35049  -6258473.54345  23434785.445    23434791.933
  20400307.463   -25522105.13249 -19282157.21748  20400306.871    20400310.329
 03  3 23  0 18 30.0000000  0  9G14G 6G23G17G15G16G 3G26G18
  23420728.619    -8114746.04349  -6292979.43245  23420727.998    23420735.770
  23980473.506    -8654945.98449  -6523487.78945  23980473.222    23980482.839
  21058748.961   -21257385.58049 -16545977.87047  21058748.262    21058753.096
  21081756.321   -22559239.09949 -17559747.77647  21081755.584    21081761.132
  20382410.824   -27317020.12849 -20785881.05148  20382409.961    20382414.827
  24219156.260    -5066623.43849  -3931512.49645  24219155.637    24219164.419
  22590832.164   -12495155.02149  -9448469.19046  22590831.703    22590837.649
  23452693.242    -8575914.87849  -6185144.62945  23452693.117    23452699.589
  20402458.016   -25510803.82049 -19273350.98448  20402457.423    20402460.859
 03  3 23  0 19  0.0000000  0  9G14G 6G23G17G15G16G 3G26G18
  23399857.213    -8224425.44349  -6378443.75445  23399856.527    23399864.309
  24001423.280    -8544854.47849  -6437702.38845  24001423.081    24001432.755
  21066112.817   -21218688.31149 -16515824.15547  21066112.134    21066116.936
  21087303.482   -22530088.70349 -17537033.20247  21087302.734    21087308.250
  20378544.494   -27337337.80849 -20801712.99748  20378543.628    20378548.513
  24231312.285    -5002743.76149  -3881736.26545  24231311.602    24231320.507
  22577678.542   -12564277.52049  -9502330.82146  22577678.089    22577683.977
  23470670.075    -8481446.14349  -6111532.65945  23470669.983    23470676.335
  20404673.062   -25499163.81049 -19264280.83648  20404672.439    20404675.887
 03  3 23  0 19 30.0000000  0  9G14G 6G23G17G15G16G 3G26G18
  23379013.208    -8333960.93049  -6463795.94845  23379012.546    23379020.276
  24022393.846    -8434654.32749  -6351832.33445  24022393.582    24022403.394
  21073519.245   -21179767.34349 -16485496.12847  21073518.557    21073523.368
  21092902.782   -22500664.30849 -17514105.11647  21092902.038    21092907.534
  20374730.242   -27357381.72349 -20817331.61848  20374729.378    20374734.273
  24243510.298    -4938643.21649  -3831787.93245  24243509.707    24243518.604
  22564603.407   -12632987.41149  -9555870.95146  22564602.951    22564608.842
  23488715.930    -8386614.81149  -6037638.13545  23488715.810    23488722.110
  20406952.735   -25487183.93049 -19254945.85848  20406952.131    20406955.567
 03  3 23  0 20  0.0000000  0  9G14G 6G23G17G15G16G 3G26G18
  23358197.034    -8443350.05749  -6549034.08945  23358196.427    23358204.086
  24043384.602    -8324347.96049  -6265879.51845  24043384.251    24043394.135
  21080967.872   -21140624.46549 -16454995.18247  21080967.190    21080972.007
  21098554.248   -22470965.63249 -17490963.30947  21098553.505    21098559.003
  20370968.281   -27377150.86449 -20832736.13048  20370967.423    20370972.296
  24255749.844    -4874324.67549  -3781669.73445  24255749.294    24255758.200
  22551607.219   -12701282.56249  -9609087.90146  22551606.768    22551612.677
  23506830.269    -8291423.62449  -5963463.20245  23506830.160    23506836.435
  20409296.907   -25474865.21349 -19245346.84448  20409296.308    20409299.721
 03  3 23  0 20 30.0000000  0  9G14G 6G23G17G15G16G 3G26G18
  23337409.209    -8552590.49449  -6634156.37045  23337408.569    23337416.132
  24064394.958    -8213938.56749  -6179846.43445  24064394.756    24064404.539
  21088458.300   -21101261.93949 -16424323.08947  21088457.605    21088462.438
  21104257.924   -22440992.73449 -17467607.82447  21104257.167    21104262.702
  20367258.677   -27396644.88449 -20847926.26348  20367257.821    20367262.696
  24268030.157    -4809791.91449  -3731384.62145  24268029.662    24268038.478
  22538690.265   -12769161.44349  -9661980.48646  22538689.850    22538695.726
  23525012.315    -8195876.62249  -5889011.01945  23525012.213    23525018.479
  20411705.147   -25462209.79449 -19235485.46548  20411704.551    20411707.945
 03  3 23  0 21  0.0000000  0  9G14G 6G23G17G15G16G 3G26G18
  23316650.182    -8661679.57949  -6719160.72145  23316649.510    23316657.012
  24085424.467    -8103428.64449  -6093735.00045  24085424.147    24085433.992
  21095990.226   -21061681.42249 -16393481.12847  21095989.530    21095994.379
  21110013.823   -22410745.37149 -17444038.47347  21110013.072    21110018.620
  20363601.616   -27415862.82049 -20862901.26548  20363600.743    20363605.635
  24280350.604    -4745048.04049  -3680934.99445  24280350.103    24280358.916
  22525852.966   -12836621.77049  -9714546.92546  22525852.547    22525858.406
  23543261.483    -8099976.69449  -5814283.83545  23543261.379    23543267.611
  20414177.201   -25449219.04249 -19225362.79148  20414176.600    20414179.997
 03  3 23  0 21 30.0000000  0  9G14G 6G23G17G15G16G 3G26G18
  23295920.716    -8770613.32049  -6804044.00945  23295920.070    23295927.487
  24106472.829    -7992819.26049  -6007546.07045  24106472.486    24106482.347
  21103563.595   -21021883.23149 -16362469.55147  21103562.897    21103567.722
  21115822.398   -22380221.19849 -17420253.42647  21115821.641    21115827.228
  20359997.530   -27434802.40249 -20877659.36548  20359996.678    20360001.546
  24292710.846    -4680095.05749  -3630322.43245  24292710.376    24292719.220
  22513095.910   -12903660.36649  -9766784.75146  22513095.459    22513101.359
  23561577.476    -8003725.69949  -5739283.10145  23561577.350    23561583.518
  20416713.045   -25435892.88849 -19214978.76448  20416712.444    20416715.844
 03  3 23  0 22  0.0000000  0  9G14G 6G23G17G15G16G 3G26G18
  23275220.723    -8879391.78549  -6888806.31145  23275220.081    23275227.458
  24127539.244    -7882115.32349  -5921283.45145  24127538.902    24127548.878
  21111177.571   -20981871.64349 -16331291.69347  21111176.856    21111181.666
  21121683.288   -22349422.03249 -17396254.09547  21121682.533    21121688.138
  20356446.137   -27453465.11149 -20892201.72148  20356445.286    20356450.176
  24305109.866    -4614938.26149  -3579551.05745  24305109.322    24305118.261
  22500419.103   -12970277.28849  -9818693.98546  22500418.644    22500424.568
  23579959.186    -7907129.31049  -5664013.20145  23579959.004    23579965.216
  20419312.012   -25422235.20949 -19204336.40648  20419311.405    20419314.793
 03  3 23  0 22 30.0000000  0  9G14G 6G23G17G15G16G 3G26G18
  23254551.348    -8988009.36249  -6973443.24045  23254550.769    23254558.076
  24148623.701    -7771316.58349  -5834946.97245  24148623.376    24148633.407
  21118832.341   -20941645.52249 -16299946.66447  21118831.637    21118836.414
  21127597.121   -22318344.75149 -17372038.05047  21127596.359    21127601.962
  20352948.177   -27471846.97149 -20906525.23348  20352947.318    20352952.210
  24317547.637    -4549577.89049  -3528621.05545  24317547.032    24317556.101
  22487823.432   -13036467.70149  -9870270.87746  22487822.974    22487828.907
  23598406.576    -7810187.72449  -5588474.32245  23598406.473    23598412.551
  20421974.375   -25408244.48349 -19193434.53348  20421973.762    20421977.138
 03  3 23  0 23  0.0000000  0  9G14G 6G23G17G15G16G 3G26G18
  23233912.761    -9096465.25149  -7057954.17346  23233912.157    23233919.443
  24169725.333    -7660427.40049  -5748540.00745  24169725.008    24169735.151
  21126527.228   -20901208.51249 -16268437.30847  21126526.540    21126531.347
  21133563.572   -22286990.90049 -17347606.49447  21133562.809    21133568.393
  20349503.466   -27489948.87249 -20920630.59548  20349502.613    20349507.497
  24330023.190    -4484018.93249  -3477536.31645  24330022.636    24330031.640
  22475308.941   -13102231.68449  -9921515.48246  22475308.468    22475314.424
  23616918.705    -7712906.00449  -5512670.40845  23616918.607    23616924.609
  20424699.454   -25393924.00249 -19182275.70948  20424698.835    20424702.206
 03  3 23  0 23 30.0000000  0  9G14G 6G23G17G15G16G 3G26G18
  23213305.718    -9204755.43349  -7142335.98246  23213305.103    23213312.410
  24190843.938    -7549449.01249  -5662063.53745  24190843.607    24190853.784
  21134262.222   -20860560.94949 -16236763.88247  21134261.515    21134266.338
  21139583.100   -22255358.26349 -17322957.70047  21139582.322    21139587.913
  20346112.404   -27507768.77549 -20934516.21448  20346111.550    20346116.455
  24342536.291    -4418263.19149  -3426298.23245  24342535.712    24342544.697
  22462876.222   -13167565.76649  -9972425.11046  22462875.765    22462881.683
  23635495.209    -7615285.99849  -5436602.87745  23635495.127    23635501.053
  20427487.269   -25379273.93349 -19170860.05548  20427486.635    20427490.009
 03  3 23  0 24  0.0000000  0  9G14G 6G23G17G15G16G 3G26G18
  23192730.780    -9312876.99449  -7226586.40946  23192730.187    23192737.436
  24211979.128    -7438383.49049  -5575519.16045  24211978.845    24211989.014
  21142037.005   -20819704.13749 -16204927.40947  21142036.293    21142041.102
  21145655.760   -22223446.27549 -17298091.24047  21145654.978    21145660.577
  20342775.292   -27525305.32749 -20948181.04448  20342774.430    20342779.353
  24355086.257    -4352313.47249  -3374908.99245  24355085.684    24355094.673
  22450525.777   -13232467.41449 -10022997.77146  22450525.345    22450531.247
  23654135.535    -7517330.51449  -5360273.95445  23654135.522    23654141.399
  20430337.627   -25364295.24749 -19159188.34448  20430336.992    20430340.360
 03  3 23  0 24 30.0000000  0  9G14G 6G23G17G15G16G 3G26G18
  23172188.247    -9420828.26249  -7310704.11346  23172187.579    23172194.924
  24233130.228    -7327234.29549  -5488909.58445  24233129.983    24233140.247
  21149851.094   -20778640.82249 -16172930.02247  21149850.393    21149855.191
  21151781.537   -22191255.21149 -17273007.31147  21151780.757    21151786.342
  20339492.103   -27542558.46549 -20961625.02948  20339491.243    20339496.177
  24367672.351    -4286173.77649  -3323371.72245  24367671.791    24367680.774
  22438257.861   -13296935.59249 -10073232.66346  22438257.428    22438263.308
  23672838.944    -7419043.60649  -5283686.77545  23672838.915    23672844.836
  20433250.079   -25348990.27849 -19147262.38048  20433249.456    20433252.802
 03  3 23  0 25  0.0000000  0  9G14G 6G23G17G15G16G 3G26G18
  23151678.664    -9528605.97549  -7394686.59746  23151678.057    23151685.310
  24254296.924    -7216003.44949  -5402236.39045  24254296.679    24254306.927
  21157704.267   -20737372.18949 -16140772.65247  21157703.547    21157708.356
  21157960.503   -22158784.56149 -17247705.53147  21157959.719    21157965.317
  20336263.143   -27559526.59449 -20974846.93948  20336262.299    20336267.217
  24380294.130    -4219846.71049  -3271688.44645  24380293.634    24380302.656
  22426072.882   -13360967.75549 -10123127.79946  22426072.453    22426078.296
  23691604.865    -7320427.96449  -5206843.42545  23691604.803    23691610.778
  20436224.442   -25333359.81649 -19135082.79248  20436223.827    20436227.144
 03  3 23  0 25 30.0000000  0  9G14G 6G23G17G15G16G 3G26G18
  23131202.596    -9636207.71649  -7478531.95446  23131201.973    23131209.212
  24275478.661    -7104693.41349  -5315501.48445  24275478.326    24275488.843
  21165596.161   -20695899.92249 -16108456.60447  21165595.453    21165600.268
  21164192.853   -22126033.45149 -17222185.20347  21164192.065    21164197.680
  20333088.624   -27576208.76649 -20987846.02148  20333087.756    20333092.679
  24392950.953    -4153335.26649  -3219861.50445  24392950.521    24392959.444
  22413971.272   -13424562.05149 -10172681.74846  22413970.851    22413976.686
  23710432.720    -7221486.62649  -5129746.31145  23710432.729    23710438.760
  20439260.443   -25317405.40649 -19122650.77248  20439259.825    20439263.138
 03  3 23  0 26  0.0000000  0  9G14G 6G23G17G15G16G 3G26G18
  23110760.660    -9743629.92249  -7562237.40446  23110760.074    23110767.291
  24296675.158    -6993305.90249  -5228706.20045  24296674.832    24296685.216
  21173526.707   -20654224.71749 -16075982.42347  21173526.003    21173530.799
  21170478.901   -22093000.11149 -17196444.96347  21170478.123    21170483.753
  20329968.852   -27592603.23949 -21000620.92448  20329967.976    20329972.917
  24405642.380    -4086641.92249  -3167892.81645  24405641.836    24405650.949
  22401953.487   -13487715.68049 -10221892.30746  22401953.061    22401958.881
  23729322.124    -7122222.18349  -5052397.42445  23729322.002    23729328.282
  20442358.001   -25301127.57149 -19109966.73748  20442357.400    20442360.713
 03  3 23  0 26 30.0000000  0  9G14G 6G23G17G15G16G 3G26G18
  23090353.445    -9850869.91349  -7645800.87746  23090352.872    23090360.035
  24317885.860    -6881843.46549  -5141852.53245  24317885.557    24317896.031
  21181495.530   -20612348.33049 -16043351.47947  21181494.816    21181499.587
  21176818.707   -22059684.21349 -17170484.54347  21176817.934    21176823.556
  20326904.039   -27608708.85449 -21013170.74548  20326903.158    20326908.126
  24418367.896    -4019769.67249  -3115784.71445  24418367.286    24418376.436
  22390019.997   -13550426.37349 -10270757.73546  22390019.552    22390025.388
  23748272.404    -7022637.56049  -4974799.05345  23748272.263    23748278.565
  20445516.842   -25284527.71949 -19097031.77948  20445516.234    20445519.571
 03  3 23  0 27  0.0000000  0  9G14G 6G23G17G15G16G 3G26G18
  23069981.076    -9957926.75749  -7729221.63346  23069980.485    23069987.650
  24339110.100    -6770310.26649  -5054943.71045  24339109.755    24339120.155
  21189501.935   -20570274.25749 -16010566.49647  21189501.233    21189506.034
  21183211.972   -22026087.40849 -17144305.23747  21183211.218    21183216.856
  20323894.054   -27624526.27849 -21025496.00048  20323893.182    20323898.157
  24431126.432    -3952723.59749  -3063541.17645  24431125.763    24431134.998
  22378170.785   -13612694.19949 -10319278.06246  22378170.345    22378176.177
  23767282.727    -6922737.79049  -4896955.11445  23767282.513    23767288.929
  20448736.372   -25267608.87249 -19083848.25548  20448735.775    20448739.100
 03  3 23  0 27 30.0000000  0  9G14G 6G23G17G15G16G 3G26G18
  23049644.394   -10064795.96649  -7812496.19546  23049643.793    23049650.914
  24360347.670    -6658706.90049  -4967980.21245  24360347.361    24360357.738
  21197546.077   -20528002.12149 -15977627.17247  21197545.385    21197550.178
  21189659.220   -21992207.01249 -17117904.94847  21189658.454    21189664.127
  20320939.407   -27640052.80149 -21037594.57448  20320938.537    20320943.547
  24443917.917    -3885504.69749  -3011162.95845  24443917.149    24443926.531
  22366406.668   -13674515.08949 -10367450.13146  22366406.199    22366412.034
  23786352.851    -6822524.05949  -4818866.53245  23786352.591    23786359.109
  20452016.713   -25250370.47349 -19070415.73048  20452016.104    20452019.463
 03  3 23  0 28  0.0000000  0  9G14G 6G23G17G15G16G 3G26G18
  23029343.810   -10171475.55149  -7895622.99046  23029343.208    23029350.249
  24381598.009    -6547036.33249  -4880964.35245  24381597.681    24381608.276
  21205627.487   -20485534.21849 -15944535.30247  21205626.790    21205631.538
  21196160.402   -21958043.11549 -17091283.74947  21196159.644    21196165.315
  20318040.280   -27655287.89249 -21049466.06248  20318039.414    20318044.413
  24456741.610    -3818116.31249  -2958652.68745  24456740.961    24456750.353
  22354727.871   -13735887.41249 -10415272.66946  22354727.365    22354733.191
  23805482.006    -6721999.87749  -4740536.02545  23805481.758    23805488.187
  20455357.513   -25232814.39449 -19056735.66448  20455356.911    20455360.275
 03  3 23  0 28 30.0000000  0  9G14G 6G23G17G15G16G 3G26G18
  23009079.993   -10277962.09149  -7978599.36246  23009079.406    23009086.370
  24402860.740    -6435300.57249  -4793897.69745  24402860.322    24402870.856
  21213745.935   -20442871.53649 -15911291.65247  21213745.240    21213749.986
  21202715.767   -21923594.65649 -17064440.81047  21202715.006    21202720.677
  20315196.894   -27670229.92249 -21061109.18648  20315196.032    20315201.027
  24469596.988    -3750561.24749  -2906012.53245  24469596.360    24469605.664
  22343134.843   -13796808.88249 -10462743.89646  22343134.360    22343140.160
  23824669.737    -6621167.85249  -4661965.65745  23824669.534    23824675.987
  20458758.575   -25214941.77849 -19042808.94348  20458757.966    20458761.313
 03  3 23  0 29  0.0000000  0  9G14G 6G23G17G15G16G 3G26G18
  22988853.213   -10384253.73849  -8061423.87646  22988852.609    22988859.609
  24424135.316    -6323502.67249  -4706782.59545  24424134.753    24424145.529
  21221900.970   -20400016.45849 -15877898.08747  21221900.274    21221905.011
  21209325.242   -21888861.83149 -17037376.29447  21209324.470    21209330.126
  20312409.395   -27684878.45449 -21072523.61148  20312408.532    20312413.513
  24482483.446    -3682843.09749  -2853245.29345  24482482.720    24482492.213
  22331627.845   -13857278.17649 -10509862.77546  22331627.376    22331633.163
  23843915.299    -6520031.91749  -4583158.46245  23843915.051    23843921.514
  20462219.534   -25196754.38249 -19028636.93748  20462218.921    20462222.262
 03  3 23  0 29 30.0000000  0  9G14G 6G23G17G15G16G 3G26G18
  22968664.233   -10490346.96149  -8144093.77046  22968663.566    22968670.647
  24445421.390    -6211644.28249  -4619620.37845  24445420.787    24445431.534
  21230092.506   -20356969.60349 -15844355.08847  21230091.803    21230096.554
  21215989.108   -21853843.10849 -17010088.99447  21215988.327    21215993.956
  20309678.013   -27699231.87649 -21083708.07648  20309677.143    20309682.113
  24495400.507    -3614964.19049  -2800352.82045  24495399.937    24495409.332
  22320207.401   -13917292.71749 -10556627.29746  22320206.932    22320212.730
  23863218.284    -6418594.15949  -4504116.08545  23863218.087    23863224.509
  20465740.238   -25178252.82749 -19014220.12648  20465739.623    20465742.975
 03  3 23  0 30  0.0000000  0  9G14G 6G23G17G15G16G 3G26G18
  22948513.396   -10596239.70349  -8226607.44546  22948512.736    22948519.775
  24466718.317    -6099728.51949  -4532413.43045  24466717.713    24466728.709
  21238320.116   -20313733.30749 -15810664.47847  21238319.417    21238324.181
  21222707.356   -21818538.50649 -16982578.93747  21222706.566    21222712.223
  20307002.819   -27713289.90349 -21094662.36948  20307001.955    20307006.911
  24508347.365    -3546928.35949  -2747338.05145  24508346.774    24508356.261
  22308873.818   -13976850.90849 -10603036.22946  22308873.348    22308879.150
  23882577.976    -6316858.46849  -4424841.54645  23882577.845    23882584.209
  20469320.318   -25159439.20549 -18999560.15348  20469319.725    20469323.087
 03  3 23  0 30 30.0000000  0 11G 9G14G31G 6G23G17G15G16G 3G26G18
  24430567.659    -2756525.39859  -2137952.40245  24430567.250    24430576.757
  22928400.998   -10701930.44449  -8308963.70946  22928400.309    22928407.352
  24403387.889     -892472.51459   -668982.24145  24403384.768    24403392.831
  24488025.505    -5987759.10249  -4445164.69045  24488024.853    24488036.057
  21246583.188   -20270310.60549 -15776828.61547  21246582.497    21246587.233
  21229479.857   -21782948.96149 -16954846.85047  21229479.077    21229484.719
  20304383.857   -27727052.55749 -21105386.50148  20304382.998    20304387.924
  24521323.290    -3478739.83249  -2694204.30445  24521322.671    24521332.161
  22297627.198   -14035952.12649 -10649089.06647  22297626.704    22297632.507
  23901993.491    -6214829.28349  -4345338.32545  23901993.395    23901999.717
  20472959.317   -25140315.92749 -18984658.88548  20472958.716    20472962.102
 03  3 23  0 31  0.0000000  0 11G 9G14G31G 6G23G17G15G16G 3G26G18
  24418374.054    -2820603.12349  -2187882.99245  24418373.712    24418383.041
  22908327.790   -10807415.27349  -8391159.53146  22908327.126    22908334.062
  24385390.022     -987047.12449   -742676.64145  24385388.327    24385395.579
  24509342.746    -5875736.99749  -4357874.88145  24509342.025    24509353.324
  21254881.722   -20226701.57849 -15742847.55947  21254881.032    21254885.769
  21236306.853   -21747072.85049 -16926891.45647  21236306.081    21236311.734
  20301821.593   -27740517.38549 -21115878.55648  20301820.732    20301825.624
  24534327.895    -3410400.44049  -2640953.00345  24534327.258    24534336.737
  22286468.124   -14094593.21449 -10694783.36347  22286467.660    22286473.405
  23921464.550    -6112508.30049  -4265607.70545  23921464.404    23921470.815
  20476657.285   -25120883.02849 -18969516.35548  20476656.676    20476660.075
 03  3 23  0 31 30.0000000  0 11G 9G14G31G 6G23G17G15G16G 3G26G18
  24406229.801    -2884421.16549  -2237611.22845  24406229.519    24406238.806
  22888294.436   -10912690.64749  -8473192.14746  22888293.764    22888300.726
  24367443.995    -1081352.36549   -816161.15645  24367442.721    24367449.703
  24530669.694    -5763663.82649  -4270545.28945  24530669.091    24530680.148
  21263215.583   -20182906.83149 -15708721.78847  21263214.883    21263219.646
  21243188.724   -21710908.45849 -16898711.43147  21243187.957    21243193.632
  20299316.361   -27753682.35949 -21126136.96148  20299315.486    20299320.368
  24547360.906    -3341912.25849  -2587585.74845  24547360.256    24547369.687
  22275397.219   -14152771.12149 -10740116.74947  22275396.754    22275402.475
  23940990.690    -6009897.70349  -4185651.43245  23940990.577    23940997.020
  20480414.031   -25101141.12249 -18954133.03848  20480413.415    20480416.798
 03  3 23  0 32  0.0000000  0 10G 9G14G31G23G17G15G16G 3G26G18
  24394135.568    -2947976.34949  -2287134.63445  24394135.392    24394144.553
  22868301.486   -11017753.78649  -8555059.38746  22868300.835    22868307.717
  24349549.809    -1175385.64249   -889433.74745  24349548.389    24349555.736
  21271584.515   -20138927.85049 -15674452.45447  21271583.809    21271588.580
  21250125.543   -21674455.09749 -16870306.23747  21250124.775    21250130.462
  20296868.403   -27766546.48449 -21136160.93648  20296867.531    20296872.406
  24560421.681    -3273278.16049  -2534104.79645  24560421.223    24560430.505
  22264414.808   -14210483.88449 -10785087.67547  22264414.347    22264420.045
  23960571.392    -5907000.40249  -4105471.74045  23960571.291    23960577.848
  20484229.336   -25081091.50249 -18938509.94848  20484228.714    20484232.120
 03  3 23  0 32 30.0000000  0 10G 9G14G31G23G17G15G16G 3G26G18
  24382092.235    -3011263.96349  -2336449.54045  24382091.989    24382101.307
  22848349.664   -11122600.70049  -8636758.12846  22848349.037    22848355.839
  24331708.190    -1269142.81949   -962491.18145  24331706.940    24331714.287
  21279988.446   -20094764.75149 -15640039.65347  21279987.741    21279992.528
  21257117.701   -21637711.09949 -16841674.56647  21257116.954    21257122.636
  20294478.174   -27779107.16749 -21145948.46148  20294477.306    20294482.182
  24573509.934    -3204499.64249  -2480511.31545  24573509.414    24573518.762
  22253521.490   -14267728.42849 -10829693.75347  22253521.048    22253526.745
  23980206.328    -5803818.07249  -4025069.93345  23980206.139    23980212.830
  20488103.270   -25060733.81549 -18922646.79748  20488102.652    20488106.061
 03  3 23  0 33  0.0000000  0 10G 9G14G31G23G17G15G16G 3G26G18
  24370100.246    -3074282.16049  -2385554.50245  24370099.871    24370109.266
  22828439.353   -11227229.63649  -8718287.03446  22828438.721    22828445.495
  24313919.387    -1362622.44049  -1035332.35145  24313918.225    24313925.745
  21288426.951   -20050420.18049 -15605485.45047  21288426.249    21288431.038
  21264165.133   -21600676.80049 -16812816.69147  21264164.375    21264170.059
  20292145.708   -27791364.23449 -21155499.40948  20292144.840    20292149.703
  24586624.833    -3135581.07449  -2426808.72145  24586624.343    24586633.593
  22242717.451   -14324503.84049 -10873934.28547  22242717.007    22242722.676
  23999894.662    -5700354.99549  -3944449.38445  23999894.558    23999901.278
  20492035.330   -25040070.68449 -18906545.64548  20492034.700    20492038.108
 03  3 23  0 33 30.0000000  0 10G 9G14G31G23G17G15G16G 3G26G18
  24358159.820    -3137029.50849  -2434448.42045  24358159.357    24358168.637
  22808570.664   -11331639.74249  -8799645.41146  22808570.056    22808576.755
  24296183.637    -1455823.75349  -1107956.66245  24296182.522    24296190.035
  21296899.331   -20005897.58249 -15570792.51847  21296898.644    21296903.424
  21271267.527   -21563353.33749 -16783733.48947  21271266.778    21271272.443
  20289870.838   -27803318.61949 -21164814.50148  20289869.975    20289874.850
  24599765.493    -3066527.17049  -2373000.64945  24599765.007    24599774.214
  22232002.723   -14380809.89149 -10917809.07047  22232002.285    22232007.953
  24019635.537    -5596616.12149  -3863613.92245  24019635.343    24019642.144
  20496024.862   -25019105.39249 -18890209.04348  20496024.238    20496027.664
 03  3 23  0 34  0.0000000  0 10G 9G14G31G23G17G15G16G 3G26G18
  24346271.549    -3199502.07149  -2483128.21045  24346271.137    24346280.391
  22788744.285   -11435827.60649  -8880830.60846  22788743.691    22788750.359
  24278501.523    -1548743.17549  -1180361.30645  24278500.604    24278508.047
  21305405.464   -19961197.58849 -15535961.35547  21305404.775    21305409.543
  21278425.198   -21525739.65349 -16754424.14547  21278424.443    21278430.151
  20287653.934   -27814968.44149 -21173892.27648  20287653.070    20287657.965
  24612931.412    -2997340.38449  -2319089.04345  24612930.942    24612940.268
  22221377.835   -14436643.86149 -10961316.00747  22221377.381    22221383.047
  24039428.473    -5492603.53749  -3782565.16545  24039428.349    24039434.951
  20500071.814   -24997838.27449 -18873637.25648  20500071.196    20500074.625
 03  3 23  0 34 30.0000000  0 10G 9G14G31G23G17G15G16G 3G26G18
  24334436.236    -3261696.40749  -2531591.19945  24334435.841    24334445.323
  22768960.797   -11539790.04249  -8961840.15846  22768960.217    22768966.835
  24260873.606    -1641377.96649  -1252544.15345  24260872.627    24260880.125
  21313945.133   -19916321.49049 -15500992.96247  21313944.443    21313949.172
  21285638.186   -21487835.00949 -16724888.08147  21285637.440    21285643.159
  20285495.238   -27826312.40249 -21182731.71748  20285494.365    20285499.261
  24626122.250    -2928023.18649  -2265075.82645  24626121.720    24626131.266
  22210843.157   -14492003.61549 -11004453.42947  22210842.723    22210848.373
  24059272.997    -5388319.99749  -3701305.28345  24059272.712    24059279.479
  20504176.096   -24976270.12949 -18856830.90348  20504175.475    20504178.888
 03  3 23  0 35  0.0000000  0 10G 9G14G31G23G17G15G16G 3G26G18
  24322654.597    -3323609.14549  -2579834.77345  24322654.257    24322663.482
  22749220.784   -11643524.06349  -9042671.71446  22749220.173    22749226.789
  24243300.518    -1733724.87349  -1324502.67245  24243299.683    24243307.072
  21322518.109   -19871270.28049 -15465888.11747  21322517.398    21322522.140
  21292906.803   -21449638.28249 -16695124.41647  21292906.048    21292911.795
  20283395.058   -27837348.80449 -21191331.50248  20283394.198    20283399.066
  24639337.355    -2858578.15049  -2210962.98245  24639336.912    24639346.384
  22200399.171   -14546887.02849 -11047219.67547  22200398.724    22200404.355
  24079168.587    -5283768.06349  -3619836.26145  24079168.369    24079174.959
  20508337.445   -24954402.11449 -18839790.88848  20508336.834    20508340.216
 03  3 23  0 35 30.0000000  0 10G 9G14G31G23G17G15G16G 3G26G18
  24310926.775    -3385238.86349  -2627857.81845  24310926.356    24310935.543
  22729524.404   -11747028.72649  -9123324.55646  22729523.808    22729530.370
  24225782.353    -1825783.18149  -1396236.30845  24225781.481    24225788.829
  21331123.754   -19826047.24649 -15430649.38247  21331123.031    21331127.798
  21300230.794   -21411150.69749 -16665134.10847  21300230.038    21300235.784
  20281353.274   -27848078.46449 -21199692.26848  20281352.412    20281357.285
  24652575.835    -2789010.24749  -2156754.40045  24652575.387    24652584.888
  22190045.873   -14601293.79949 -11089614.51147  22190045.431    22190051.015
  24099114.297    -5178952.69449  -3538161.94945  24099114.121    24099120.686
  20512555.258   -24932237.34549 -18822519.63548  20512554.644    20512558.022
 03  3 23  0 36  0.0000000  0 10G 9G14G31G23G17G15G16G 3G26G18
  24299253.756    -3446580.68449  -2675656.52845  24299253.337    24299262.475
  22709872.443   -11850299.91049  -9203795.46546  22709871.843    22709878.356
  24208319.884    -1917548.78849  -1467741.85945  24208319.080    24208326.312
  21339762.109   -19780652.38849 -15395276.75647  21339761.381    21339766.159
  21307610.454   -21372370.31749 -16634915.64947  21307609.699    21307615.457
  20279370.307   -27858498.90049 -21207812.08048  20279369.435    20279374.313
  24665837.391    -2719320.68249  -2102451.02345  24665836.985    24665846.592
  22179783.911   -14655220.64049 -11131635.37947  22179783.475    22179789.001
  24119109.901    -5073875.40249  -3456283.54945  24119109.707    24119116.115
  20516829.567   -24909775.69749 -18805017.04748  20516828.945    20516832.336
 03  3 23  0 36 30.0000000  0 10G 9G14G31G23G17G15G16G 3G26G18
  24287635.887    -3507632.50649  -2723229.26345  24287635.430    24287644.681
  22690265.301   -11953335.61349  -9284082.87946  22690264.727    22690271.183
  24190913.429    -2009019.80249  -1539017.85145  24190912.541    24190919.828
  21348432.700   -19735087.94749 -15359771.99247  21348431.978    21348436.768
  21315045.764   -21333297.61449 -16604469.40547  21315045.021    21315050.764
  20277446.306   -27868609.70349 -21215690.61748  20277445.427    20277450.288
  24679121.407    -2649513.47149  -2048055.97045  24679121.059    24679130.658
  22169613.442   -14708666.67649 -11173281.59247  22169612.996    22169618.505
  24139154.538    -4968540.01749  -3374204.02945  24139154.361    24139160.955
  20521159.983   -24887019.13049 -18787284.65248  20521159.357    20521162.755
 03  3 23  0 37  0.0000000  0  9G 9G14G31G23G17G15G 3G26G18
  24276074.289    -3568388.36349  -2770571.38145  24276073.844    24276083.051
  22670703.985   -12056130.34049  -9364182.51846  22670703.419    22670709.832
  24173564.059    -2100190.83049  -1610060.09645  24173563.160    24173570.438
  21357135.858   -19689352.54149 -15324134.01347  21357135.143    21357139.936
  21322537.411   -21293928.85849 -16573792.47247  21322536.675    21322542.418
  20275581.999   -27878406.80649 -21223324.71848  20275581.127    20275585.941
  22159535.380   -14761627.10049 -11214549.41447  22159534.933    22159540.417
  24159248.319    -4862946.63749  -3291923.48345  24159248.300    24159254.600
  20525546.799   -24863966.14949 -18769321.29148  20525546.190    20525549.588
 03  3 23  0 37 30.0000000  0  9G 9G14G31G23G17G15G 3G26G18
  24264569.929    -3628843.73549  -2817679.37045  24264569.448    24264578.706
  22651189.331   -12158680.09549  -9444091.27746  22651188.729    22651195.089
  24156272.584    -2191057.79949  -1680865.40545  24156271.841    24156278.923
  21365871.531   -19643446.28549 -15288362.90147  21365870.835    21365875.622
  21330085.793   -21254262.11649 -16542883.33947  21330085.040    21330090.789
  20273777.842   -27887887.75849 -21230712.46048  20273776.946    20273781.768
  22149550.239   -14814098.99749 -11255436.55847  22149549.796    22149555.276
  24179390.856    -4757097.16449  -3209443.36645  24179390.746    24179397.135
  20529990.010   -24840616.81649 -18751126.99848  20529989.394    20529992.796
 03  3 23  0 38  0.0000000  0  9G 9G14G31G23G17G15G 3G26G18
  24253122.164    -3689001.84049  -2864555.71045  24253121.693    24253130.729
  22631720.617   -12260988.29749  -9523811.80346  22631720.017    22631726.316
  24139038.242    -2281624.34149  -1751436.61645  24139037.472    24139044.682
  21374638.227   -19597376.91249 -15252464.68847  21374637.526    21374642.313
  21337689.668   -21214303.59249 -16511746.84947  21337688.905    21337694.635
  20272032.836   -27897057.68449 -21237857.84748  20272031.964    20272036.755
  22139657.275   -14866086.63249 -11295946.36147  22139656.845    22139662.321
  24199580.415    -4651000.64749  -3126770.76845  24199580.239    24199586.646
  20534488.257   -24816978.54149 -18732707.56048  20534487.620    20534491.036
 03  3 23  0 38 30.0000000  0  9G 9G14G31G23G17G15G 3G26G18
  24241731.761    -3748858.31049  -2911197.00545  24241731.409    24241740.330
  22612298.534   -12363051.56049  -9603341.48546  22612297.902    22612304.152
  24121861.723    -2371887.03849  -1821771.06545  24121860.984    24121868.160
  21383435.915   -19551144.85949 -15216439.71647  21383435.196    21383439.971
  21345349.434   -21174051.32449 -16480381.46347  21345348.643    21345354.374
  20270347.453   -27905914.53149 -21244759.27548  20270346.581    20270351.381
  22129857.033   -14917587.13349 -11336076.57147  22129856.589    22129862.086
  24219816.518    -4544659.27949  -3043907.36245  24219816.450    24219822.825
  20539041.330   -24793051.86349 -18714063.38848  20539040.718    20539044.124
 03  3 23  0 39  0.0000000  0  9G 9G14G31G23G17G15G 3G26G18
  24230399.550    -3808409.24649  -2957600.21945  24230399.194    24230408.015
  22592923.812   -12464866.04049  -9682677.28946  22592923.155    22592929.366
  24104743.732    -2461842.05149  -1891865.76245  24104743.004    24104750.147
  21392264.479   -19504750.48749 -15180288.26047  21392263.764    21392268.542
  21353065.304   -21133504.34049 -16448786.43247  21353064.501    21353070.205
  20268722.014   -27914456.39449 -21251415.25948  20268721.136    20268725.906
  22120149.982   -14968597.77949 -11375825.08547  22120149.539    22120155.041
  24240098.820    -4438075.06249  -2960854.74045  24240098.799    24240104.992
  20543649.213   -24768837.15749 -18695194.77748  20543648.588    20543652.013
 03  3 23  0 39 30.0000000  0  9G 9G14G31G23G17G15G 3G26G18
  24219126.267    -3867650.28249  -3003761.95745  24219125.889    24219134.750
  22573597.105   -12566427.98449  -9761816.32546  22573596.444    22573602.606
  24087684.991    -2551485.62649  -1961717.78045  24087684.194    24087691.497
  21401123.913   -19458193.89349 -15144010.39447  21401123.191    21401127.930
  21360837.629   -21092660.55349 -16416960.12647  21360836.840    21360842.539
  20267156.959   -27922680.77649 -21257823.85448  20267156.070    20267160.854
  22110536.738   -15019115.56649 -11415189.54947  22110536.294    22110541.799
  24260427.041    -4331249.65849  -2877614.16345  24260427.126    24260433.223
  20548311.933   -24744334.23949 -18676101.58448  20548311.310    20548314.745
 03  3 23  0 40  0.0000000  0  9G 9G14G31G23G17G15G 3G26G18
  24207912.046    -3926580.67349  -3049681.63245  24207911.742    24207920.563
  22554318.483   -12667736.97249  -9840758.26046  22554317.821    22554323.991
  24070685.560    -2640817.51549  -2031326.92545  24070684.822    24070692.043
  21410013.448   -19411479.08349 -15107609.24747  21410012.717    21410017.456
  21368666.082   -21051521.91949 -16384904.06747  21368665.291    21368670.990
  20265652.058   -27930588.99749 -21263986.09348  20265651.182    20265655.957
  22101017.129   -15069141.18249 -11454170.51047  22101016.695    22101022.188
  24280800.109    -4224188.52149  -2794189.90845  24280800.042    24280806.330
  20553028.846   -24719546.63349 -18656786.56048  20553028.235    20553031.672
 03  3 23  0 40 30.0000000  0  9G 9G14G31G23G17G15G 3G26G18
  24196758.013    -3985195.13249  -3095355.10445  24196757.824    24196766.560
  22535088.981   -12768788.07049  -9919499.23546  22535088.293    22535094.465
  24053746.387    -2729832.74549  -2100689.31345  24053745.688    24053752.929
  21418933.274   -19364604.96949 -15071083.96347  21418932.552    21418937.296
  21376551.153   -21010085.73749 -16352616.14647  21376550.352    21376556.058
  20264208.017   -27938177.53249 -21269899.21848  20264207.121    20264211.912
  22091591.971   -15118670.56349 -11492764.78247  22091591.530    22091597.021
  24301217.946    -4116892.26049  -2710582.42445  24301217.847    24301224.092
  20557800.099   -24694473.59749 -18637249.11448  20557799.491    20557802.927
 03  3 23  0 41  0.0000000  0  9G 9G14G31G23G17G15G 3G26G18
  24185664.498    -4043491.45749  -3140780.69445  24185664.253    24185672.959
  22515908.927   -12869579.44849  -9998037.83546  22515908.241    22515914.386
  24036867.813    -2818529.76649  -2169803.75745  24036867.073    24036874.352
  21427882.955   -19317574.12449 -15034436.56347  21427882.236    21427886.998
  21384492.813   -20968352.08649 -16320096.43447  21384492.014    21384497.728
  20262824.763   -27945446.45049 -21275563.29548  20262823.889    20262828.668
  22082261.380   -15167703.02849 -11530971.85847  22082260.949    22082266.411
  24321679.701    -4009365.07449  -2626794.99645  24321679.602    24321685.833
  20562625.180   -24669117.54249 -18617491.14048  20562624.571    20562627.989
 03  3 23  0 41 30.0000000  0  9G 9G14G31G23G17G15G 3G26G18
  24174632.160    -4101466.55549  -3185955.95345  24174632.031    24174640.507
  22496778.819   -12970108.37749 -10076371.92846  22496778.125    22496784.208
  24020050.292    -2906905.72549  -2238668.01945  24020049.626    24020056.724
  21436862.180   -19270387.86249 -14997668.05547  21436861.460    21436866.246
  21392491.180   -20926320.45249 -16287344.53447  21392490.417    21392496.093
  20261502.572   -27952394.50949 -21280977.35048  20261501.694    20261506.463
  22073025.649   -15216236.87749 -11568790.39847  22073025.213    22073030.684
  24342184.888    -3901609.62249  -2542829.70245  24342184.826    24342191.115
  20567503.938   -24643479.54149 -18597513.46348  20567503.324    20567506.735
 03  3 23  0 42  0.0000000  0  9G 9G14G31G23G17G15G 3G26G18
  24163661.569    -4159116.63649  -3230877.95245  24163661.356    24163670.006
  22477699.233   -13070371.68849 -10154499.05046  22477698.573    22477704.618
  24003294.486    -2994957.50249  -2307279.68745  24003293.896    24003301.019
  21445870.806   -19223046.94449 -14960779.03447  21445870.093    21445874.892
  21400546.409   -20883989.99849 -16254359.78847  21400545.631    21400551.291
  20260241.873   -27959019.64349 -21286139.77348  20260240.987    20260245.749
  22063885.247   -15264269.72849 -11606218.54447  22063884.801    22063890.299
  24362733.033    -3793628.24349  -2458688.36445  24362732.911    24362739.302
  20572436.196   -24617560.31949 -18577316.65548  20572435.579    20572438.977
 03  3 23  0 42 30.0000000  0  9G 9G14G31G23G17G15G 3G26G18
  24152753.237    -4216439.77949  -3275545.19745  24152752.957    24152761.683
  22458670.498   -13170367.60649 -10232417.82746  22458669.856    22458675.808
  23986600.653    -3082683.45349  -2375637.46145  23986600.053    23986607.260
  21454908.470   -19175553.66949 -14923771.30147  21454907.776    21454912.542
  21408658.392   -20841361.50249 -16221142.80547  21408657.615    21408663.277
  20259042.544   -27965322.03449 -21291050.71748  20259041.687    20259046.439
  22054840.311   -15311800.96849 -11643255.83947  22054839.892    22054845.376
  24383323.434    -3685425.08449  -2374374.21945  24383323.257    24383329.661
  20577421.544   -24591362.03849 -18556902.41148  20577420.918    20577424.316
 03  3 23  0 43  0.0000000  0  9G 9G14G31G23G17G15G 3G26G18
  24141907.926    -4273431.48249  -3319954.16745  24141907.625    24141916.274
  22439693.462   -13270092.04049 -10310125.04146  22439692.834    22439698.755
  23969969.577    -3170079.61749  -2443738.26045  23969969.016    23969976.133
  21463975.147   -19127908.06849 -14886644.86447  21463974.440    21463979.214
  21416827.451   -20798432.90549 -16187691.97247  21416826.669    21416832.333
  20257905.067   -27971299.45849 -21295708.43548  20257904.195    20257908.964
  22045891.432   -15358827.50649 -11679899.84847  22045890.997    22045896.464
  24403955.650    -3577001.70549  -2289888.45645  24403955.413    24403962.038
  20582460.023   -24564884.67849 -18536270.69348  20582459.400    20582462.788
 03  3 23  0 43 30.0000000  0  9G 9G14G31G23G17G15G 3G26G18
  24131125.870    -4330090.82249  -3364104.14845  24131125.619    24131134.079
  22420768.134   -13369544.71349 -10387620.49046  22420767.535    22420773.411
  23953401.431    -3257145.54549  -2511581.73145  23953400.865    23953408.018
  21473070.112   -19080113.70549 -14849402.50947  21473069.423    21473074.169
  21425053.300   -20755205.74449 -16154008.49047  21425052.505    21425058.190
  20256829.256   -27976952.85849 -21300113.66748  20256828.380    20256833.133
  22037038.498   -15405349.92249 -11716151.04147  22037038.056    22037043.505
  24424628.883    -3468363.22549  -2205235.09845  24424628.541    24424635.179
  20587550.935   -24538131.78649 -18515424.27748  20587550.315    20587553.679
 03  3 23  0 44  0.0000000  0  8G 9G14G31G23G17G15G 3G18
  24120407.451    -4386415.94149  -3407993.69045  24120407.190    24120415.523
  22401894.842   -13468724.02549 -10464902.93846  22401894.222    22401900.140
  23936896.412    -3343879.66849  -2579166.65345  23936895.832    23936902.862
  21482192.965   -19032172.88449 -14812046.03047  21482192.278    21482197.027
  21433335.852   -20711680.74949 -16120092.93547  21433335.061    21433340.759
  20255815.121   -27982282.05549 -21304266.27548  20255814.242    20255818.989
  22028281.578   -15451367.69149 -11752009.00047  22028281.108    22028286.559
  20592693.838   -24511105.55349 -18494364.86948  20592693.215    20592696.599
 03  3 23  0 44 30.0000000  0  8G 9G14G31G23G17G15G 3G18
  24109754.015    -4442399.74649  -3451617.26745  24109753.705    24109762.061
  22383074.841   -13567623.27449 -10541967.15046  22383074.211    22383080.108
  23920455.735    -3430275.42649  -2646487.91045  23920455.104    23920462.164
  21491344.198   -18984082.99949 -14774573.39847  21491343.502    21491348.266
  21441675.956   -20667853.34749 -16085941.73347  21441675.187    21441680.861
  20254863.662   -27987281.99549 -21308162.32248  20254862.790    20254867.507
  22019621.704   -15496875.45749 -11787469.56347  22019621.243    22019626.632
  20597889.266   -24483803.45049 -18473090.50248  20597888.648    20597892.023
 03  3 23  0 45  0.0000000  0  8G 9G14G31G23G17G15G 3G18
  24099165.780    -4498040.43449  -3494973.50545  24099165.505    24099173.799
  22364308.416   -13666240.88349 -10618811.90846  22364307.792    22364313.660
  23904079.794    -3516331.33749  -2713544.34745  23904079.161    23904086.150
  21500523.299   -18935846.49049 -14736986.51147  21500522.588    21500527.345
  21450073.453   -20623724.29249 -16051555.48247  21450072.654    21450078.358
  20253974.863   -27991952.66749 -21311801.79648  20253973.996    20253978.694
  22011059.013   -15541872.36549 -11822532.04447  22011058.542    22011063.906
  20603136.715   -24456227.87949 -18451603.04248  20603136.086    20603139.463
 03  3 23  0 45 30.0000000  0  8G 9G14G31G23G17G15G 3G18
  24088643.410    -4553335.37349  -3538060.32545  24088643.199    24088651.476
  22345595.971   -13764574.92749 -10695435.71246  22345595.347    22345601.190
  23887768.916    -3602045.23349  -2780334.28245  23887768.162    23887775.202
  21509729.956   -18887465.23449 -14699286.84247  21509729.264    21509734.026
  21458528.352   -20579293.69049 -16016934.25447  21458527.561    21458533.256
  20253148.837   -27996293.34149 -21315184.13548  20253147.957    20253152.684
  22002593.795   -15586357.36549 -11857195.64547  22002593.312    22002598.668
  20608435.916   -24428380.42149 -18429903.72548  20608435.307    20608438.673
 03  3 23  0 46  0.0000000  0  8G 9G14G31G23G17G15G 3G18
  24078187.374    -4608281.91049  -3580875.68145  24078187.297    24078195.364
  22326937.961   -13862623.06549 -10771836.72246  22326937.303    22326943.121
  23871523.581    -3687414.96949  -2846856.04645  23871522.839    23871529.757
  21518963.853   -18838940.86949 -14661475.64747  21518963.162    21518967.928
  21467040.590   -20534561.49949 -15982078.02847  21467039.808    21467045.520
  20252385.721   -28000303.45349 -21318308.88148  20252384.856    20252389.582
  21994226.154   -15630329.41249 -11891459.53447  21994225.684    21994231.018
  20613786.551   -24400262.71449 -18407993.81548  20613785.923    20613789.277
 03  3 23  0 46 30.0000000  0  8G 9G14G31G23G17G15G 3G18
  24067798.370    -4662875.88149  -3623416.30145  24067798.171    24067806.204
  22308335.010   -13960381.59649 -10848012.07446  22308334.392    22308340.144
  23855344.379    -3772436.96349  -2913106.84145  23855343.629    23855350.515
  21528224.904   -18790273.78949 -14623553.25647  21528224.211    21528228.986
  21475610.559   -20489526.13749 -15946985.56447  21475609.765    21475615.504
  20251685.946   -28003980.83749 -21321174.36948  20251685.060    20251689.779
  21985956.570   -15673786.17349 -11925321.91047  21985956.129    21985961.436
  20619188.523   -24371875.20549 -18385873.67648  20619187.893    20619191.216
 03  3 23  0 47  0.0000000  0  8G 9G14G31G23G17G15G 3G18
  24057476.669    -4717116.00649  -3665681.20545  24057476.425    24057484.469
  22289787.348   -14057849.51149 -10923960.95746  22289786.742    22289792.490
  23839231.563    -3857110.22849  -2979085.89145  23839230.844    23839237.635
  21537512.544   -18741466.91849 -14585521.93347  21537511.841    21537516.597
  21484237.990   -20444188.66249 -15911657.68747  21484237.192    21484242.961
  20251049.353   -28007326.07449 -21323781.03748  20251048.471    20251053.173
  21977785.082   -15716727.54049 -11958782.67747  21977784.636    21977789.940
  20624641.226   -24343220.97149 -18363545.69348  20624640.608    20624643.926
 03  3 23  0 47 30.0000000  0  8G 9G14G31G23G17G15G 3G18
  24047223.121    -4770997.99649  -3707667.05045  24047222.874    24047230.988
  22271295.808   -14155022.71149 -10999680.20146  22271295.203    22271300.892
  23823185.801    -3941430.74949  -3044790.08745  23823185.153    23823191.829
  21546826.841   -18692519.95149 -14547381.44147  21546826.123    21546830.889
  21492923.247   -20398547.37449 -15876093.07047  21492922.459    21492928.230
  20250476.452   -28010336.58649 -21326126.88148  20250475.568    20250480.267
  21969712.262   -15759150.26349 -11991839.31047  21969711.805    21969717.123
  20630144.803   -24314299.49149 -18341009.47348  20630144.188    20630147.469
 03  3 23  0 48  0.0000000  0  8G 9G14G31G23G17G15G 3G18
  24037038.103    -4824520.05249  -3749372.41745  24037037.786    24037045.992
  22252860.612   -14251899.88049 -11075168.76946  22252859.986    22252865.638
  23807207.390    -4025397.23049  -3110218.41145  23807206.744    23807213.397
  21556167.300   -18643435.55449 -14509133.86347  21556166.586    21556171.349
  21501666.176   -20352603.20349 -15840292.44147  21501665.387    21501671.153
  20249967.172   -28013012.90049 -21328212.31048  20249966.300    20249970.991
  21961738.125   -15801054.45449 -12024491.89447  21961737.685    21961742.976
  20635698.731   -24285113.45249 -18318267.10048  20635698.104    20635701.382
 03  3 23  0 48 30.0000000  0  8G 9G14G31G23G17G15G 3G18
  24026922.306    -4877678.57549  -3790794.52245  24026921.838    24026930.129
  22234482.373   -14348477.91349 -11150424.24646  22234481.729    22234487.322
  23791297.005    -4109006.41549  -3175368.32345  23791296.318    23791302.928
  21565533.755   -18594214.42049 -14470779.73647  21565533.052    21565537.800
  21510467.000   -20306354.74649 -15804254.70647  21510466.214    21510471.951
  20249521.939   -28015352.64049 -21330035.47148  20249521.058    20249525.719
  21953863.102   -15842437.89449 -12056738.69447  21953862.657    21953867.933
  20641302.910   -24255663.34749 -18295318.95948  20641302.284    20641305.567
 03  3 23  0 49  0.0000000  0  8G 9G14G31G23G17G15G 3G18
  24016876.076    -4930471.34649  -3831931.60745  24016875.673    24016883.835
  22216161.425   -14444754.91949 -11225445.15346  22216160.742    22216166.293
  23775454.969    -4192256.42449  -3240238.37045  23775454.295    23775460.856
  21574925.867   -18544858.55249 -14432320.62047  21574925.150    21574929.913
  21519325.540   -20259802.86149 -15767980.53647  21519324.732    21519330.502
  20249140.779   -28017355.68349 -21331596.27048  20249139.872    20249144.541
  21946087.285   -15883300.00549 -12088579.26447  21946086.840    21946092.102
  20646956.964   -24225951.05549 -18272166.51548  20646956.330    20646959.600
 03  3 23  0 49 30.0000000  0  8G 9G14G31G23G17G15G 3G18
  24006900.101    -4982894.95249  -3872781.02645  24006899.710    24006907.972
  22197898.345   -14540727.54249 -11300228.87946  22197897.675    22197903.202
  23759681.818    -4275144.41249  -3304826.30245  23759681.185    23759687.732
  21584343.496   -18495368.86649 -14393757.22647  21584342.761    21584347.540
  21528242.018   -20212946.52449 -15731469.13047  21528241.219    21528247.022
  20248823.915   -28019020.70249 -21332893.67948  20248823.022    20248827.687
  21938411.007   -15923639.00249 -12120012.22147  21938410.554    21938415.790
  20652660.712   -24195977.78949 -18248810.71848  20652660.081    20652663.346
 03  3 23  0 50  0.0000000  0  8G 9G14G31G23G17G15G 3G18
  23996994.985    -5034945.97849  -3913340.12145  23996994.577    23997002.848
  22179693.748   -14636392.91949 -11374773.20146  22179693.098    22179698.542
  23743978.180    -4357667.12249  -3369129.61345  23743977.556    23743984.127
  21593786.423   -18445745.82549 -14355089.91947  21593785.703    21593790.487
  21537216.628   -20165784.55749 -15694719.56247  21537215.826    21537221.663
  20248571.727   -28020345.83749 -21333926.23748  20248570.836    20248575.525
  21930834.773   -15963452.46749 -12151035.66247  21930834.299    21930839.532
  20658413.985   -24165744.04849 -18225251.95248  20658413.358    20658416.612
 03  3 23  0 50 30.0000000  0  8G 9G14G31G23G17G15G 3G18
  23987161.293    -5086621.89249  -3953606.91745  23987160.865    23987169.081
  22161547.998   -14731748.89949 -11449076.42946  22161547.340    22161552.723
  23728344.441    -4439822.50549  -3433146.69845  23728343.770    23728350.485
  21603254.418   -18395991.32249 -14316320.17647  21603253.689    21603258.478
  21546249.319   -20118317.41249 -15657732.20247  21546248.513    21546254.373
  20248384.346   -28021330.43549 -21334693.44248  20248383.456    20248388.142
  21923358.614   -16002739.81049 -12181649.14447  21923358.145    21923363.358
  20664216.504   -24135251.57649 -18201491.57848  20664215.891    20664219.151
 03  3 23  0 51  0.0000000  0  8G 9G14G31G23G17G15G 3G18
  23977399.317    -5137920.98649  -3993580.09045  23977398.943    23977407.080
  22143461.369   -14826794.27549 -11523137.64046  22143460.721    22143466.035
  23712780.869    -4521609.24049  -3496876.52545  23712780.214    23712786.832
  21612746.940   -18346107.84549 -14277449.93147  21612746.227    21612750.996
  21555339.951   -20070545.83049 -15620507.62147  21555339.149    21555345.066
  20248261.687   -28021974.99949 -21335195.68848  20248260.811    20248265.467
  21915982.587   -16041500.82349 -12211852.49947  21915982.121    21915987.332
  20670067.777   -24104502.91649 -18177531.57748  20670067.160    20670070.392
 03  3 23  0 51 30.0000000  0  8G 9G14G31G23G17G15G 3G18
  23967710.403    -5188836.23749  -4033254.15645  23967710.129    23967718.039
  22125435.199   -14921522.06249 -11596951.36346  22125434.521    22125439.811
  23697288.706    -4603020.79749  -3560313.99545  23697288.069    23697294.589
  21622264.553   -18296092.41449 -14238476.86647  21622263.828    21622268.610
  21564489.337   -20022465.32849 -15583042.32247  21564488.555    21564494.494
  20248204.699   -28022274.33849 -21335428.92448  20248203.810    20248208.475
  21908707.807   -16079729.96949 -12241641.40847  21908707.337    21908712.537
  20675968.335   -24073495.27249 -18153369.76548  20675967.695    20675970.930
 03  3 23  0 52  0.0000000  0  8G 9G14G31G23G17G15G 3G18
  23958094.138    -5239369.57749  -4072630.61945  23958093.857    23958101.787
  22107468.917   -15015934.85449 -11670519.65546  22107468.238    22107473.518
  23681867.417    -4684059.49549  -3623460.95245  23681866.735    23681873.326
  21631806.088   -18245951.25549 -14199405.83047  21631805.383    21631810.158
  21573696.706   -19974080.24649 -15545339.69247  21573695.931    21573701.876
  20248212.692   -28022232.31849 -21335396.17148  20248211.815    20248216.471
  21901533.510   -16117430.91449 -12271018.74047  21901533.024    21901538.229
  20681917.005   -24042234.67049 -18129010.85348  20681916.387    20681919.607
 03  3 23  0 52 30.0000000  0  8G 9G14G31G23G17G15G 3G18
  23948551.125    -5289517.81049  -4111707.01245  23948550.833    23948558.665
  22089563.166   -15110029.77349 -11743840.23546  22089562.474    22089567.768
  23666517.666    -4764722.49649  -3686315.13545  23666517.031    23666523.502
  21641371.384   -18195685.27249 -14160237.52247  21641370.651    21641375.424
  21582962.204   -19925389.86549 -15507399.16047  21582961.437    21582967.387
  20248285.964   -28021847.24049 -21335096.09548  20248285.084    20248289.737
  21894460.071   -16154602.14949 -12299983.29847  21894459.581    21894464.786
  20687913.670   -24010722.08349 -18104455.58548  20687913.026    20687916.252
 03  3 23  0 53  0.0000000  0  8G 9G14G31G23G17G15G 3G18
  23939082.248    -5339276.59749  -4150479.93345  23939081.939    23939089.699
  22071718.609   -15203802.84349 -11816910.03246  22071717.938    22071723.200
  23651240.218    -4845005.80249  -3748873.46545  23651239.577    23651246.014
  21650960.487   -18145294.06249 -14120971.63747  21650959.772    21650964.554
  21592286.123   -19876392.39449 -15469219.34447  21592285.352    21592291.309
  20248424.969   -28021116.69249 -21334526.82748  20248424.098    20248428.732
  21887487.980   -16191240.73449 -12328532.81747  21887487.488    21887492.666
  20693958.292   -23978957.29649 -18079703.79648  20693957.651    20693960.882
 03  3 23  0 53 30.0000000  0  8G 9G14G31G23G17G15G 3G18
  23929688.203    -5388642.32049  -4188946.59045  23929687.772    23929695.621
  22053935.960   -15297250.75549 -11889726.45547  22053935.299    22053940.542
  23636035.691    -4924906.14149  -3811133.36845  23636035.063    23636041.407
  21660573.335   -18094778.19849 -14081608.62447  21660572.608    21660577.390
  21601668.702   -19827086.97849 -15430799.56247  21601667.936    21601673.850
  20248630.072   -28020038.92449 -21333686.99648  20248629.186    20248633.829
  21880617.619   -16227344.61749 -12356665.67347  21880617.114    21880622.293
  20700050.809   -23946940.89349 -18054755.93748  20700050.164    20700053.382
 03  3 23  0 54  0.0000000  0  8G 9G14G31G23G17G15G 3G18
  23920368.751    -5437615.91049  -4227107.66645  23920368.294    23920376.177
  22036214.994   -15390374.55349 -11962290.32547  22036214.327    22036219.538
  23620903.731    -5004424.65749  -3873095.75645  23620903.099    23620909.438
  21670209.006   -18044142.49149 -14042152.22447  21670208.267    21670213.051
  21611109.317   -19777476.37749 -15392141.97747  21611108.541    21611114.424
  20248900.741   -28018616.37749 -21332578.50648  20248899.858    20248904.521
  21873848.558   -16262916.06249 -12384383.65047  21873848.060    21873853.224
  20706190.302   -23914677.65449 -18029615.73848  20706189.663    20706192.892
 03  3 23  0 54 30.0000000  0  8G 9G14G31G23G17G15G 3G18
  23911125.344    -5486189.76349  -4264957.29545  23911124.873    23911132.815
  22018557.090   -15483166.87049 -12034595.90047  22018556.431    22018561.603
  23605845.752    -5083554.13649  -3934754.99045  23605845.153    23605851.502
  21679868.130   -17993383.28649 -14002599.60047  21679867.380    21679872.185
  21620608.894   -19727555.84149 -15353242.87647  21620608.115    21620614.004
  20249238.148   -28016843.28649 -21331196.86748  20249237.265    20249241.924
  21867181.955   -16297949.17149 -12411682.14247  21867181.475    21867186.624
  20712377.474   -23882163.74849 -18004280.21948  20712376.830    20712380.063
 03  3 23  0 55  0.0000000  0  8G 9G14G31G23G17G15G 3G18
  23901957.829    -5534364.67049  -4302496.04545  23901957.340    23901965.166
  22000962.053   -15575628.88149 -12106644.09247  22000961.392    22000966.540
  23590861.664    -5162295.71349  -3996111.95945  23590861.077    23590867.394
  21689549.811   -17942505.62249 -13962954.66547  21689549.068    21689553.880
  21630166.760   -19677328.88849 -15314105.01447  21630165.978    21630171.892
  20249641.721   -28014722.41849 -21329544.22848  20249640.845    20249645.494
  21860617.280   -16332446.60049 -12438563.22047  21860616.790    21860621.892
  20718611.332   -23849404.56449 -17978753.57348  20718610.684    20718613.949
 03  3 23  0 55 30.0000000  0  8G 9G14G31G23G17G15G 3G18
  23892867.183    -5582136.04449  -4339720.35445  23892866.723    23892874.482
  21983430.616   -15667756.69849 -12178431.86547  21983429.978    21983435.100
  23575952.185    -5240645.21249  -4057163.43145  23575951.618    23575957.883
  21699254.121   -17891509.01249 -13923217.04847  21699253.380    21699258.188
  21639783.380   -19626793.35749 -15274726.69647  21639782.620    21639788.519
  20250112.044   -28012250.96249 -21327618.40848  20250111.170    20250115.794
  21854155.122   -16366405.45449 -12465024.63147  21854154.624    21854159.719
  20724891.979   -23816399.37049 -17953035.23348  20724891.336    20724894.603
 03  3 23  0 56  0.0000000  0  8G 9G14G31G23G17G15G 3G18
  23883853.635    -5629501.88549  -4376628.67345  23883853.132    23883860.951
  21965963.132   -15759548.34849 -12249957.69647  21965962.481    21965967.627
  23561117.631    -5318601.01649  -4117908.11645  23561117.069    23561123.277
  21708980.753   -17840395.26849 -13883388.16747  21708980.016    21708984.825
  21649458.651   -19575949.40249 -15235108.04947  21649457.882    21649463.789
  20250649.089   -28009428.72749 -21325419.25848  20250648.198    20250652.835
  21847795.527   -16399825.03249 -12491065.82947  21847795.047    21847800.138
  20731219.088   -23783150.27849 -17927126.84348  20731218.446    20731221.705
 03  3 23  0 56 30.0000000  0  8G 9G14G31G23G17G15G 3G18
  23874917.969    -5676458.68149  -4413218.24645  23874917.589    23874925.269
  21948560.222   -15851000.80249 -12321219.21847  21948559.579    21948564.724
  23546358.616    -5396159.92249  -4178343.53645  23546358.036    23546364.245
  21718729.590   -17789164.80549 -13843468.33147  21718728.847    21718733.638
  21659192.750   -19524796.54549 -15195248.69547  21659191.993    21659197.907
  20251253.222   -28006253.92549 -21322945.37248  20251252.330    20251256.954
  21841538.965   -16432703.35849 -12516685.27047  21841538.498    21841543.583
  20737592.479   -23749657.79949 -17901028.79548  20737591.834    20737595.100
 03  3 23  0 57  0.0000000  0  8G 9G14G31G23G17G15G 3G18
  23866060.656    -5723003.53549  -4449486.83745  23866060.220    23866067.887
  21931222.373   -15942111.27349 -12392214.26547  21931221.721    21931226.844
  23531675.633    -5473319.22649  -4238467.58145  23531675.061    23531681.182
  21728500.427   -17737818.61349 -13803458.31847  21728499.693    21728504.474
  21668985.750   -19473334.29449 -15155148.26047  21668984.974    21668990.881
  20251924.729   -28002725.08449 -21320195.61148  20251923.835    20251928.448
  21835385.637   -16465039.22449 -12541882.02147  21835385.167    21835390.243
  20744012.025   -23715922.83149 -17874741.80248  20744011.390    20744014.635
 03  3 23  0 57 30.0000000  0  8G 9G14G31G23G17G15G 3G18
  23857281.854    -5769135.80149  -4485433.91545  23857281.388    23857288.971
  21913949.738   -16032879.22149 -12462942.41047  21913949.079    21913954.176
  23517068.771    -5550078.52449  -4298279.93445  23517068.073    23517074.292
  21738292.715   -17686359.91949 -13763360.64247  21738291.994    21738296.762
  21678837.274   -19421564.17749 -15114807.93047  21678836.494    21678842.383
  20252663.407   -27998843.23449 -21317170.77848  20252662.524    20252667.130
  21829335.353   -16496833.62749 -12566656.84547  21829334.876    21829339.949
  20750477.082   -23681948.70949 -17848268.45348  20750476.434    20750479.676
 03  3 23  0 58  0.0000000  0  8G 9G14G31G23G17G15G 3G18
  23848582.598    -5814850.01349  -4521055.24645  23848582.120    23848589.700
  21896743.171   -16123299.70849 -12533399.80847  21896742.511    21896747.581
  23502539.012    -5626432.79949  -4357776.68845  23502538.291    23502544.503
  21748106.663   -17634787.30049 -13723174.18547  21748105.930    21748110.700
  21688748.008   -19369483.05649 -15074225.25347  21688747.223    21688753.092
  20253469.922   -27994604.91049 -21313868.17148  20253469.035    20253473.632
  21823388.733   -16528083.02549 -12591006.99147  21823388.253    21823393.336
  20756987.895   -23647734.01749 -17821607.64748  20756987.247    20756990.498
 03  3 23  0 58 30.0000000  0  8G 9G14G31G23G17G15G 3G18
  23839962.833    -5860146.56749  -4556351.12445  23839962.458    23839969.905
  21879602.654   -16213373.28849 -12603586.89647  21879601.997    21879607.012
  23488086.200    -5702382.66249  -4416958.31645  23488085.447    23488091.626
  21757941.485   -17583104.86849 -13682902.16447  21757940.751    21757945.547
  21698717.294   -19317094.17049 -15033402.76647  21698716.501    21698722.379
  20254343.865   -27990012.28149 -21310289.48448  20254342.980    20254347.579
  21817545.530   -16558789.17649 -12614933.83347  21817545.058    21817550.137
  20763543.739   -23613282.99049 -17794762.68848  20763543.078    20763546.323
 03  3 23  0 59  0.0000000  0  8G 9G14G31G23G17G15G 3G18
  23831423.632    -5905020.07749  -4591317.36945  23831423.199    23831430.704
  21862529.069   -16303095.00649 -12673499.81047  21862528.407    21862533.399
  23473711.213    -5777923.14749  -4475820.95545  23473710.528    23473716.644
  21767797.464   -17531311.16549 -13642543.43747  21767796.728    21767801.543
  21708745.721   -19264394.42849 -14992338.05247  21708744.938    21708750.853
  20255285.891   -27985061.82249 -21306431.97348  20255284.998    20255289.600
  21811806.339   -16588948.65949 -12638434.70247  21811805.861    21811810.943
  20770144.732   -23578594.37949 -17767732.59748  20770144.069    20770147.318
 03  3 23  0 59 30.0000000  0  8G 9G14G31G23G17G15G 3G18
  23822965.318    -5949468.22949  -4625952.17345  23822964.925    23822972.319
  21845522.837   -16392462.75849 -12743136.90847  21845522.180    21845527.146
  23459414.555    -5853052.19549  -4534363.00845  23459413.906    23459419.911
  21777674.421   -17479407.55049 -13602099.06647  21777673.700    21777678.499
  21718833.309   -19211383.86549 -14951031.14047  21718832.535    21718838.468
  20256296.146   -27979752.75449 -21302295.02648  20256295.259    20256299.866
  21806171.358   -16618560.46649 -12661508.81147  21806170.892    21806175.962
  20776790.660   -23543669.65949 -17740518.52648  20776790.008    20776793.266
 03  3 23  1  0  0.0000000  0  8G 9G14G31G23G17G15G 3G18
  23814588.242    -5993489.51749  -4660254.36445  23814587.844    23814595.215
  21828584.223   -16481475.35849 -12812497.26647  21828583.556    21828588.474
  23445196.426    -5927768.67549  -4592583.56745  23445195.758    23445201.812
  21787571.810   -17427396.49749 -13561570.98047  21787571.078    21787575.875
  21728979.807   -19158063.73149 -14909483.00847  21728979.061    21728984.962
  20257374.663   -27974085.14249 -21297878.69248  20257373.772    20257378.348
  21800640.500   -16647625.10649 -12684156.55247  21800640.041    21800645.107
  20783481.072   -23508511.30849 -17713122.40648  20783480.436    20783483.666
 03  3 23  1  0 30.0000000  0  8G 9G14G31G23G17G15G 3G18
  23806293.030    -6037080.88849  -4694221.55145  23806292.537    23806299.925
  21811713.768   -16570129.81249 -12881578.54947  21811713.086    21811717.997
  23431057.382    -6002069.67649  -4650480.39545  23431056.667    23431062.670
  21797489.528   -17375278.62249 -13520959.65247  21797488.803    21797493.573
  21739185.392   -19104433.07449 -14867692.90147  21739184.646    21739190.553
  20258521.668   -27968057.59149 -21293181.88248  20258520.768    20258525.351
  21795214.079   -16676141.07849 -12706376.76147  21795213.628    21795218.691
  20790215.821   -23473120.11249 -17685544.84848  20790215.183    20790218.384
 03  3 23  1  1  0.0000000  0  8G 9G14G31G23G17G15G 3G18
  23798080.133    -6080239.45449  -4727851.48945  23798079.672    23798087.038
  21794911.877   -16658423.71649 -12950378.88947  21794911.217    21794916.126
  23416997.898    -6075952.50549  -4708051.36645  23416997.210    23417003.155
  21807427.405   -17323054.67449 -13480265.65847  21807426.683    21807431.421
  21749450.216   -19050491.14249 -14825660.24747  21749449.440    21749455.344
  20259737.383   -27961668.95549 -21288203.70448  20259736.506    20259741.072
  21789892.338   -16704107.00749 -12728168.36747  21789891.872    21789896.938
  20796994.709   -23437496.87749 -17657786.47748  20796994.060    20796997.240
 03  3 23  1  1 30.0000000  0  8G 9G14G31G23G17G15G 3G18
  23789950.138    -6122962.22249  -4761141.84545  23789949.741    23789957.029
  21778179.153   -16746354.35349 -13018896.16647  21778178.491    21778183.398
  23403018.512    -6149414.64949  -4765294.53545  23403017.868    23403023.693
  21817385.315   -17270725.60349 -13439489.74947  21817384.579    21817389.327
  21759774.203   -18996238.37049 -14783385.38146  21759773.422    21759779.319
  20261022.001   -27954918.18149 -21282943.34448  20261021.107    20261025.682
  21784675.398   -16731521.95649 -12749530.64147  21784674.933    21784680.014
  20803817.563   -23401642.52749 -17629848.01148  20803816.917    20803820.090
 03  3 23  1  2  0.0000000  0  8G 9G14G31G23G17G15G 3G18
  23781903.132    -6165249.12149  -4794092.56945  23781902.682    23781909.964
  21761515.543   -16833921.72249 -13087130.38247  21761514.877    21761519.745
  23389119.059    -6222456.30949  -4822210.04745  23389118.450    23389124.213
  21827362.525   -17218295.02949 -13398634.75747  21827361.792    21827366.531
  21770157.012   -18941676.60049 -14740869.73346  21770156.234    21770162.108
  20262375.238   -27947806.71049 -21277401.92848  20262374.360    20262378.924
  21779563.046   -16758387.43349 -12770464.76247  21779562.573    21779567.613
  20810683.629   -23365560.97849 -17601732.51648  20810682.974    20810686.168
 03  3 23  1  2 30.0000000  0  8G 9G14G31G23G17G15G 3G18
  23773940.374    -6207093.44749  -4826698.42045  23773939.993    23773947.244
  21744922.265   -16921119.64349 -13155076.71147  21744921.594    21744926.424
  23375300.879    -6295071.02649  -4878792.88045  23375300.247    23375306.122
  21837359.619   -17165759.94849 -13357698.32447  21837358.881    21837363.626
  21780599.439   -18886801.22749 -14698109.71946  21780598.646    21780604.575
  20263798.125   -27940329.32249 -21271575.37848  20263797.235    20263801.791
  21774556.187   -16784698.65349 -12790966.98647  21774555.709    21774560.763
  20817593.522   -23329249.27349 -17573437.67048  20817592.870    20817596.041
 03  3 23  1  3  0.0000000  0  8G 9G14G31G23G17G15G 3G18
  23766061.584    -6248496.01649  -4858960.04545  23766061.169    23766068.449
  21728399.138   -17007948.89449 -13222735.77747  21728398.473    21728403.281
  23361563.766    -6367259.86449  -4935043.86145  23361563.086    23361568.939
  21847375.787   -17113124.68149 -13316683.83147  21847375.077    21847379.795
  21791100.848   -18831615.76549 -14655108.08446  21791100.055    21791106.026
  20265290.172   -27932488.57949 -21265465.69848  20265289.282    20265293.814
  21769654.340   -16810457.88349 -12811039.09647  21769653.842    21769658.908
  20824546.388   -23292711.79349 -17544966.89948  20824545.727    20824548.903
 03  3 23  1  3 30.0000000  0  8G 9G14G31G23G17G15G 3G18
  23758267.674    -6289452.61249  -4890874.14345  23758267.344    23758274.525
  21711946.892   -17094405.63349 -13290104.56647  21711946.223    21711950.983
  23347908.395    -6439018.95249  -4990959.94846  23347907.730    23347913.619
  21857411.146   -17060388.67349 -13275590.82847  21857410.430    21857415.129
  21801661.626   -18776118.59449 -14611863.54946  21801660.844    21801666.815
  20266851.843   -27924281.97849 -21259070.92548  20266850.951    20266855.481
  21764858.009   -16835662.60649 -12830679.11547  21764857.523    21764862.597
  20831542.230   -23255948.25749 -17516319.97648  20831541.574    20831544.774
 03  3 23  1  4  0.0000000  0  8G 9G14G31G23G17G15G 3G18
  23750558.919    -6329962.10049  -4922439.83645  23750558.601    23750565.734
  21695565.685   -17180489.13649 -13357182.53047  21695565.023    21695569.737
  23334334.988    -6510347.38649  -5046540.46246  23334334.276    23334340.173
  21867465.138   -17007554.54149 -13234421.36947  21867464.419    21867469.086
  21812281.445   -18720310.95349 -14568377.09746  21812280.662    21812286.645
  20268482.986   -27915710.20549 -21252391.61148  20268482.072    20268486.618
  21760167.104   -16860313.43349 -12849887.53247  21760166.620    21760171.658
  20838580.568   -23218961.54449 -17487499.15048  20838579.921    20838583.145
 03  3 23  1  4 30.0000000  0  8G 9G14G31G23G17G15G 3G18
  23742936.213    -6370019.23049  -4953653.05745  23742935.908    23742942.966
  21679256.464   -17266194.20449 -13423965.60347  21679255.804    21679260.483
  23320844.462    -6581240.11249  -5101781.46346  23320843.796    23320849.654
  21877538.117   -16954620.58949 -13193174.13547  21877537.406    21877542.077
  21822960.961   -18664189.83749 -14524646.37446  21822960.169    21822966.161
  20270184.310   -27906769.47449 -21245424.80248  20270183.414    20270187.945
  21755582.242   -16884406.95349 -12868661.68247  21755581.764    21755586.803
  20845661.720   -23181749.79749 -17458502.97648  20845661.059    20845664.291
 03  3 23  1  5  0.0000000  0  8G 9G14G31G23G17G15G 3G18
  23735399.223    -6409625.98449  -4984515.33145  23735398.875    23735405.983
  21663018.882   -17351522.89249 -13490455.39247  21663018.235    21663022.897
  23307436.490    -6651699.20749  -5156684.56746  23307435.778    23307441.685
  21887629.086   -16901592.27249 -13151853.36747  21887628.370    21887633.024
  21833699.272   -18607759.60649 -14480674.77746  21833698.465    21833704.491
  20271955.271   -27897463.00249 -21238172.99448  20271954.378    20271958.920
  21751102.721   -16907946.67649 -12887004.30047  21751102.235    21751107.282
  20852784.629   -23144318.59949 -17429335.79548  20852783.988    20852787.225
 03  3 23  1  5 30.0000000  0  8G 9G14G31G23G17G15G 3G18
  23727949.134    -6448775.97749  -5015021.68945  23727948.773    23727955.783
  21646854.117   -17436468.81549 -13556646.92047  21646853.485    21646858.135
  23294112.180    -6721718.56449  -5211245.01546  23294111.492    23294117.332
  21897738.558   -16848466.59249 -13110456.73347  21897737.842    21897742.455
  21844497.268   -18551015.83949 -14436458.87446  21844496.480    21844502.487
  20273796.720   -27887785.95249 -21230632.42748  20273795.833    20273800.367
  21746729.510   -16930928.00149 -12904911.80747  21746729.023    21746734.058
  20859949.763   -23106665.41049 -17399995.64148  20859949.118    20859952.374
 03  3 23  1  6  0.0000000  0  8G 9G14G31G23G17G15G 3G18
  23720586.154    -6487467.80549  -5045171.03945  23720585.841    23720592.945
  21630762.361   -17521031.16349 -13622539.56147  21630761.705    21630766.343
  23280871.834    -6791296.90149  -5265461.82346  23280871.099    23280876.975
  21907866.166   -16795245.75349 -13068985.95547  21907865.431    21907870.047
  21855354.796   -18493959.15549 -14391999.13746  21855354.003    21855360.010
  20275708.680   -27877738.60649 -21222803.31048  20275707.780    20275712.301
  21742462.496   -16953351.18749 -12922384.40047  21742462.017    21742467.062
  20867156.816   -23068792.13749 -17370483.99448  20867156.168    20867159.388
 03  3 23  1  6 30.0000000  0  8G 9G14G31G23G17G15G 3G18
  23713310.706    -6525699.91249  -5074962.15845  23713310.347    23713317.467
  21614743.893   -17605208.42149 -13688132.12647  21614743.235    21614747.832
  23267715.622    -6860433.10149  -5319334.09246  23267714.886    23267720.669
  21918011.531   -16741931.62549 -13027442.48347  21918010.797    21918015.398
  21866271.708   -18436590.83749 -14347296.57846  21866270.896    21866276.882
  20277691.079   -27867320.98549 -21214685.67048  20277690.167    20277694.697
  21738301.649   -16975216.53049 -12939422.30147  21738301.167    21738306.217
  20874405.328   -23030701.01049 -17340802.58148  20874404.680    20874407.871
 03  3 23  1  7  0.0000000  0  8G 9G14G31G23G17G15G 3G18
  23706123.391    -6563469.19249  -5104392.63645  23706123.042    23706130.144
  21598799.192   -17688997.88949 -13753422.51847  21598798.553    21598803.136
  23254643.971    -6929124.46249  -5372859.73846  23254643.265    23254649.094
  21928174.500   -16688524.86249 -12985826.82847  21928173.761    21928178.385
  21877247.827   -18378911.01249 -14302351.27646  21877247.017    21877252.945
  20279744.144   -27856531.84549 -21206278.53848  20279743.236    20279747.777
  21734247.151   -16996523.02849 -12956024.74647  21734246.674    21734251.720
  20881695.094   -22992393.06149 -17310952.22248  20881694.454    20881697.640
 03  3 23  1  7 30.0000000  0  8G 9G14G31G23G17G15G 3G18
  23699024.583    -6600773.06449  -5133460.45945  23699024.237    23699031.303
  21582928.763   -17772397.10749 -13818408.81047  21582928.120    21582932.670
  23241657.488    -6997368.38049  -5426036.73346  23241656.786    23241662.625
  21938354.956   -16635025.96049 -12944139.37747  21938354.224    21938358.891
  21888283.432   -18320918.74649 -14257162.51346  21888282.607    21888288.534
  20281868.180   -27845369.98549 -21197580.96948  20281867.285    20281871.822
  21730299.172   -17017269.66749 -12972190.93447  21730298.707    21730303.750
  20889025.939   -22953869.02449 -17280933.48348  20889025.289    20889028.498
 03  3 23  1  8  0.0000000  0  8G 9G14G31G23G17G15G 3G18
  23692014.641    -6637609.98049  -5162164.41345  23692014.370    23692021.374
  21567132.873   -17855404.72249 -13883089.96847  21567132.225    21567136.750
  23228756.383    -7065163.62049  -5478864.11146  23228755.727    23228761.587
  21948552.562   -16581437.15449 -12902381.87447  21948551.824    21948556.502
  21899378.359   -18262614.60449 -14211730.74346  21899377.536    21899383.494
  20284063.174   -27833835.21049 -21188592.82048  20284062.276    20284066.793
  21726457.706   -17037456.76949 -12987921.12447  21726457.237    21726462.270
  20896397.535   -22915131.03249 -17250748.03248  20896396.885    20896400.073
 03  3 23  1  8 30.0000000  0  8G 9G14G31G23G17G15G 3G18
  23685094.248    -6673976.43449  -5190501.76245  23685093.951    23685100.874
  21551412.168   -17938017.16049 -13947463.18647  21551411.508    21551415.992
  23215941.312    -7132506.77749  -5531339.21146  23215940.609    23215946.556
  21958767.326   -16527758.19549 -12860554.11747  21958766.592    21958771.304
  21910532.811   -18203997.62349 -14166055.18646  21910531.994    21910537.985
  20286329.533   -27821925.56449 -21179312.55748  20286328.637    20286333.131
  21722722.997   -17057082.51849 -13003213.89147  21722722.532    21722727.560
  20903809.951   -22876178.63449 -17220395.50548  20903809.294    20903812.510
 03  3 23  1  9  0.0000000  0  8G 9G14G31G23G17G15G 3G18
  23678263.849    -6709869.86749  -5218470.54245  23678263.539    23678270.451
  21535767.095   -18020232.14949 -14011526.72047  21535766.449    21535770.902
  23203212.734    -7199395.38749  -5583460.13246  23203212.050    23203217.969
  21968999.102   -16473989.77049 -12818656.65347  21968998.359    21969003.101
  21921746.816   -18145067.61349 -14120135.72246  21921746.031    21921751.980
  20288667.372   -27809640.11749 -21169739.46848  20288666.479    20288670.971
  21719095.338   -17076145.91549 -13018068.47447  21719094.874    21719099.902
  20911262.907   -22837012.99349 -17189876.82147  20911262.254    20911265.454
 03  3 23  1  9 30.0000000  0  8G 9G14G31G23G17G15G 3G18
  23671523.493    -6745289.99049  -5246070.50345  23671523.166    23671530.122
  21520197.671   -18102049.65949 -14075280.51747  21520197.018    21520201.449
  23190570.690    -7265829.59649  -5635226.97646  23190570.022    23190575.856
  21979247.320   -16420135.12849 -12776691.99447  21979246.584    21979251.320
  21933020.103   -18085826.23849 -14073973.62946  21933019.316    21933025.261
  20291076.483   -27796980.12149 -21159874.52048  20291075.601    20291080.062
  21715574.377   -17094648.70349 -13032486.20847  21715573.911    21715578.936
  20918755.825   -22797637.28049 -17159194.43747  20918755.187    20918758.379
 03  3 23  1 10  0.0000000  0  8G 9G14G31G23G17G15G 3G18
  23664874.048    -6780232.71149  -5273298.46745  23664873.700    23664880.583
  21504704.565   -18183466.28249 -14138721.94147  21504703.884    21504708.291
  23178015.849    -7331805.62249  -5686636.78946  23178015.164    23178020.958
  21989512.091   -16366193.48949 -12734659.54647  21989511.338    21989516.094
  21944352.888   -18026272.02949 -14027567.77146  21944352.051    21944358.044
  20293557.326   -27783943.18449 -21149715.85048  20293556.433    20293560.871
  21712160.522   -17112588.57749 -13046465.31847  21712160.045    21712165.065
  20926288.775   -22758051.27549 -17128348.19647  20926288.142    20926291.305
 03  3 23  1 10 30.0000000  0  8G 9G14G31G23G17G15G 3G18
  23658315.825    -6814696.03049  -5300152.88845  23658315.429    23658322.214
  21489288.263   -18264479.11449 -14201848.72547  21489287.596    21489291.946
  23165548.615    -7397321.27049  -5737687.87946  23165547.936    23165553.670
  21999793.231   -16312165.74149 -12692560.00147  21999792.481    21999797.234
  21955745.205   -17966404.98449 -13980918.15146  21955744.384    21955750.365
  20296110.062   -27770528.28549 -21139262.67048  20296109.196    20296113.608
  21708853.882   -17129965.06549 -13060005.42747  21708853.404    21708858.403
  20933861.559   -22718256.14249 -17097338.99447  20933860.920    20933864.068
 03  3 23  1 11  0.0000000  0  8G 9G14G31G23G17G15G 3G18
  23651848.957    -6848679.17249  -5326633.13045  23651848.556    23651855.291
  21473948.815   -18345088.12849 -14264660.84947  21473948.135    21473952.470
  23153169.071    -7462376.21449  -5788379.99046  23153168.385    23153174.062
  22010090.237   -16258054.64649 -12650395.50847  22010089.492    22010094.249
  21967196.732   -17906226.72349 -13934026.02446  21967195.946    21967201.963
  20298734.537   -27756736.51949 -21128515.82548  20298733.639    20298738.094
  21705654.231   -17146779.39949 -13073107.48947  21705653.749    21705658.733
  20941473.570   -22678254.58049 -17066168.93947  20941472.920    20941476.115
 03  3 23  1 11 30.0000000  0  8G 9G14G31G23G17G15G 3G18
  23645474.111    -6882178.68749  -5352736.53945  23645473.719    23645480.418
  21458686.865   -18425289.81649 -14327155.57247  21458686.181    21458690.502
  23140877.826    -7526966.96649  -5838710.37946  23140877.124    23140882.785
  22020403.144   -16203859.81949 -12608165.76947  22020402.393    22020407.193
  21978707.855   -17845735.55249 -13886890.05846  21978707.048    21978713.083
  20301431.165   -27742565.69449 -21117473.60948  20301430.262    20301434.712
  21702561.877   -17163029.78249 -13085770.11047  21702561.369    21702566.364
  20949124.919   -22638046.31349 -17034837.81147  20949124.283    20949127.484
 03  3 23  1 12  0.0000000  0  8G 9G14G31G23G17G15G 3G18
  23639191.854    -6915191.98549  -5378461.07245  23639191.449    23639198.143
  21443502.803   -18505081.99749 -14389331.20047  21443502.153    21443506.447
  23128675.373    -7591091.15949  -5888677.22946  23128674.692    23128680.277
  22030731.860   -16149582.01149 -12565871.37047  22030731.102    22030735.887
  21990278.441   -17784931.97649 -13839510.67146  21990277.618    21990283.653
  20304200.111   -27728014.61149 -21106135.08748  20304199.215    20304203.651
  21699576.964   -17178715.46849 -13097992.70747  21699576.466    21699581.451
  20956815.450   -22597632.32649 -17003346.38147  20956814.799    20956817.983
 03  3 23  1 12 30.0000000  0  8G 9G14G31G23G17G15G 3G18
  23633002.468    -6947716.86049  -5403805.02945  23633002.064    23633008.735
  21428397.137   -18584462.38849 -14451185.96147  21428396.490    21428400.777
  23116562.047    -7654746.80549  -5938278.97146  23116561.358    23116566.934
  22041076.217   -16095221.92149 -12523512.85147  22041075.471    22041080.216
  22001908.487   -17723815.86749 -13791887.75746  22001907.646    22001913.682
  20307041.572   -27713082.53349 -21094499.69148  20307040.668    20307045.111
  21696699.563   -17193836.21849 -13109775.09647  21696699.078    21696704.071
  20964544.835   -22557013.93149 -16971695.67447  20964544.198    20964547.414
 03  3 23  1 13  0.0000000  0  8G 9G14G31G23G17G15G 3G18
  23626906.398    -6979751.13049  -5428766.68345  23626906.093    23626912.678
  21413370.245   -18663428.83549 -14512718.15747  21413369.593    21413373.888
  23104538.266    -7717931.79049  -5987513.95246  23104537.622    23104543.176
  22051436.095   -16040780.57249 -12481091.00847  22051435.369    22051440.046
  22013598.051   -17662386.88249 -13744021.03446  22013597.224    22013603.266
  20309955.646   -27697768.71349 -21082566.83148  20309954.751    20309959.199
  21693929.749   -17208391.63949 -13121116.96447  21693929.256    21693934.258
  20972312.992   -22516191.92749 -16939886.30747  20972312.350    20972315.583
 03  3 23  1 13 30.0000000  0  8G 9G14G31G23G17G15G 3G18
  23620903.903    -7011294.00449  -5453345.42445  23620903.619    23620910.162
  21398422.240   -18741980.75549 -14573927.35147  21398421.581    21398425.853
  23092604.189    -7780645.48949  -6036381.70046  23092603.533    23092609.106
  22061810.931   -15986260.40449 -12438607.74847  22061810.216    22061814.869
  22025346.892   -17600646.40049 -13695911.58346  22025346.070    22025352.122
  20312942.345   -27682073.52549 -21070336.79648  20312941.483    20312945.905
  21691267.276   -17222382.82649 -13132019.16847  21691266.788    21691271.806
  20980119.396   -22475168.93849 -16907920.32547  20980118.746    20980121.978
 03  3 23  1 14  0.0000000  0  8G 9G14G31G23G17G15G 3G18
  23614995.795    -7042340.88649  -5477537.69045  23614995.439    23615001.978
  21383553.945   -18820113.90349 -14634810.23147  21383553.294    21383557.514
  23080760.611    -7842883.54949  -6084878.82946  23080759.952    23080765.479
  22072201.054   -15931659.90549 -12396061.90547  22072200.344    22072205.011
  22037155.410   -17538592.34649 -13647557.79146  22037154.605    22037160.681
  20316002.209   -27665993.88449 -21057807.19248  20316001.335    20316005.743
  21688712.751   -17235806.87849 -13142479.44747  21688712.247    21688717.248
  20987964.266   -22433943.87049 -16875796.88847  20987963.625    20987966.829
 03  3 23  1 14 30.0000000  0  8G 9G14G31G23G17G15G 3G18
  23609182.154    -7072891.54449  -5501343.26645  23609181.793    23609188.279
  21368765.329   -18897828.15449 -14695366.69247  21368764.672    21368768.882
  23069007.543    -7904646.00949  -6133005.36046  23069006.859    23069012.359
  22082605.895   -15876982.12849 -12353455.83947  22082605.151    22082609.837
  22049023.237   -17476226.55049 -13598961.08046  22049022.429    22049028.493
  20319134.944   -27649531.28449 -21044979.17848  20319134.056    20319138.471
  21686265.789   -17248665.75149 -13152499.32247  21686265.301    21686270.278
  20995846.925   -22392520.03649 -16843518.56447  20995846.278    20995849.507
 03  3 23  1 15  0.0000000  0  8G 9G14G31G23G17G15G 3G18
  23603463.431    -7102943.23349  -5524760.04045  23603463.033    23603469.547
  21354057.031   -18975120.38049 -14755594.30947  21354056.375    21354060.545
  23057345.550    -7965929.90649  -6180758.98646  23057344.863    23057350.360
  22093025.444   -15822226.96649 -12310789.47947  22093024.708    22093029.401
  22060950.414   -17413548.68949 -13550121.20146  22060949.623    22060955.717
  20322340.847   -27632684.09449 -21031851.48648  20322339.967    20322344.362
  21683926.604   -17260958.14549 -13162077.79147  21683926.120    21683931.080
  21003767.460   -22350897.18849 -16811085.16447  21003766.825    21003770.025
 03  3 23  1 15 30.0000000  0  8G 9G14G31G23G17G15G 3G18
  23597839.974    -7132494.19549  -5547786.63945  23597839.616    23597846.094
  21339429.301   -19051989.22549 -14815492.01847  21339428.651    21339432.789
  23045774.927    -8026733.81349  -6228138.58646  23045774.263    23045779.684
  22103459.388   -15767395.96749 -12268064.02047  22103458.664    22103463.368
  22072936.994   -17350558.84549 -13501038.22646  22072936.224    22072942.323
  20325620.026   -27615451.82649 -21018423.72948  20325619.127    20325623.533
  21681695.149   -17272684.32449 -13171215.04547  21681694.655    21681699.635
  21011725.595   -22309077.01549 -16778498.00347  21011724.965    21011728.130
 03  3 23  1 16  0.0000000  0  8G 9G14G31G23G17G15G 3G18
  23592312.350    -7161541.57849  -5570420.84545  23592311.962    23592318.364
  21324882.635   -19128432.00949 -14875057.73647  21324882.001    21324886.104
  23034296.131    -8087054.96249  -6275142.00646  23034295.469    23034300.881
  22113907.835   -15712489.03349 -12225279.39247  22113907.111    22113911.805
  22084982.984   -17287256.72249 -13451711.90946  22084982.175    22084988.300
  20328972.715   -27597833.24049 -21004694.95548  20328971.816    20328976.232
  21679571.696   -17283843.07149 -13179910.15047  21679571.215    21679576.177
  21019721.172   -22267060.00749 -16745757.46647  21019720.520    21019723.690
 03  3 23  1 16 30.0000000  0  8G 9G14G31G23G17G15G 3G18
  23586880.787    -7190084.02149  -5592661.57945  23586880.423    23586886.830
  21310417.341   -19204447.23849 -14934290.29247  21310416.706    21310420.757
  23022909.464    -8146892.10149  -6321768.28446  23022908.812    23022914.148
  22124370.442   -15657507.62549 -12182436.73147  22124369.708    22124374.380
  22097088.437   -17223642.35049 -13402142.28546  22097087.634    22097093.714
  20332398.902   -27579828.26249 -20990665.08648  20332398.014    20332402.432
  21677556.126   -17294434.91449 -13188163.50747  21677555.641    21677560.588
  21027753.870   -22224847.82149 -16712864.84147  21027753.229    21027756.393
 03  3 23  1 17  0.0000000  0  8G 9G14G31G23G17G15G 3G18
  23581545.688    -7218119.50549  -5614507.29145  23581545.296    23581551.654
  21296033.772   -19280033.04649 -14993188.23847  21296033.143    21296037.154
  23011615.269    -8206243.32349  -6368015.92346  23011614.621    23011619.878
  22134847.034   -15602452.74349 -12139536.82247  22134846.325    22134850.980
  22109253.136   -17159716.42849 -13352329.89346  22109252.323    22109258.405
  20335898.798   -27561436.21849 -20976333.61048  20335897.901    20335902.332
  21675648.491   -17304459.69149 -13195974.99347  21675647.991    21675652.935
  21035823.467   -22182441.75049 -16679821.13547  21035822.813    21035825.985
 03  3 23  1 17 30.0000000  0  8G 9G14G31G23G17G15G 3G18
  23576307.429    -7245646.17349  -5635956.52945  23576307.053    23576313.381
  21281732.160   -19355188.10649 -15051750.53347  21281731.524    21281735.526
  23000413.769    -8265107.22449  -6413883.83446  23000413.106    23000418.390
  22145337.381   -15547325.74549 -12096580.71847  22145336.632    22145341.280
  22121477.050   -17095479.26449 -13302274.97246  22121476.251    22121482.340
  20339472.431   -27542656.65749 -20961700.17048  20339471.537    20339475.951
  21673848.687   -17313917.48949 -13203344.67947  21673848.207    21673853.113
  21043929.699   -22139843.14149 -16646627.40647  21043929.061    21043932.221
 03  3 23  1 18  0.0000000  0  8G 9G14G31G23G17G15G 3G18
  23571166.601    -7272660.98949  -5657006.92845  23571166.192    23571172.554
  21267513.190   -19429909.05449 -15109974.56447  21267512.538    21267516.508
  22989305.610    -8323480.69849  -6459369.59546  22989304.946    22989310.193
  22155841.490   -15492126.28749 -12053568.15547  22155840.751    22155845.395
  22133760.299   -17030930.25549 -13251977.05746  22133759.537    22133765.611
  20343120.140   -27523487.73149 -20946763.33548  20343119.252    20343123.657
  21672156.979   -17322807.33049 -13210271.79947  21672156.488    21672161.410
  21052072.639   -22097051.92249 -16613283.59547  21052071.994    21052075.130
 03  3 23  1 18 30.0000000  0  8G 9G14G31G23G17G15G 3G18
  23566123.384    -7299162.96949  -5677657.71945  23566122.913    23566129.218
  21253376.975   -19504194.97249 -15167859.60847  21253376.324    21253380.296
  22978290.982    -8381362.84349  -6504472.49546  22978290.321    22978295.610
  22166359.027   -15436856.20849 -12010500.55947  22166358.300    22166362.949
  22146102.804   -16966069.96549 -13201436.59846  22146102.062    22146108.137
  20346841.887   -27503929.79549 -20931523.36848  20346840.985    20346845.393
  21670573.189   -17331129.90449 -13216756.89747  21670572.695    21670577.624
  21060251.782   -22054070.08849 -16579791.24347  21060251.142    21060254.285
 03  3 23  1 19  0.0000000  0  8G 9G14G31G23G17G15G 3G18
  23561178.065    -7325150.30449  -5697907.48445  23561177.547    23561183.881
  21239323.874   -19578044.01949 -15225404.23647  21239323.223    21239327.173
  22967370.162    -8438751.86649  -6549191.14446  22967369.461    22967374.785
  22176889.846   -15381516.40849 -11967378.62947  22176889.109    22176893.776
  22158504.397   -16900899.00649 -13150654.04546  22158503.637    22158509.762
  20350637.771   -27483982.23049 -20915979.79748  20350636.887    20350641.277
  21669097.348   -17338885.35849 -13222800.08547  21669096.856    21669101.776
  21068466.987   -22010898.91649 -16546151.36047  21068466.354    21068469.479
 03  3 23  1 19 30.0000000  0  8G 9G14G31G23G17G15G 3G18
  23556331.249    -7350620.09949  -5717753.97945  23556330.742    23556337.015
  21225354.500   -19651453.25549 -15282606.15647  21225353.853    21225357.798
  22956543.675    -8495644.83349  -6593523.27046  22956543.026    22956548.359
  22187433.975   -15326106.68949 -11924202.21547  22187433.259    22187437.866
  22170965.362   -16835416.43349 -13099628.68246  22170964.581    22170970.764
  20354508.145   -27463643.21849 -20900131.20648  20354507.238    20354511.664
  21667729.669   -17346072.53649 -13228400.45847  21667729.173    21667734.051
  21076718.201   -21967538.51449 -16512364.02047  21076717.562    21076720.664
 03  3 23  1 20  0.0000000  0  8G 9G14G31G23G17G15G 3G18
  23551583.157    -7375571.03349  -5737196.16345  23551582.688    23551588.875
  21211469.035   -19724421.53749 -15339464.47847  21211468.396    21211472.314
  22945811.852    -8552040.61149  -6637467.97846  22945811.195    22945816.561
  22197991.102   -15270628.49149 -11880972.44347  22197990.351    22197994.970
  22183485.507   -16769622.82249 -13048360.95446  22183484.703    22183490.882
  20358452.980   -27442912.84349 -20883977.65848  20358452.087    20358456.540
  21666470.056   -17352691.86749 -13233558.36147  21666469.555    21666474.408
  21085005.119   -21923990.53749 -16478430.52247  21085004.475    21085007.561
 03  3 23  1 20 30.0000000  0  8G 9G14G31G23G17G15G 3G18
  23546934.196    -7400000.87949  -5756232.31345  23546933.697    23546939.860
  21197667.921   -19796946.64849 -15395977.46447  21197667.280    21197671.186
  22935175.050    -8607937.16749  -6681023.67646  22935174.389    22935179.712
  22208561.163   -15215082.34749 -11837689.72047  22208560.404    22208565.029
  22196064.790   -16703518.22649 -12996850.89346  22196064.014    22196070.132
  20362472.528   -27421789.89149 -20867518.19848  20362471.634    20362476.093
  21665318.524   -17358743.14949 -13238273.62247  21665318.013    21665322.876
  21093327.577   -21880255.64149 -16444351.37247  21093326.924    21093330.028
 03  3 23  1 21  0.0000000  0  8G 9G14G31G23G17G15G 3G18
  23542384.468    -7423909.40149  -5774862.22845  23542384.007    23542390.166
  21183951.196   -19869028.29249 -15452144.89647  21183950.546    21183954.432
  22924633.318    -8663334.10449  -6724190.05946  22924632.647    22924637.945
  22219143.719   -15159470.66249 -11794355.93547  22219142.968    22219147.586
  22208703.028   -16637104.09649 -12945099.63546  22208702.225    22208708.353
  20366566.596   -27400275.37549 -20850753.63148  20366565.680    20366570.143
  21664274.785   -17364228.01349 -13242547.52447  21664274.285    21664279.121
  21101685.117   -21836336.38149 -16410128.56247  21101684.458    21101687.561
 03  3 23  1 21 30.0000000  0  8G 9G14G31G23G17G15G 3G18
  23537934.700    -7447292.63949  -5793082.84145  23537934.217    23537940.418
  21170319.517   -19940662.83749 -15507963.94047  21170318.873    21170322.740
  22914187.310    -8718227.87949  -6766964.37046  22914186.629    22914191.932
  22229738.924   -15103792.27149 -11750970.17147  22229738.212    22229742.814
  22221400.280   -16570379.49149 -12893106.44946  22221399.475    22221405.659
  20370735.645   -27378366.71849 -20833681.93648  20370734.734    20370739.230
  21663339.208   -17369144.41849 -13246378.47347  21663338.703    21663343.538
  21110077.853   -21792232.13649 -16375761.60347  21110077.198    21110080.333
 03  3 23  1 22  0.0000000  0  8G 9G14G31G23G17G15G 3G18
  23533585.197    -7470149.04949  -5810892.93045  23533584.768    23533590.878
  21156773.247   -20011848.47249 -15563433.18647  21156772.621    21156776.471
  22903837.455    -8772616.58949  -6809345.13646  22903836.774    22903842.018
  22240346.713   -15048047.92449 -11707533.01547  22240345.999    22240350.602
  22234156.702   -16503343.90649 -12840870.94746  22234155.884    22234162.132
  20374979.797   -27356063.49149 -20816302.78648  20374978.886    20374983.380
  21662511.771   -17373492.53749 -13249766.60347  21662511.266    21662516.096
  21118505.683   -21747943.63549 -16341251.06947  21118505.023    21118508.161
 03  3 23  1 22 30.0000000  0  8G 9G14G31G23G17G15G 3G18
  23529336.249    -7492477.02449  -5828291.25945  23529335.830    23529341.901
  21143312.727   -20082583.70149 -15618551.46847  21143312.090    21143315.942
  22893583.927    -8826498.96649  -6851331.33846  22893583.252    22893588.475
  22250966.916   -14992238.66849 -11664045.28347  22250966.177    22250970.773
  22246972.309   -16435997.58449 -12788393.30446  22246971.462    22246977.698
  20379299.106   -27333365.33549 -20798615.90048  20379298.195    20379302.691
  21661792.392   -17377272.80649 -13252712.25447  21661791.884    21661796.741
  21126968.258   -21703472.23949 -16306598.02747  21126967.605    21126970.739
 03  3 23  1 23  0.0000000  0  8G 9G14G31G23G17G15G 3G18
  23525187.842    -7514276.74849  -5845277.97145  23525187.432    23525193.426
  21129937.873   -20152868.68249 -15673318.90847  21129937.239    21129941.104
  22883426.731    -8879875.24049  -6892923.18546  22883426.064    22883431.279
  22261598.844   -14936367.40549 -11620509.23547  22261598.126    22261602.710
  22259846.568   -16368343.02949 -12735675.47346  22259845.729    22259851.928
  20383693.218   -27310273.87249 -20780622.54148  20383692.313    20383696.824
  21661180.680   -17380487.17149 -13255216.94247  21661180.187    21661185.047
  21135465.099   -21658821.09849 -16271804.92047  21135464.462    21135467.570
 03  3 23  1 23 30.0000000  0  8G 9G14G31G23G17G15G 3G18
  23521140.805    -7535543.83549  -5861849.62845  23521140.413    23521146.363
  21116649.531   -20222699.06549 -15727732.11247  21116648.898    21116652.732
  22873366.613    -8932741.17549  -6934117.35846  22873365.929    22873371.181
  22272242.910   -14880432.30349 -11576923.43747  22272242.187    22272246.797
  22272779.826   -16300378.46949 -12682716.08446  22272778.986    22272785.161
  20388162.889   -27286785.66649 -20762320.02748  20388161.989    20388166.494
  21660677.098   -17383133.43649 -13257278.95347  21660676.616    21660681.473
  21143996.421   -21613988.81449 -16236870.65847  21143995.766    21143998.850
 03  3 23  1 24  0.0000000  0  8G 9G14G31G23G17G15G 3G18
  23517195.341    -7556277.21149  -5878005.41845  23517194.875    23517200.852
  21103447.862   -20292073.86949 -15781790.32247  21103447.208    21103451.044
  22863403.805    -8985095.73049  -6974913.05046  22863403.165    22863408.396
  22282898.870   -14824434.78149 -11533289.00647  22282898.151    22282902.786
  22285772.022   -16232104.04549 -12629515.24446  22285771.182    22285777.386
  20392708.000   -27262900.91249 -20743708.51848  20392707.083    20392711.591
  21660281.540   -17385212.13449 -13258898.70447  21660281.040    21660285.895
  21152561.901   -21568976.99649 -16201796.50247  21152561.247    21152564.294
 03  3 23  1 24 30.0000000  0  8G 9G14G31G23G17G15G 3G18
  23513351.381    -7576476.94449  -5893745.39245  23513350.916    23513356.933
  21090332.949   -20360992.91649 -15835493.40147  21090332.307    21090336.128
  22853538.365    -9036938.79649  -7015310.18446  22853537.725    22853542.952
  22293566.290   -14768377.17949 -11489607.75347  22293565.576    22293570.206
  22298822.800   -16163521.81849 -12576074.56846  22298821.997    22298828.168
  20397328.390   -27238620.50849 -20724788.71548  20397327.494    20397331.976
  21659993.577   -17386725.24449 -13260077.73947  21659993.099    21659997.938
  21161161.019   -21523788.20949 -16166584.45347  21161160.363    21161163.412
 03  3 23  1 25  0.0000000  0  8G 9G14G31G23G17G15G 3G18
  23509609.933    -7596138.02749  -5909065.62645  23509609.506    23509615.441
  21077305.760   -20429451.12749 -15888837.37847  21077305.095    21077308.891
  22843771.193    -9088265.43749  -7055304.89246  22843770.577    22843775.794
  22304245.630   -14712256.97349 -11445877.71647  22304244.913    22304249.539
  22311932.637   -16094629.19149 -12522392.01546  22311931.831    22311938.031
  20402024.781   -27213940.77249 -20705557.74148  20402023.873    20402028.352
  21659813.860   -17387669.65049 -13260813.62647  21659813.363    21659818.199
  21169794.252   -21478420.10749 -16131232.68247  21169793.597    21169796.650
 03  3 23  1 25 30.0000000  0  8G 9G14G31G23G17G15G 3G18
  23505970.576    -7615262.84449  -5923968.01145  23505970.116    23505976.068
  21064365.787   -20497450.99449 -15941824.21147  21064365.114    21064368.854
  22834101.811    -9139078.22949  -7094899.21546  22834101.161    22834106.387
  22314935.937   -14656079.03549 -11402102.70147  22314935.232    22314939.856
  22325100.731   -16025430.50649 -12468470.96646  22325099.935    22325106.065
  20406796.462   -27188865.31949 -20686018.41648  20406795.569    20406800.051
  21659741.537   -17388049.57149 -13261109.65247  21659741.033    21659745.895
  21178460.599   -21432877.87649 -16095745.22747  21178459.967    21178463.045
 03  3 23  1 26  0.0000000  0  8G 9G14G31G23G17G15G 3G18
  23502434.257    -7633845.95949  -5938448.28345  23502433.824    23502439.740
  21051514.065   -20564986.89549 -15994449.51347  21051513.401    21051517.113
  22824531.295    -9189371.56449  -7134088.76246  22824530.646    22824535.828
  22325637.812   -14599840.19249 -11358280.22047  22325637.113    22325641.768
  22338327.810   -15955922.00749 -12414308.51746  22338327.018    22338333.144
  20411644.311   -27163389.65349 -20666167.24048  20411643.423    20411647.883
  21659777.295   -17387861.47049 -13260963.06947  21659776.819    21659781.673
  21187160.671   -21387158.69949 -16060119.90247  21187160.024    21187163.134
 03  3 23  1 26 30.0000000  0  8G 9G14G31G23G17G15G 3G18
  23499000.893    -7651888.20349  -5952507.09545  23499000.430    23499006.337
  21038750.443   -20632059.78649 -16046714.02547  21038749.787    21038753.466
  22815059.400    -9239146.46349  -7172874.33346  22815058.754    22815063.918
  22336350.643   -14543543.77149 -11314412.87347  22336349.957    22336354.626
  22351613.351   -15886105.96649 -12359906.41946  22351612.541    22351618.716
  20416567.988   -27137515.46249 -20646005.51248  20416567.105    20416571.546
  21659920.601   -17387108.19949 -13260376.09047  21659920.139    21659924.979
  21195893.751   -21341266.01249 -16024359.36647  21195893.099    21195896.222
 03  3 23  1 27  0.0000000  0  8G 9G14G31G23G17G15G 3G18
  23495670.769    -7669387.80049  -5966143.06645  23495670.266    23495676.202
  21026075.328   -20698667.71749 -16098616.23147  21026074.662    21026078.329
  22805686.486    -9288401.02049  -7211254.44446  22805685.863    22805691.003
  22347074.399   -14487190.08149 -11270500.90147  22347073.703    22347078.375
  22364957.196   -15815983.45249 -12305265.51346  22364956.383    22364962.577
  20421567.652   -27111242.05049 -20625532.70448  20421566.763    20421571.213
  21660171.526   -17385789.59949 -13259348.59747  21660171.046    21660175.911
  21204659.704   -21295200.49749 -15988464.15647  21204659.050    21204662.163
 03  3 23  1 27 30.0000000  0  8G 9G14G31G23G17G15G 3G18
  23492444.449    -7686341.82249  -5979353.92445  23492443.999    23492449.862
  21013489.250   -20764807.66549 -16150153.78047  21013488.585    21013492.250
  22796413.150    -9337132.45749  -7249226.95046  22796412.502    22796417.665
  22357809.165   -14430778.55449 -11226543.86247  22357808.451    22357813.114
  22378359.680   -15745552.91649 -12250384.59646  22378358.885    22378365.110
  20426643.545   -27084567.89549 -20604747.63848  20426642.670    20426647.115
  21660530.134   -17383904.86849 -13257879.96647  21660529.657    21660534.530
  21213458.574   -21248962.05849 -15952434.20247  21213457.919    21213461.054
 03  3 23  1 28  0.0000000  0  8G 9G14G31G23G17G15G 3G18
  23489322.104    -7702749.49749  -5992139.04045  23489321.681    23489327.461
  21000992.385   -20830478.75849 -16201325.98247  21000991.716    21000995.370
  22787239.560    -9385339.93849  -7286791.16646  22787238.933    22787244.095
  22368554.625   -14374310.65849 -11182542.89847  22368553.903    22368558.562
  22391820.644   -15674815.28149 -12195264.37346  22391819.846    22391826.074
  20431795.762   -27057492.95149 -20583650.26148  20431794.883    20431799.298
  21660996.304   -17381455.20349 -13255971.12647  21660995.815    21661000.643
  21222290.088   -21202552.14649 -15916270.62747  21222289.435    21222292.540
 03  3 23  1 28 30.0000000  0  8G 9G14G31G23G17G15G 3G18
  23486303.969    -7718609.59849  -6004497.48845  23486303.551    23486309.244
  20988584.949   -20895679.84149 -16252131.94847  20988584.286    20988587.917
  22778165.849    -9433022.25049  -7323946.16746  22778165.205    22778170.409
  22379310.658   -14317787.27449 -11138498.70547  22379309.956    22379314.600
  22405339.821   -15603771.61749 -12139905.70046  22405339.036    22405345.247
  20437024.211   -27030017.17649 -20562240.56148  20437023.323    20437027.733
  21661569.907   -17378440.99049 -13253622.38647  21661569.407    21661574.198
  21231154.017   -21155972.01349 -15879974.41847  21231153.348    21231156.425
 03  3 23  1 29  0.0000000  0  8G 9G14G31G23G17G15G 3G18
  23483390.447    -7733919.86649  -6016427.48145  23483390.008    23483395.698
  20976267.358   -20960408.68049 -16302569.93147  20976266.703    20976270.337
  22769192.523    -9480177.22349  -7360690.25746  22769191.887    22769197.062
  22390077.274   -14261208.38649 -11094411.25247  22390076.543    22390081.215
  22418917.439   -15532421.05949 -12084307.88046  22418916.597    22418922.853
  20442329.179   -27002139.47949 -20540517.66648  20442328.291    20442332.686
  21662250.981   -17374861.82849 -13250833.41747  21662250.486    21662255.276
  21240050.244   -21109221.99849 -15843545.82347  21240049.590    21240052.661
 03  3 23  1 29 30.0000000  0  8G 9G14G31G23G17G15G 3G18
  23480581.816    -7748679.01449  -6027928.03245  23480581.392    23480587.110
  20964040.007   -21024663.57949 -16352638.61447  20964039.348    20964042.969
  22760319.838    -9526803.40949  -7397022.31946  22760319.219    22760324.319
  22400854.272   -14204574.87749 -11050281.24947  22400853.542    22400858.220
  22432553.306   -15460764.04249 -12028471.26746  22432552.487    22432558.713
  20447710.690   -26973859.32849 -20518481.17948  20447709.795    20447714.169
  21663039.468   -17370718.37249 -13247604.74547  21663038.960    21663043.771
  21248978.629   -21062302.94949 -15806985.52447  21248977.989    21248981.077
 03  3 23  1 30  0.0000000  0  8G 9G14G31G23G17G15G 3G18
  23477878.048    -7762887.23249  -6038999.28045  23477877.613    23477883.294
  20951902.830   -21088444.52549 -16402337.98447  20951902.170    20951905.787
  22751547.776    -9572900.82249  -7432942.35446  22751547.142    22751552.195
  22411641.301   -14147888.64049 -11006110.15447  22411640.584    22411645.269
  22446247.065   -15388802.80049 -11972397.58646  22446246.267    22446252.520
  20453168.627   -26945177.74549 -20496131.88248  20453167.747    20453172.105
  21663934.857   -17366012.87549 -13243938.11447  21663934.350    21663939.186
  21257938.664   -21015217.58449 -15770295.62547  21257938.026    21257941.113
 03  3 23  1 30 30.0000000  0  8G 9G14G31G23G17G15G 3G18
  23475279.694    -7776541.34549  -6049638.76845  23475279.213    23475284.936
  20939856.468   -21151748.34749 -16451665.56847  20939855.830    20939859.414
  22742876.871    -9618466.54949  -7468448.06746  22742876.225    22742881.277
  22422438.528   -14091148.91449 -10961897.38647  22422437.769    22422442.481
  22459998.933   -15316536.26049 -11916086.01746  22459998.117    22460004.425
  20458703.296   -26916092.79349 -20473468.27048  20458702.405    20458706.753
  21664937.483   -17360744.13249 -13239832.59447  21664936.966    21664941.829
  21266930.473   -20967965.32349 -15733475.67647  21266929.831    21266932.919
 03  3 23  1 31  0.0000000  0  8G 9G14G31G23G17G15G 3G18
  23472786.850    -7789640.90049  -6059846.13245  23472786.399    23472792.131
  20927900.907   -21214574.92949 -16500621.27747  20927900.266    20927903.831
  22734307.169    -9663500.16249  -7503539.14446  22734306.508    22734311.619
  22433245.606   -14034357.36849 -10917644.23047  22433244.858    22433249.532
  22473808.724   -15243965.41549 -11859537.33446  22473807.897    22473814.222
  20464314.685   -26886604.84249 -20450490.63248  20464313.790    20464318.101
  21666047.028   -17354913.42449 -13235289.17947  21666046.498    21666051.324
  21275953.696   -20920547.92749 -15696527.05047  21275953.044    21275956.117
 03  3 23  1 31 30.0000000  0  8G 9G14G31G23G17G15G 3G18
  23470400.005    -7802183.59049  -6069619.58045  23470399.561    23470405.288
  20916036.733   -21276921.35749 -16549202.84747  20916036.100    20916039.640
  22725839.258    -9707999.08349  -7538213.60146  22725838.610    22725843.697
  22444062.663   -13977513.47049 -10873350.29446  22444061.899    22444066.569
  22487676.460   -15171089.71749 -11802751.10446  22487675.656    22487681.997
  20470003.029   -26856712.40049 -20427197.81048  20470002.122    20470006.414
  21667263.597   -17348520.18049 -13230307.42647  21667263.086    21667267.916
  21285008.356   -20872965.31349 -15659449.68547  21285007.716    21285010.786
 03  3 23  1 32  0.0000000  0  8G 9G14G31G23G17G15G 3G18
  23468119.533    -7814167.14649  -6078957.33245  23468119.070    23468124.735
  20904264.404   -21338785.21649 -16597408.37547  20904263.760    20904267.286
  22717473.551    -9751961.09949  -7572469.66646  22717472.900    22717477.939
  22454889.699   -13920616.92649 -10829015.31446  22454888.944    22454893.596
  22501602.311   -15097908.92549 -11745727.12646  22501601.516    22501607.835
  20475768.554   -26826414.32349 -20403588.90248  20475767.651    20475771.920
  21668587.316   -17341564.07749 -13224887.07547  21668586.819    21668591.597
  21294094.494   -20825217.42949 -15622243.53647  21294093.846    21294096.926
 03  3 23  1 32 30.0000000  0  8G 9G14G31G23G17G15G 3G18
  23465944.929    -7825594.33649  -6087861.57845  23465944.485    23465950.133
  20892583.331   -21400169.35349 -16645240.10447  20892582.676    20892586.190
  22709209.541    -9795388.86749  -7606309.45446  22709208.872    22709213.885
  22465725.852   -13863672.47449 -10784643.02046  22465725.112    22465729.754
  22515585.453   -15024427.12049 -11688468.60346  22515584.625    22515591.026
  20481610.560   -26795714.38049 -20379666.86148  20481609.667    20481613.910
  21670017.257   -17334049.81749 -13219031.80147  21670016.749    21670021.499
  21303211.119   -20777309.23949 -15584912.47947  21303210.474    21303213.501
 03  3 23  1 33  0.0000000  0  8G 9G14G31G23G17G15G 3G18
  23463877.236    -7836459.73149  -6096328.04945  23463876.826    23463882.422
  20880994.637   -21461068.08749 -16692693.59747  20880993.979    20880997.494
  22701048.165    -9838277.02849  -7639728.74546  22701047.482    22701052.453
  22476571.785   -13806676.55149 -10740230.60246  22476571.084    22476575.713
  22529626.613   -14950640.35049 -11630972.44146  22529625.815    22529632.172
  20487529.913   -26764607.94249 -20355428.06648  20487529.009    20487533.280
  21671554.048   -17325973.93549 -13212738.89947  21671553.546    21671558.264
  21312358.836   -20729237.72149 -15547454.15147  21312358.181    21312361.211
 03  3 23  1 33 30.0000000  0  8G 9G14G31G23G17G15G 3G18
  23461916.405    -7846763.72149  -6104357.07745  23461916.013    23461921.558
  20869498.253   -21521481.75049 -16739769.10947  20869497.598    20869501.073
  22692989.402    -9880625.83749  -7672727.76046  22692988.721    22692993.694
  22487427.112   -13749631.40549 -10695779.84346  22487426.399    22487430.993
  22543725.270   -14876551.48649 -11573240.87646  22543724.504    22543730.798
  20493526.391   -26733096.13549 -20330873.39748  20493525.488    20493529.759
  21673197.327   -17317338.48549 -13206009.96247  21673196.808    21673201.529
  21321537.196   -20681005.21349 -15509870.38147  21321536.547    21321539.569
 03  3 23  1 34  0.0000000  0  8G 9G14G31G23G17G15G 3G18
  23460062.692    -7856504.83849  -6111947.49445  23460062.257    23460067.805
  20858094.469   -21581408.86849 -16786465.50147  20858093.812    20858097.247
  22685033.530    -9922433.92349  -7705305.44446  22685032.839    22685037.806
  22498291.716   -13692537.57749 -10651291.13946  22498290.997    22498295.566
  22557881.357   -14802160.44049 -11515273.85146  22557880.604    22557886.915
  20499600.111   -26701178.57749 -20306002.56148  20499599.203    20499603.457
  21674946.940   -17308144.06649 -13198845.47147  21674946.447    21674951.164
  21330745.992   -20632612.53749 -15472161.80847  21330745.322    21330748.363
 03  3 23  1 34 30.0000000  0  8G 9G14G31G23G17G15G 3G18
  23458316.318    -7865681.91449  -6119098.40245  23458315.886    23458321.400
  20846783.556   -21640847.85449 -16832781.52547  20846782.903    20846786.320
  22677180.808    -9963700.13349  -7737460.87446  22677180.145    22677185.103
  22509165.464   -13635395.76249 -10606765.04446  22509164.740    22509169.292
  22572094.896   -14727467.91149 -11457071.89646  22572094.095    22572100.426
  20505751.089   -26668854.98649 -20280815.33648  20505750.175    20505754.432
  21676802.769   -17298391.55449 -13191246.09247  21676802.252    21676807.026
  21339985.069   -20584060.72449 -15434329.22147  21339984.426    21339987.461
 03  3 23  1 35  0.0000000  0  8G 9G14G31G23G17G15G 3G18
  23456677.668    -7874292.58849  -6125807.96445  23456677.230    23456682.884
  20835566.014   -21699796.19549 -16878715.23547  20835565.368    20835568.752
  22669431.672   -10004421.76549  -7769191.97146  22669430.970    22669435.971
  22520048.522   -13578205.02849 -10562200.82946  22520047.785    22520052.306
  22586365.930   -14652473.19349 -11398634.47746  22586365.164    22586371.448
  20511979.633   -26636123.51849 -20255310.28948  20511978.733    20511982.965
  21678764.943   -17288080.14149 -13183211.20947  21678764.444    21678769.209
  21349254.581   -20535349.20749 -15396372.19447  21349253.939    21349256.964
 03  3 23  1 35 30.0000000  0  8G 9G14G31G23G17G15G 3G18
  23455146.582    -7882338.21949  -6132077.24945  23455146.120    23455151.809
  20824441.596   -21758255.18149 -16924267.62647  20824440.950    20824444.302
  22661785.871   -10044600.27149  -7800499.84446  22661785.143    22661790.176
  22530940.261   -13520968.62149 -10517601.02946  22530939.525    22530944.027
  22600693.905   -14577179.26249 -11339963.90546  22600693.126    22600699.437
  20518285.364   -26602986.64349 -20229489.34048  20518284.467    20518288.693
  21680832.882   -17277213.17449 -13174743.42747  21680832.352    21680837.151
  21358553.758   -20486481.68549 -15358293.60447  21358553.121    21358556.137
 03  3 23  1 36  0.0000000  0  8G 9G14G31G23G17G15G 3G18
  23453723.525    -7889816.26649  -6137904.24945  23453723.115    23453728.697
  20813410.782   -21816222.14749 -16969436.63047  20813410.146    20813413.476
  22654243.952   -10084233.13649  -7831382.54546  22654243.224    22654248.243
  22541840.772   -13463685.90649 -10472965.14846  22541840.039    22541844.595
  22615079.103   -14501584.70649 -11281059.07746  22615078.347    22615084.587
  20524668.601   -26569442.60449 -20203351.12448  20524667.708    20524671.923
  21683006.577   -17265790.16049 -13165842.36247  21683006.057    21683010.839
  21367882.732   -20437457.70149 -15320093.09547  21367882.093    21367885.105
 03  3 23  1 36 30.0000000  0  8G 9G14G31G23G17G15G 3G18
  23452408.768    -7896725.36749  -6143287.91945  23452408.355    23452413.916
  20802473.988   -21873695.23849 -17014220.79547  20802473.357    20802476.641
  22646806.148   -10123318.67649  -7861838.76146  22646805.423    22646810.476
  22552750.083   -13406357.00149 -10428293.27246  22552749.366    22552753.919
  22629521.418   -14425690.13549 -11221920.46746  22629520.629    22629526.888
  20531129.451   -26535490.78649 -20176895.15748  20531128.545    20531132.762
  21685286.012   -17253811.61449 -13156508.41647  21685285.489    21685290.273
  21377241.383   -20388277.68749 -15281771.00447  21377240.734    21377243.759
 03  3 23  1 37  0.0000000  0  8G 9G14G31G23G17G15G 3G18
  23451202.479    -7903064.25949  -6148227.26345  23451201.991    23451207.616
  20791631.422   -21930673.18249 -17058619.13047  20791630.784    20791634.043
  22639472.741   -10161855.82149  -7891867.65746  22639472.040    22639477.091
  22563668.072   -13348982.48749 -10383585.85646  22563667.358    22563671.944
  22644020.711   -14349496.02449 -11162548.45646  22644019.921    22644026.163
  20537667.965   -26501130.63449 -20150121.00348  20537667.049    20537671.259
  21687671.015   -17241278.17749 -13146742.08447  21687670.498    21687675.271
  21386629.571   -20338942.35249 -15243327.87547  21386628.925    21386631.925
 03  3 23  1 37 30.0000000  0  8G 9G14G31G23G17G15G 3G18
  23450104.704    -7908832.99849  -6152722.32245  23450104.281    23450109.887
  20780883.096   -21987155.80149 -17102631.49748  20780882.445    20780885.688
  22632243.700   -10199844.40149  -7921469.09146  22632242.994    22632248.042
  22574594.425   -13291563.96849 -10338844.15046  22574593.704    22574598.257
  22658576.773   -14273003.63449 -11102944.00846  22658575.954    22658582.192
  20544283.996   -26466363.13849 -20123029.44047  20544283.079    20544287.324
  21690161.285   -17228191.47849 -13136544.64047  21690160.794    21690165.543
  21396046.955   -20289453.69249 -15204765.26847  21396046.295    21396049.292
 03  3 23  1 38  0.0000000  0  8G 9G14G31G23G17G15G 3G18
  23449115.660    -7914030.20549  -6156772.04045  23449115.186    23449120.799
  20770229.299   -22043141.59349 -17146256.73548  20770228.650    20770231.867
  22625119.326   -10237282.95149  -7950641.94346  22625118.636    22625123.663
  22585529.178   -13234101.42949 -10294068.13946  22585528.474    22585533.003
  22673189.448   -14196213.65549 -11043107.67946  22673188.608    22673194.835
  20550977.632   -26431187.57249 -20095619.90447  20550976.715    20550980.976
  21692756.795   -17214552.09749 -13125916.54047  21692756.307    21692761.038
  21405493.433   -20239812.16049 -15166083.54147  21405492.756    21405495.755
 03  3 23  1 38 30.0000000  0  8G 9G14G31G23G17G15G 3G18
  23448235.801    -7918653.62849  -6160374.65045  23448235.375    23448240.931
  20759670.527   -22098628.07249 -17189492.88948  20759669.860    20759673.073
  22618100.058   -10274169.13449  -7979384.36846  22618099.385    22618104.399
  22596472.469   -13176594.17049 -10249257.27846  22596471.768    22596476.289
  22687858.974   -14119125.01349 -10983038.61746  22687858.163    22687864.429
  20557749.296   -26395602.27849 -20067891.09247  20557748.377    20557752.674
  21695457.531   -17200359.58949 -13114857.42147  21695457.038    21695461.752
  21414969.093   -20190017.15749 -15127282.22447  21414968.426    21414971.416
 03  3 23  1 39  0.0000000  0  8G 9G14G31G23G17G15G 3G18
  23447464.861    -7922704.53149  -6163531.14245  23447464.418    23447470.029
  20749206.608   -22153616.05249 -17232340.61048  20749205.944    20749209.150
  22611185.696   -10310504.05249  -8007697.24746  22611185.022    22611190.014
  22607423.709   -13119044.92349 -10204413.70146  22607422.987    22607427.537
  22702584.759   -14041740.61249 -10922739.10846  22702583.938    22702590.224
  20564598.526   -26359609.15049 -20039844.49547  20564597.615    20564601.919
  21698262.915   -17185617.10349 -13103369.75647  21698262.425    21698267.144
  21424473.310   -20140071.94949 -15088363.87547  21424472.656    21424475.669
 03  3 23  1 39 30.0000000  0  8G 9G14G31G23G17G15G 3G18
  23446803.491    -7926179.65749  -6166238.98045  23446803.017    23446808.639
  20738838.144   -22208102.41649 -17274797.45948  20738837.492    20738840.663
  22604376.873   -10346284.54949  -8035578.12046  22604376.196    22604381.170
  22618383.268   -13061451.98349 -10159536.07646  22618382.559    22618387.111
  22717367.202   -13964058.41449 -10862207.53646  22717366.344    22717372.660
  20571525.777   -26323206.03649 -20011478.42747  20571524.880    20571529.179
  21701173.187   -17170323.52349 -13091452.66747  21701172.671    21701177.416
  21434006.393   -20089975.20949 -15049327.44047  21434005.737    21434008.732
 03  3 23  1 40  0.0000000  0  8G 9G14G31G23G17G15G 3G18
  23446251.742    -7929078.77849  -6168497.98345  23446251.248    23446256.888
  20728565.288   -22262086.55649 -17316862.97148  20728564.633    20728567.781
  22597673.621   -10381510.27949  -8063026.69946  22597672.957    22597677.902
  22629350.926   -13003816.52249 -10114625.31946  22629350.187    22629354.779
  22732205.945   -13886080.18449 -10801445.31746  22732205.082    22732211.440
  20578530.967   -26286393.49249 -19982793.32947  20578530.070    20578534.350
  21704188.014   -17154480.33049 -13079107.31447  21704187.514    21704192.255
  21443568.045   -20039728.49949 -15010174.15247  21443567.357    21443570.362
 03  3 23  1 40 30.0000000  0  8G 9G14G31G23G17G15G 3G18
  23445809.823    -7931401.25049  -6170307.63945  23445809.324    23445814.890
  20718388.178   -22315567.33649 -17358536.24948  20718387.509    20718390.662
  22591076.161   -10416180.19849  -8090042.17246  22591075.454    22591080.410
  22640326.601   -12946139.00949 -10069681.80346  22640325.848    22640330.441
  22747100.947   -13807806.45049 -10740452.81746  22747100.050    22747106.451
  20585614.171   -26249171.03149 -19953788.80647  20585613.257    20585617.534
  21707307.256   -17138088.50749 -13066334.45247  21707306.744    21707311.491
  21453158.083   -19989332.43549 -14970904.48447  21453157.408    21453160.430
 03  3 23  1 41  0.0000000  0  8G 9G14G31G23G17G15G 3G18
  23445477.334    -7933148.01749  -6171668.69545  23445476.874    23445482.440
  20708306.756   -22368545.28849 -17399817.71248  20708306.098    20708309.238
  22584584.222   -10450295.19149  -8116625.23646  22584583.548    22584588.483
  22651309.778   -12888421.85749 -10024707.39746  22651309.035    22651313.672
  22762051.665   -13729239.88049 -10679232.13546  22762050.790    22762057.219
  20592775.047   -26211540.30949 -19924466.15847  20592774.159    20592778.423
  21710530.370   -17121150.86949 -13053136.28847  21710529.873    21710534.592
  21462776.003   -19938789.85049 -14931520.64547  21462775.340    21462778.337
 03  3 23  1 41 30.0000000  0  8G 9G14G31G23G17G15G 3G18
  23445255.360    -7934314.15849  -6172577.31945  23445254.888    23445260.414
  20698321.903   -22421015.78049 -17440703.75348  20698321.240    20698324.376
  22578198.834   -10483850.38749  -8142772.10646  22578198.199    22578203.111
  22662301.165   -12830661.70349  -9979699.47546  22662300.446    22662305.066
  22777058.793   -13650376.92149 -10617780.50846  22777057.951    22777064.324
  20600014.370   -26173497.40349 -19894822.32847  20600013.467    20600017.725
  21713857.882   -17103664.61449 -13039510.62947  21713857.379    21713862.072
  21472422.405   -19888097.60449 -14892020.18647  21472421.742    21472424.735
 03  3 23  1 42  0.0000000  0  8G 9G14G31G23G17G15G 3G18
  23445143.485    -7934901.54149  -6173034.96545  23445143.025    23445148.463
  20688433.341   -22472980.37249 -17481195.58748  20688432.686    20688435.793
  22571919.658   -10516847.60149  -8168484.18046  22571918.966    22571923.893
  22673300.096   -12772861.81449  -9934660.59946  22673299.371    22673303.969
  22792121.633   -13571221.25049 -10556100.78846  22792120.793    22792127.254
  20607331.611   -26135045.01649 -19864859.41847  20607330.702    20607334.977
  21717289.110   -17085633.43649 -13025460.35447  21717288.604    21717293.280
  21482096.594   -19837259.44549 -14852406.02147  21482095.934    21482098.905
 03  3 23  1 42 30.0000000  0  8G 9G14G31G23G17G15G 3G18
  23445142.067    -7934908.67849  -6173040.45545  23445141.617    23445147.140
  20678641.429   -22524437.03749 -17521291.63648  20678640.775    20678643.845
  22565746.970   -10549285.15749  -8193760.15746  22565746.269    22565751.158
  22684306.713   -12715021.80649  -9889590.46346  22684305.981    22684310.607
  22807240.291   -13491772.02749 -10494192.34146  22807239.496    22807245.924
  20614726.952   -26096182.15149 -19834576.65847  20614726.042    20614730.301
  21720823.984   -17067057.57149 -13010985.64547  21720823.467    21720828.146
  21491798.569   -19786275.17049 -14812678.00247  21491797.898    21491800.854
 03  3 23  1 43  0.0000000  0  8G 9G14G31G23G17G15G 3G18
  23445251.113    -7934335.44349  -6172593.72045  23445250.671    23445256.161
  20668946.229   -22575385.49649 -17560991.67248  20668945.567    20668948.620
  22559680.854   -10581162.69849  -8218599.75446  22559680.139    22559685.037
  22695320.788   -12657142.43649  -9844489.65146  22695320.037    22695324.695
  22822414.481   -13412031.12049 -10432056.58946  22822413.641    22822420.138
  20622200.401   -26056908.88149 -19803974.10047  20622199.508    20622203.751
  21724462.204   -17047938.62849 -12996087.75647  21724461.668    21724466.359
  21501528.104   -19735145.90649 -14772836.99947  21501527.432    21501530.418
 03  3 23  1 43 30.0000000  0  8G 9G14G31G23G17G15G 3G18
  23445470.764    -7933181.09849  -6171694.17045  23445470.338    23445475.783
  20659347.960   -22625824.44049 -17600294.69048  20659347.302    20659350.332
  22553721.457   -10612479.39049  -8243002.32746  22553720.764    22553725.612
  22706342.264   -12599224.39049  -9799358.70846  22706341.507    22706346.142
  22837644.122   -13331998.85649 -10369693.80846  22837643.269    22837649.727
  20629751.947   -26017225.19949 -19773051.74947  20629751.061    20629755.288
  21728203.611   -17028277.60749 -12980767.47347  21728203.088    21728207.747
  21511285.036   -19683872.81249 -14732883.93047  21511284.348    21511287.326
 03  3 23  1 44  0.0000000  0  8G 9G14G31G23G17G15G 3G18
  23445801.138    -7931444.74949  -6170341.10145  23445800.750    23445806.119
  20649846.771   -22675753.19549 -17639200.15848  20649846.119    20649849.149
  22547868.954   -10643234.29849  -8266967.15146  22547868.286    22547873.090
  22717370.988   -12541268.00649  -9754197.89246  22717370.242    22717374.845
  22852929.063   -13251676.00549 -10307104.59646  22852928.237    22852934.697
  20637381.594   -25977131.03549 -19741809.53847  20637380.699    20637384.919
  21732047.878   -17008075.79649 -12965025.79347  21732047.337    21732051.986
  21521069.279   -19632456.42549 -14692819.19947  21521068.594    21521071.543
 03  3 23  1 44 30.0000000  0  8G 9G14G31G23G17G15G 3G18
  23446242.407    -7929125.62849  -6168533.93945  23446241.974    23446247.397
  20640442.936   -22725170.30349 -17677706.93748  20640442.299    20640445.330
  22542123.589   -10673426.41749  -8290493.43946  22542122.893    22542127.674
  22728406.966   -12483273.52249  -9709007.39246  22728406.202    22728410.830
  22868269.284   -13171062.50849 -10244288.91545  22868268.517    22868274.959
  20645089.422   -25936626.12049 -19710247.26547  20645088.513    20645092.727
  21735994.901   -16987334.03749 -12948863.37647  21735994.364    21735999.011
  21530880.651   -19580897.18749 -14652643.15847  21530879.972    21530882.935
 03  3 23  1 45  0.0000000  0  8G 9G14G31G23G17G15G 3G18
  23446794.665    -7926223.26749  -6166272.30245  23446794.212    23446799.586
  20631136.681   -22774074.88749 -17715814.34848  20631136.032    20631139.051
  22536485.489   -10703054.99249  -8313580.59646  22536484.796    22536489.540
  22739450.071   -12425241.37949  -9663787.54346  22739449.327    22739453.962
  22883664.575   -13090159.85949 -10181247.91245  22883663.799    22883670.272
  20652875.470   -25895710.24849 -19678364.76047  20652874.563    20652878.774
  21740044.366   -16966053.77749 -12932281.34447  21740043.841    21740048.501
  21540719.033   -19529196.21649 -14612356.67347  21540718.361    21540721.318
 03  3 23  1 45 30.0000000  0  8G 9G14G31G23G17G15G 3G18
  23447458.256    -7922735.87849  -6163554.81345  23447457.852    23447463.206
  20621928.260   -22822465.23749 -17753521.06248  20621927.617    20621930.602
  22530954.870   -10732118.34449  -8336227.32146  22530954.155    22530958.929
  22750500.493   -12367171.04449  -9618537.93746  22750499.747    22750504.393
  22899114.966   -13008967.73249 -10117981.34145  22899114.163    22899120.518
  20660739.879   -25854382.41049 -19646161.24947  20660738.968    20660743.175
  21744196.318   -16944234.98749 -12915279.68947  21744195.806    21744200.432
  21550584.380   -19477353.31449 -14571959.59447  21550583.731    21550586.667
 03  3 23  1 46  0.0000000  0  8G 9G14G31G23G17G15G 3G18
  23448233.099    -7918663.95849  -6160381.84145  23448232.686    23448238.016
  20612817.736   -22870341.20149 -17790826.95648  20612817.074    20612820.062
  22525531.781   -10760616.65649  -8358433.75746  22525531.109    22525535.858
  22761557.944   -12309063.90549  -9573259.65046  22761557.192    22761561.838
  22914620.265   -12927487.29749 -10054490.11246  22914619.449    22914625.846
  20668682.548   -25812643.36149 -19613637.31147  20668681.630    20668685.857
  21748450.376   -16921879.89149 -12897860.12747  21748449.842    21748454.467
  21560476.451   -19425369.89249 -14531453.02547  21560475.813    21560478.775
 03  3 23  1 46 30.0000000  0  8G 9G14G31G23G17G15G 3G18
  23449119.184    -7914007.51249  -6156753.39645  23449118.783    23449124.074
  20603805.176   -22917702.36549 -17827731.69948  20603804.513    20603807.480
  22520216.326   -10788549.68949  -8380199.71346  22520215.619    22520220.345
  22772622.237   -12250920.89349  -9527953.39946  22772621.452    22772626.094
  22930180.112   -12845719.97749  -9990775.33645  22930179.237    22930185.676
  20676703.351   -25770493.74749 -19580793.44847  20676702.447    20676706.681
  21752806.139   -16898990.14449 -12880023.95247  21752805.596    21752810.217
  21570395.007   -19373247.57449 -14490838.21747  21570394.367    21570397.339
 03  3 23  1 47  0.0000000  0  8G 9G14G31G23G17G15G 3G18
  23450116.820    -7908764.93349  -6152668.24145  23450116.422    23450121.671
  20594890.882   -22964547.17149 -17864234.09848  20594890.224    20594893.162
  22515008.680   -10815915.98349  -8401524.06046  22515007.964    22515012.672
  22783693.356   -12192741.78949  -9482619.02746  22783692.578    22783697.215
  22945794.522   -12763665.66149  -9926836.92846  22945793.688    22945800.159
  20684802.440   -25727932.64649 -19547628.95347  20684801.550    20684805.779
  21757263.488   -16875566.37149 -12861771.65847  21757262.950    21757267.606
  21580340.042   -19320986.03449 -14450114.93447  21580339.382    21580342.333
 03  3 23  1 47 30.0000000  0  8G 9G14G31G23G17G15G 3G18
  23451225.907    -7902936.35749  -6148126.44845  23451225.505    23451230.759
  20586074.931   -23010875.15249 -17900333.77148  20586074.267    20586077.168
  22509908.872   -10842715.31649  -8422406.61746  22509908.195    22509912.898
  22794771.207   -12134527.29349  -9437257.07646  22794770.449    22794775.070
  22961463.266   -12681326.05449  -9862676.20545  22961462.431    22961468.908
  20692979.771   -25684960.51949 -19514144.17447  20692978.859    20692983.103
  21761822.225   -16851610.02949 -12843104.37247  21761821.694    21761826.357
  21590311.333   -19268586.34549 -14409283.99947  21590310.689    21590313.638
 03  3 23  1 48  0.0000000  0  8G 9G14G31G23G17G15G 3G18
  23452447.018    -7896519.24149  -6143126.05945  23452446.609    23452451.826
  20577357.877   -23056683.44349 -17936028.49348  20577357.202    20577360.104
  22504917.452   -10868945.10149  -8442845.38046  22504916.810    22504921.490
  22805856.087   -12076275.85049  -9391866.33346  22805855.334    22805859.980
  22977186.509   -12598699.67149  -9798292.02245  22977185.735    22977192.231
  20701235.646   -25641575.56449 -19480337.70947  20701234.723    20701238.984
  21766482.360   -16827120.67149 -12824021.75347  21766481.838    21766486.490
  21600309.115   -19216047.65049 -14368344.75247  21600308.438    21600311.422
 03  3 23  1 48 30.0000000  0  8G 9G14G31G23G17G15G 3G18
  23453779.556    -7889516.35349  -6137669.21445  23453779.127    23453784.339
  20568739.239   -23101974.31549 -17971320.03048  20568738.579    20568741.458
  22500034.006   -10894607.73849  -8462842.20846  22500033.311    22500038.051
  22816947.338   -12017990.79849  -9346449.40546  22816946.586    22816951.263
  22992963.715   -12515789.92349  -9733687.03545  22992962.883    22992969.414
  20709569.510   -25597780.68249 -19446211.82147  20709568.594    20709572.856
  21771243.059   -16802102.89749 -12804527.37947  21771242.552    21771247.189
  21610332.660   -19163373.57949 -14327300.02047  21610331.989    21610334.957
 03  3 23  1 49  0.0000000  0  8G 9G14G31G23G17G15G 3G18
  23455224.513    -7881922.82149  -6131752.13445  23455224.086    23455229.283
  20560220.014   -23146742.90049 -18006204.58948  20560219.347    20560222.226
  22495259.385   -10919698.47449  -8482393.39846  22495258.677    22495263.427
  22828045.731   -11959668.35749  -9301003.33846  22828044.983    22828049.654
  23008795.470   -12432593.63949  -9668858.77445  23008794.683    23008801.140
  20717982.235   -25553571.46549 -19411763.07447  20717981.320    20717985.589
  21776104.963   -16776553.47249 -12784618.72947  21776104.456    21776109.060
  21620382.625   -19110560.65349 -14286147.08747  21620381.951    21620384.936
 03  3 23  1 49 30.0000000  0  8G 9G14G31G23G17G15G 3G18
  23456780.769    -7873744.47749  -6125379.35545  23456780.269    23456785.516
  20551799.176   -23190994.50249 -18040686.31248  20551798.506    20551801.369
  22490592.487   -10944222.76149  -8501503.20446  22490591.797    22490596.549
  22839150.009   -11901314.83149  -9255533.05446  22839149.256    22839153.946
  23024680.445   -12349117.72249  -9603812.62945  23024679.606    23024686.100
  20726472.698   -25508953.92149 -19376996.14747  20726471.782    20726476.043
  21781066.612   -16750479.90849 -12764301.66947  21781066.102    21781070.690
  21630457.750   -19057615.51349 -14244891.13147  21630457.076    21630460.044
 03  3 23  1 50  0.0000000  0  8G 9G14G31G23G17G15G 3G18
  23458449.214    -7864976.77249  -6118547.33045  23458448.714    23458453.958
  20543477.653   -23234724.16349 -18074761.32048  20543476.987    20543479.839
  22486034.327   -10968175.95549  -8520168.01046  22486033.663    22486038.380
  22850260.899   -11842926.55949  -9210035.69746  22850260.174    22850264.855
  23040619.265   -12265358.77049  -9538545.93045  23040618.432    23040624.918
  20735041.543   -25463924.31549 -19341908.13547  20735040.620    20735044.851
  21786128.443   -16723879.64849 -12743574.19147  21786127.938    21786132.549
  21640558.647   -19004534.92249 -14203529.62947  21640557.983    21640560.916
 03  3 23  1 50 30.0000000  0  8G 9G14G31G23G17G15G 3G18
  23460229.628    -7855620.47349  -6111256.66645  23460229.142    23460234.381
  20535255.416   -23277932.14349 -18108429.82748  20535254.749    20535257.629
  22481584.774   -10991558.59849  -8538388.22346  22481584.093    22481588.803
  22861378.164   -11784504.90749  -9164512.32746  22861377.398    22861382.076
  23056611.575   -12181318.60249  -9473060.10145  23056610.770    23056617.192
  20743688.573   -25418483.75749 -19306499.89547  20743687.654    20743691.886
  21791290.045   -16696755.04949 -12722438.13747  21791289.564    21791294.198
  21650684.999   -18951320.51849 -14162063.84847  21650684.343    21650687.250
 03  3 23  1 51  0.0000000  0  8G 9G14G31G23G17G15G 3G18
  23462122.424    -7845673.39649  -6103505.64145  23462121.991    23462127.178
  20527132.917   -23320615.85749 -18141689.81248  20527132.262    20527135.146
  22477244.179   -11014368.28349  -8556161.97746  22477243.528    22477248.187
  22872502.053   -11726048.52249  -9118961.88446  22872501.287    22872505.976
  23072657.608   -12096996.16149  -9407354.31145  23072656.832    23072663.243
  20752414.184   -25372630.37449 -19270769.96747  20752413.283    20752417.476
  21796551.521   -16669105.88049 -12700893.32247  21796551.032    21796555.654
  21660837.055   -18897971.25749 -14120492.98547  21660836.405    21660839.277
 03  3 23  1 51 30.0000000  0  8G 9G14G31G23G17G15G 3G18
  23464127.387    -7835137.23049  -6095295.58645  23464127.013    23464132.094
  20519109.918   -23362776.70149 -18174542.37448  20519109.276    20519112.153
  22473012.358   -11036606.52149  -8573490.45046  22473011.718    22473016.356
  22883632.082   -11667559.65649  -9073386.14346  22883631.342    22883635.981
  23088756.774   -12012394.60949  -9341431.05045  23088755.967    23088762.410
  20761217.982   -25326366.07849 -19234719.85447  20761217.069    20761221.250
  21801912.204   -16640935.33449 -12678942.25247  21801911.720    21801916.344
  21671014.238   -18844489.86549 -14078819.16547  21671013.579    21671016.418
 03  3 23  1 52  0.0000000  0  8G 9G14G31G23G17G15G 3G18
  23466244.643    -7824010.57549  -6086625.40045  23466244.247    23466249.325
  20511186.772   -23404412.86949 -18206986.08748  20511186.131    20511188.996
  22468889.577   -11058271.79749  -8590372.45846  22468888.952    22468893.566
  22894768.497   -11609037.33949  -9027784.32346  22894767.762    22894772.393
  23104909.061   -11927513.88049  -9275290.23545  23104908.244    23104914.684
  20770100.122   -25279690.00949 -19198348.87947  20770099.210    20770103.397
  21807371.949   -16612244.08649 -12656585.43047  21807371.461    21807376.094
  21681216.670   -18790875.76749 -14037041.92947  21681215.997    21681218.848
 03  3 23  1 52 30.0000000  0  8G 9G14G31G23G17G15G 3G18
  23468474.084    -7812294.62249  -6077496.02845  23468473.714    23468478.805
  20503363.290   -23445525.26649 -18239021.67248  20503362.637    20503365.478
  22464875.673   -11079365.01949  -8606808.70846  22464874.991    22464879.596
  22905910.922   -11550483.40949  -8982157.87246  22905910.198    22905914.837
  23121114.135   -11842355.57249  -9208933.11945  23121113.366    23121119.775
  20779060.357   -25232603.54049 -19161658.11347  20779059.447    20779063.675
  21812930.311   -16583034.87649 -12633825.00047  21812929.823    21812934.447
  21691443.979   -18737131.04049 -13995162.90347  21691443.286    21691446.137
 03  3 23  1 53  0.0000000  0  8G 9G14G31G23G17G15G 3G18
  23470815.898    -7799988.09249  -6067906.49545  23470815.523    23470820.622
  20495639.828   -23486112.07749 -18270647.70848  20495639.194    20495642.007
  22460970.850   -11099884.89649  -8622798.19846  22460970.174    22460974.791
  22917059.508   -11491897.21549  -8936506.28446  22917058.810    22917063.427
  23137371.987   -11756919.78549  -9142359.79145  23137371.252    23137377.667
  20788098.836   -25185105.95649 -19124646.99247  20788097.919    20788102.181
  21818587.142   -16553307.99949 -12610661.19547  21818586.657    21818591.231
  21701696.133   -18683255.41649 -13953181.88547  21701695.449    21701698.324
 03  3 23  1 53 30.0000000  0  8G 9G14G31G23G17G15G 3G18
  23473270.252    -7787090.07249  -6057856.04445  23473269.893    23473274.974
  20488016.665   -23526171.97649 -18301863.16348  20488016.022    20488018.820
  22457175.363   -11119830.11849  -8638339.89746  22457174.682    22457179.258
  22928214.287   -11433278.25549  -8890829.15946  22928213.568    22928218.226
  23153682.603   -11671206.70349  -9075570.39645  23153681.930    23153688.321
  20797215.691   -25137196.53749 -19087314.96347  20797214.778    20797219.034
  21824342.354   -16523064.33749 -12587094.69547  21824341.853    21824346.430
  21711973.232   -18629248.70849 -13911098.72247  21711972.574    21711975.447
 03  3 23  1 54  0.0000000  0  8G 9G14G31G23G17G15G 3G18
  23475836.625    -7773603.45249  -6047346.95545  23475836.257    23475841.321
  20480493.303   -23565707.20249 -18332669.78248  20480492.650    20480495.462
  22453488.763   -11139203.20049  -8653435.78046  22453488.104    22453492.704
  22939374.760   -11374629.59549  -8845128.89646  22939374.022    22939378.734
  23170045.343   -11585220.05849  -9008567.82745  23170044.582    23170051.130
  20806410.421   -25088877.97649 -19049664.12647  20806409.512    20806413.741
  21830195.016   -16492308.27149 -12563128.91947  21830194.511    21830199.099
  21722274.595   -18575114.58749 -13868916.27547  21722273.923    21722276.803
 03  3 23  1 54 30.0000000  0  8G 9G14G31G23G17G15G 3G18
  23478515.551    -7759525.66449  -6036377.22245  23478515.112    23478520.183
  20473070.325   -23604714.97649 -18363065.39848  20473069.679    20473072.481
  22449911.507   -11158001.61349  -8668083.86246  22449910.850    22449915.470
  22950541.201   -11315949.32949  -8799404.00746  22950540.452    22950545.158
  23186460.470   -11498958.11149  -8941350.73445  23186459.717    23186466.282
  20815683.361   -25040148.21949 -19011692.87247  20815682.433    20815686.695
  21836145.292   -16461039.12449 -12538763.33847  21836144.782    21836149.393
  21732600.554   -18520851.23949 -13826633.12147  21732599.904    21732602.747
 03  3 23  1 55  0.0000000  0  8G 9G14G31G23G17G15G 3G18
  23481307.384    -7744854.26449  -6024944.93745  23481306.930    23481312.064
  20465748.215   -23643192.63849 -18393047.94648  20465747.568    20465750.363
  22446444.068   -11176222.88549  -8682282.21846  22446443.421    22446448.048
  22961714.030   -11257235.64149  -8753653.07246  22961713.296    22961717.989
  23202928.134   -11412419.90249  -8873918.37345  23202927.378    23202934.012
  20825034.865   -24991005.62249 -18973399.93347  20825033.939    20825038.220
  21842193.310   -16429256.63549 -12513997.75247  21842192.815    21842197.392
  21742951.352   -18466457.14749 -13784248.10547  21742950.699    21742953.506
 03  3 23  1 55 30.0000000  0  8G 9G14G31G23G17G15G 3G18
  23484211.344    -7729593.63249  -6013053.50445  23484210.909    23484216.013
  20458526.306   -23681143.86549 -18422620.28048  20458525.648    20458528.435
  22443085.728   -11193871.06649  -8696034.00346  22443085.055    22443089.729
  22972892.366   -11198493.00649  -8707879.58046  22972891.608    22972896.305
  23219447.379   -11325610.82849  -8806274.93145  23219446.591    23219453.203
  20834464.130   -24941454.44649 -18934788.61747  20834463.201    20834467.474
  21848337.889   -16396966.57249 -12488836.64847  21848337.371    21848341.961
  21753326.152   -18411937.17749 -13741764.98947  21753325.476    21753328.279
 03  3 23  1 56  0.0000000  0  8G 9G14G31G23G17G15G 3G18
  23487227.727    -7713742.17749  -6000701.69645  23487227.271    23487232.430
  20451404.970   -23718566.55949 -18451780.76848  20451404.318    20451407.089
  22439836.727   -11210944.27649  -8709337.76046  22439836.075    22439840.742
  22984076.474   -11139720.11749  -8662082.51746  22984075.705    22984080.391
  23236018.344   -11238529.79149  -8738419.57445  23236017.570    23236024.174
  20843971.418   -24891493.27049 -18895857.82147  20843970.509    20843974.756
  21854579.076   -16364168.96949 -12463280.05847  21854578.570    21854583.153
  21763725.010   -18357290.67549 -13699183.28447  21763724.327    21763727.109
 03  3 23  1 56 30.0000000  0  8G 9G14G31G23G17G15G 3G18
  23490356.754    -7697298.89749  -5987888.72245  23490356.305    23490361.437
  20444384.502   -23755459.25849 -18480528.28148  20444383.838    20444386.595
  22436697.429   -11227441.13949  -8722192.42746  22436696.748    22436701.479
  22995266.502   -11080916.10049  -8616261.21046  22995265.789    22995270.389
  23252641.162   -11151176.48449  -8670352.05345  23252640.412    23252647.004
  20853556.859   -24841121.33949 -18856606.95547  20853555.944    20853560.194
  21860916.706   -16330864.33049 -12437328.38047  21860916.203    21860920.800
  21774148.082   -18302516.97149 -13656502.46847  21774147.412    21774150.178
 03  3 23  1 57  0.0000000  0  8G 9G14G31G23G17G15G 3G18
  23493598.083    -7680265.44649  -5974615.87045  23493597.641    23493602.727
  20437464.642   -23791823.12049 -18508863.70548  20437463.978    20437466.719
  22433667.507   -11243363.20149  -8734599.17946  22433666.816    22433671.545
  23006462.071   -11022082.87949  -8570417.13446  23006461.358    23006465.979
  23269315.208   -11063553.89349  -8602074.70645  23269314.469    23269321.036
  20863220.113   -24790340.50049 -18817037.45947  20863219.194    20863223.436
  21867350.216   -16297055.92249 -12410984.15147  21867349.699    21867354.336
  21784594.911   -18247618.37649 -13613724.32947  21784594.249    21784597.010
 03  3 23  1 57 30.0000000  0  8G 9G14G31G23G17G15G 3G18
  23496951.912    -7662640.65449  -5960882.23045  23496951.489    23496956.578
  20430645.730   -23827656.62549 -18536785.86248  20430645.079    20430647.788
  22430747.233   -11258709.24449  -8746557.09446  22430746.547    22430751.249
  23017663.354   -10963219.71049  -8524549.72746  23017662.623    23017667.285
  23286040.416   -10975662.17249  -8533587.64245  23286039.690    23286046.199
  20872961.356   -24739149.64049 -18777148.46847  20872960.460    20872964.693
  21873879.475   -16262744.44449 -12384247.92047  21873878.959    21873883.590
  21795065.575   -18192594.50249 -13570848.57047  21795064.921    21795067.724
 03  3 23  1 58  0.0000000  0  8G 9G14G31G23G17G15G 3G18
  23500418.417    -7644423.80249  -5946687.24945  23500417.999    23500423.051
  20423927.940   -23862958.77349 -18564293.98048  20423927.280    20423929.960
  22427936.691   -11273478.43049  -8758065.51546  22427936.003    22427940.682
  23028870.413   -10904326.16149  -8478658.65846  23028869.675    23028874.366
  23302816.894   -10887501.21849  -8464890.77645  23302816.186    23302822.613
  20882780.722   -24687548.47549 -18736939.76347  20882779.812    20882784.069
  21880504.273   -16227930.95049 -12357120.51447  21880503.752    21880508.370
  21805560.109   -18137445.24649 -13527875.12147  21805559.465    21805562.271
 03  3 23  1 58 30.0000000  0  8G 9G14G31G23G17G15G 3G18
  23503997.479    -7625615.50149  -5932031.39845  23503997.101    23504002.130
  20417311.331   -23897729.19649 -18591387.76448  20417310.660    20417313.322
  22425235.977   -11287670.71549  -8769124.39246  22425235.303    22425239.991
  23040083.192   -10845402.58449  -8432744.18546  23040082.443    23040087.166
  23319644.292   -10799072.47449  -8395985.25545  23319643.616    23319650.115
  20892678.065   -24635537.51149 -18696411.73247  20892677.161    20892681.398
  21887224.211   -16192617.38649 -12329603.43347  21887223.700    21887228.300
  21816078.444   -18082171.11349 -13484804.35547  21816077.814    21816080.607
 03  3 23  1 59  0.0000000  0  8G 9G14G31G23G17G15G 3G18
  23507688.698    -7606217.75849  -5916916.23545  23507688.327    23507693.351
  20410795.539   -23931969.68149 -18618068.61848  20410794.871    20410797.502
  22422644.661   -11301288.06149  -8779735.27646  22422643.997    22422648.635
  23051301.269   -10786451.14149  -8386808.00046  23051300.566    23051305.240
  23336522.195   -10710378.70849  -8326873.21645  23336521.392    23336528.011
  20902653.014   -24583118.93549 -18655566.08247  20902652.095    20902656.329
  21894038.603   -16156807.52549 -12301699.64047  21894038.093    21894042.684
  21826619.994   -18026774.98449 -13441638.53847  21826619.346    21826622.145
 03  3 23  1 59 30.0000000  0  8G 9G14G31G23G17G15G 3G18
  23511492.394    -7586229.10649  -5901340.63045  23511492.053    23511496.974
  20404380.979   -23965678.12649 -18644334.88848  20404380.311    20404382.919
  22420163.088   -11314328.73349  -8789896.79446  22420162.405    22420167.042
  23062524.956   -10727470.49649  -8340849.05946  23062524.266    23062528.874
  23353450.604   -10621419.27849  -8257554.17145  23353449.883    23353456.436
  20912705.733   -24530291.53649 -18614401.85947  20912704.816    20912709.040
  21900947.361   -16120501.59149 -12273409.29147  21900946.850    21900951.454
  21837184.906   -17971255.78749 -13398376.82547  21837184.242    21837187.114
 03  3 23  2  0  0.0000000  0  8G 9G14G31G23G17G15G 3G18
  23515408.511    -7565649.73949  -5885304.72145  23515408.142    23515413.032
  20398067.749   -23998854.25549 -18670186.37248  20398067.082    20398069.675
  22417791.215   -11326792.82549  -8799609.04146  22417790.547    22417795.164
  23073754.127   -10668461.00649  -8294867.63646  23073753.403    23073758.006
  23370429.356   -10532195.26449  -8188028.95245  23370428.609    23370435.087
  20922836.186   -24477055.52249 -18572919.24347  20922835.273    20922839.488
  21907950.181   -16083701.37549 -12244733.78547  21907949.692    21907954.295
  21847773.147   -17915614.03449 -13355019.61147  21847772.492    21847775.387
 03  3 23  2  0 30.0000000  0  8G 9G14G31G23G17G15G 3G18
  23519437.134    -7544479.02149  -5868808.01945  23519436.763    23519441.665
  20391855.990   -24031497.01749 -18695622.24448  20391855.322    20391857.892
  22415529.337   -11338679.35149  -8808871.23146  22415528.563    22415533.188
  23084988.900   -10609421.92349  -8248863.14546  23084988.175    23084992.727
  23387458.408   -10442707.01149  -8118297.82745  23387457.641    23387464.077
  20933044.511   -24423410.42749 -18531117.86547  20933043.585    20933047.797
  21915046.936   -16046407.77849 -12215673.83047  21915046.419    21915051.027
  21858384.779   -17859849.62449 -13311566.81147  21858384.116    21858386.996
 03  3 23  2  1  0.0000000  0  8G 9G14G31G23G17G15G 3G18
  23523577.808    -7522719.59549  -5851852.60045  23523577.426    23523582.286
  20385745.340   -24063608.54849 -18720644.16948  20385744.673    20385747.229
  22413376.753   -11349990.82749  -8817685.34046  22413376.033    22413380.623
  23096228.825   -10550355.76249  -8202837.56546  23096228.084    23096232.607
  23404537.132   -10352957.61049  -8048363.22245  23404536.356    23404542.777
  20943330.155   -24369358.94749 -18488999.82547  20943329.235    20943333.444
  21922236.677   -16008625.24749 -12186232.88747  21922236.162    21922240.729
  21869019.179   -17803965.45549 -13268020.69447  21869018.504    21869021.403
 03  3 23  2  1 30.0000000  0  8G 9G14G31G23G17G15G 3G18
  23527830.471    -7500371.60649  -5834438.55145  23527830.042    23527834.956
  20379735.861   -24095188.41649 -18745251.81148  20379735.193    20379737.735
  22411333.642   -11360727.19549  -8826051.29846  22411332.967    22411337.527
  23107473.849   -10491262.80549  -8156791.11446  23107473.129    23107477.654
  23421665.360   -10262948.29349  -7978226.06945  23421664.599    23421670.985
  20953693.045   -24314901.57149 -18446565.50247  20953692.121    20953696.361
  21929519.130   -15970355.63549 -12156412.40347  21929518.620    21929523.197
  21879676.236   -17747962.22349 -13224381.80147  21879675.556    21879678.455
 03  3 23  2  2  0.0000000  0  8G 9G14G31G23G17G15G 3G18
  23532195.897    -7477431.00549  -5816562.73545  23532195.421    23532200.382
  20373828.395   -24126232.16049 -18769441.69348  20373827.733    20373830.264
  22409400.891   -11370883.97549  -8833965.63446  22409400.175    22409404.719
  23118724.805   -10432138.61149  -8110720.30346  23118724.050    23118728.605
  23438843.687   -10172675.55949  -7907883.66945  23438842.887    23438849.273
  20964133.993   -24260033.89649 -18403811.46647  20964133.083    20964137.317
  21936894.786   -15931596.26749 -12126210.29147  21936894.284    21936898.860
  21890356.701   -17691835.75349 -13180646.87247  21890356.022    21890358.922
 03  3 23  2  2 30.0000000  0  8G 9G14G31G23G17G15G 3G18
  23536673.193    -7453902.46849  -5798228.77645  23536672.751    23536677.596
  20368022.154   -24156743.85549 -18793216.99448  20368021.502    20368024.024
  22407577.538   -11380465.77549  -8841431.94446  22407576.797    22407581.320
  23129980.818   -10372987.89549  -8064628.83046  23129980.048    23129984.596
  23456071.105   -10082144.42749  -7837339.91245  23456070.281    23456076.651
  20974652.053   -24204761.00049 -18360741.67047  20974651.141    20974655.387
  21944362.431   -15892353.32749 -12095631.36647  21944361.944    21944366.504
  21901059.699   -17635591.06749 -13136819.83147  21901059.032    21901061.942
 03  3 23  2  3  0.0000000  0  8G 9G14G31G23G17G15G 3G18
  23541262.738    -7429784.15649  -5779435.23145  23541262.303    23541267.155
  20362317.646   -24186721.07149 -18816575.80848  20362316.981    20362319.495
  22405864.045   -11389470.44649  -8848448.52946  22405863.284    22405867.751
  23141242.229   -10313808.59649  -8018515.06546  23141241.452    23141246.072
  23473347.830    -9991354.45149  -7766594.44845  23473347.020    23473353.364
  20985247.638   -24149080.90249 -18317354.57347  20985246.716    20985250.968
  21951922.132   -15852626.78249 -12064675.59847  21951921.631    21951926.228
  21911785.509   -17579226.53349 -13092899.39447  21911784.847    21911787.745
 03  3 23  2  3 30.0000000  0  8G 9G14G31G23G17G15G 3G18
  23545964.401    -7405076.54549  -5760182.52245  23545964.018    23545968.827
  20356714.805   -24216163.86849 -18839518.20348  20356714.150    20356716.649
  22404260.176   -11397898.34449  -8855015.68946  22404259.454    22404263.940
  23152509.018   -10254601.09249  -7972379.33746  23152508.242    23152512.877
  23490673.626    -9900306.64249  -7695648.08845  23490672.816    23490679.117
  20995920.557   -24092994.22249 -18273650.66747  20995919.627    20995923.901
  21959573.431   -15812418.79749 -12033344.69347  21959572.944    21959577.523
  21922533.963   -17522742.84049 -13048886.11247  21922533.296    21922536.209
 03  3 23  2  4  0.0000000  0  8G 9G14G31G23G17G15G 3G18
  23550777.954    -7379780.71849  -5740471.44345  23550777.636    23550782.436
  20351213.641   -24245072.52649 -18862044.38548  20351212.978    20351215.486
  22402765.959   -11405750.15749  -8861133.95246  22402765.308    22402769.774
  23163781.040   -10195366.08849  -7926222.18246  23163780.279    23163784.942
  23508048.179    -9809002.76249  -7624502.18745  23508047.367    23508053.713
  21006670.690   -24036501.87449 -18229630.65147  21006669.765    21006674.020
  21967315.923   -15771731.78149 -12001640.51647  21967315.424    21967319.973
  21933304.921   -17466141.12649 -13004780.86647  21933304.279    21933307.162
 03  3 23  2  4 30.0000000  0  8G 9G14G31G23G17G15G 3G18
  23555703.242    -7353897.98449  -5720303.04045  23555702.886    23555707.715
  20345813.928   -24273447.90649 -18884155.02248  20345813.277    20345815.752
  22401381.247   -11413026.93749  -8866804.13346  22401380.527    22401385.026
  23175058.111   -10136104.56549  -7880044.36846  23175057.392    23175062.008
  23525471.062    -9717444.38149  -7553157.97445  23525470.356    23525476.693
  21017497.770   -23979605.14549 -18185295.52047  21017496.860    21017501.112
  21975149.103   -15730568.26149 -11969565.02947  21975148.591    21975153.118
  21944098.013   -17409422.88049 -12960584.81747  21944097.338    21944100.256
 03  3 23  2  5  0.0000000  0  8G 9G14G31G23G17G15G 3G18
  23560740.256    -7327428.08849  -5699677.11145  23560739.869    23560744.704
  20340515.896   -24301289.06349 -18905849.38648  20340515.254    20340517.697
  22400106.013   -11419728.05649  -8872025.76146  22400105.340    22400109.823
  23186340.346   -10076815.98949  -7833845.47546  23186339.611    23186344.203
  23542942.288    -9625632.16649  -7481615.96445  23542941.621    23542947.959
  21028401.891   -23922303.67649 -18140645.01947  21028400.991    21028405.220
  21983072.666   -15688929.68549 -11937119.37847  21983072.156    21983076.667
  21954913.333   -17352587.86249 -12916297.77547  21954912.680    21954915.576
 03  3 23  2  5 30.0000000  0  8G 9G14G31G23G17G15G 3G18
  23565889.270    -7300369.68149  -5678592.60445  23565888.965    23565893.775
  20335319.867   -24328594.25549 -18927126.10848  20335319.232    20335321.645
  22398940.617   -11425852.07149  -8876797.68446  22398939.966    22398944.420
  23197628.008   -10017498.72349  -7787624.21146  23197627.277    23197631.924
  23560461.914    -9533565.37149  -7409875.57545  23560461.192    23560467.771
  21039383.260   -23864596.05149 -18095678.02147  21039382.349    21039386.588
  21991086.570   -15646816.24449 -11904303.69347  21991086.038    21991090.600
  21965751.180   -17295634.50649 -12871918.51147  21965750.547    21965753.417
 03  3 23  2  6  0.0000000  0  8G 9G14G31G23G17G15G 3G18
  23571149.780    -7272725.29549  -5657051.49645  23571149.433    23571154.305
  20330225.490   -24355365.27349 -18947986.59848  20330224.838    20330227.226
  22397884.625   -11431401.17949  -8881121.64046  22397883.997    22397888.437
  23208920.737    -9958154.87049  -7741382.23946  23208920.019    23208924.657
  23578029.498    -9441247.10249  -7337939.23645  23578028.741    23578035.257
  21050441.456   -23806484.72749 -18050396.46547  21050440.543    21050444.791
  21999190.004   -15604232.21949 -11871121.32647  21999189.458    21999194.046
  21976611.057   -17238565.49749 -12827449.14447  21976610.409    21976613.248
 03  3 23  2  6 30.0000000  0  8G 9G14G31G23G17G15G 3G18
  23576521.725    -7244495.08649  -5635053.89245  23576521.393    23576526.274
  20325232.822   -24381601.81049 -18968430.61248  20325232.175    20325234.550
  22396938.066   -11436375.25249  -8884997.52246  22396937.413    22396941.829
  23220218.631    -9898784.08149  -7695119.27946  23220217.877    23220222.569
  23595644.848    -9348677.94449  -7265807.39045  23595643.975    23595650.615
  21061576.465   -23747969.89949 -18004800.48647  21061575.555    21061579.782
  22007382.758   -15561178.87849 -11837573.26147  22007382.216    22007386.812
  21987492.922   -17181380.99349 -12782889.78647  21987492.246    21987495.078
 03  3 23  2  7  0.0000000  0  8G 9G14G31G23G17G15G 3G18
  23582005.340    -7215678.47149  -5612599.34745  23582004.938    23582009.786
  20320342.055   -24407302.85249 -18988457.35048  20320341.391    20320343.757
  22396101.085   -11440773.56049  -8888424.74646  22396100.402    22396104.802
  23231521.811    -9839385.40449  -7648834.58946  23231521.062    23231525.741
  23613307.832    -9255858.51349  -7193480.52245  23613306.928    23613313.530
  21072788.329   -23689051.10049 -17958889.71647  21072787.433    21072791.619
  22015664.590   -15517657.40049 -11803660.40747  22015664.063    22015668.678
  21998396.846   -17124080.33649 -12738239.91047  21998396.197    21998399.004
 03  3 23  2  7 30.0000000  0  8G 9G14G31G23G17G15G 3G18
  23587599.926    -7186278.60149  -5589690.30845  23587599.505    23587604.316
  20315552.667   -24432471.08949 -19008068.92148  20315552.016    20315554.373
  22395373.076   -11444599.23749  -8891405.77246  22395372.376    22395376.763
  23242829.747    -9779961.92349  -7602530.58046  23242829.005    23242833.646
  23631017.763    -9162792.45949  -7120961.47445  23631016.807    23631023.341
  21084076.419   -23629731.68849 -17912666.78847  21084075.518    21084079.729
  22024034.541   -15473672.80149 -11769386.68447  22024034.009    22024038.649
  22009322.232   -17066667.05349 -12693502.28647  22009321.584    22009324.382
 03  3 23  2  8  0.0000000  0  8G 9G14G31G23G17G15G 3G18
  23593305.949    -7156292.90849  -5566324.79845  23593305.455    23593310.409
  20310865.282   -24457103.22849 -19027262.75248  20310864.621    20310866.964
  22394754.539   -11447849.30349  -8893938.26746  22394753.885    22394758.254
  23254143.022    -9720510.25049  -7556204.59846  23254142.272    23254146.938
  23648774.985    -9069477.47649  -7048248.45845  23648774.135    23648780.543
  21095441.348   -23570008.63949 -17866129.33747  21095440.460    21095444.640
  22032492.912   -15429223.70349 -11734751.01547  22032492.373    22032497.044
  22020269.623   -17009138.20149 -12648674.59947  22020268.945    22020271.742
 03  3 23  2  8 30.0000000  0  8G 9G14G31G23G17G15G 3G18
  23599122.953    -7125724.27449  -5542505.05045  23599122.567    23599127.392
  20306279.503   -24481201.59549 -19046040.66248  20306278.846    20306281.165
  22394245.084   -11450526.43049  -8896024.31946  22394244.417    22394248.792
  23265461.211    -9661032.80249  -7509858.54046  23265460.477    23265465.101
  23666578.967    -8975916.85549  -6975344.03345  23666578.069    23666584.426
  21106882.557   -23509884.56749 -17819279.39747  21106881.670    21106885.860
  22041038.831   -15384314.49749 -11699756.81847  22041038.327    22041042.984
  22031238.462   -16951496.45449 -12603758.94947  22031237.821    22031240.585
 03  3 23  2  9  0.0000000  0  8G 9G14G31G23G17G15G 3G18
  23605050.814    -7094572.89249  -5518231.21945  23605050.414    23605055.254
  20301795.424   -24504765.44649 -19064402.06548  20301794.770    20301797.076
  22393844.676   -11452630.37149  -8897663.73746  22393843.995    22393848.377
  23276784.410    -9601529.05049  -7463491.96746  23276783.678    23276788.282
  23684429.556    -8882111.33249  -6902248.78645  23684428.731    23684435.000
  21118400.072   -23449359.56749 -17772117.04647  21118399.176    21118403.346
  22049672.005   -15338946.85049 -11664405.40047  22049671.490    22049676.131
  22042228.833   -16893741.52749 -12558755.10447  22042228.183    22042230.986
 03  3 23  2  9 30.0000000  0  8G 9G14G31G23G17G15G 3G18
  23611089.701    -7062838.03849  -5493502.72845  23611089.253    23611094.089
  20297413.257   -24527793.61349 -19082346.05248  20297412.634    20297414.920
  22393553.554   -11454160.27749  -8898855.84946  22393552.856    22393557.243
  23288112.846    -9541997.77849  -7417103.96246  23288112.095    23288116.693
  23702326.780    -8788060.79449  -6828962.60345  23702325.991    23702332.184
  21129994.038   -23388432.90649 -17724641.71647  21129993.130    21129997.303
  22058392.311   -15293121.40549 -11628697.24747  22058391.773    22058396.400
  22053240.968   -16835872.38949 -12513662.26347  22053240.319    22053243.130
 03  3 23  2 10  0.0000000  0  8G 9G14G31G23G17G15G 3G18
  23617239.081    -7030522.63049  -5468321.86445  23617238.586    23617243.531
  20293132.616   -24550288.38849 -19099874.41148  20293131.977    20293134.242
  22393371.211   -11455118.65849  -8899602.61446  22393370.492    22393374.873
  23299446.115    -9482441.19449  -7370696.23546  23299445.380    23299449.931
  23720270.035    -8693768.35049  -6755487.92145  23720269.289    23720275.508
  21141663.908   -23327107.19149 -17676855.43847  21141663.001    21141667.185
  22067198.788   -15246842.80249 -11592635.99547  22067198.267    22067202.902
  22064274.212   -16777892.17749 -12468482.87047  22064273.561    22064276.379
 03  3 23  2 10 30.0000000  0  8G 9G14G31G23G17G15G 3G18
  23623499.060    -6997625.81949  -5442687.95245  23623498.642    23623503.525
  20288953.802   -24572248.22049 -19116985.93348  20288953.150    20288955.402
  22393297.774   -11455504.30949  -8899903.10546  22393297.073    22393301.446
  23310784.476    -9422857.61949  -7324267.46846  23310783.760    23310788.295
  23738259.379    -8599233.55249  -6681824.39745  23738258.566    23738264.780
  21153409.893   -23265381.41449 -17628757.42447  21153409.000    21153413.228
  22076091.527   -15200111.19349 -11556221.74647  22076091.020    22076095.642
  22075328.888   -16719799.47349 -12423215.82347  22075328.248    22075331.057
 03  3 23  2 11  0.0000000  0  8G 9G14G31G23G17G15G 3G18
  23629869.527    -6964148.75549  -5416601.89745  23629869.072    23629873.929
  20284876.638   -24593673.72849 -19133681.08948  20284875.993    20284878.224
  22393333.205   -11455318.31949  -8899758.14446  22393332.479    22393336.823
  23322127.831    -9363247.78249  -7277818.23946  23322127.097    23322131.658
  23756294.412    -8504458.30949  -6607973.52445  23756293.580    23756299.873
  21165231.857   -23203256.72949 -17580348.56847  21165230.975    21165235.191
  22085069.911   -15152929.33649 -11519456.65347  22085069.415    22085074.030
  22086404.834   -16661595.08049 -12377861.73647  22086404.171    22086406.980
 03  3 23  2 11 30.0000000  0  8G 9G14G31G23G17G15G 3G18
  23636350.456    -6930091.33649  -5390063.62045  23636350.055    23636354.835
  20280901.231   -24614564.34049 -19149959.45448  20280900.595    20280902.810
  22393477.361   -11454560.46049  -8899167.57746  22393476.649    22393481.007
  23333476.326    -9303610.86349  -7231347.90946  23333475.601    23333480.130
  23774375.135    -8409443.33749  -6533935.84545  23774374.333    23774380.508
  21177129.777   -23140732.77349 -17531628.60047  21177128.879    21177133.054
  22094133.755   -15105298.52949 -11482341.73447  22094133.270    22094137.824
  22097502.074   -16603278.66649 -12332420.36547  22097501.418    22097504.190
 03  3 23  2 12  0.0000000  0  8G 9G14G31G23G17G15G 3G18
  23642941.212    -6895456.66349  -5363075.53645  23642940.772    23642945.511
  20277027.255   -24634922.26349 -19165822.72948  20277026.597    20277028.800
  22393729.875   -11453233.22449  -8898133.33746  22393729.144    22393733.538
  23344829.651    -9243948.79149  -7184857.97346  23344828.941    23344833.395
  23792500.968    -8314191.27149  -6459713.41745  23792500.165    23792506.430
  21189103.152   -23077812.25349 -17482599.61447  21189102.250    21189106.417
  22103282.215   -15057223.21749 -11444880.43847  22103281.707    22103286.248
  22108620.141   -16544852.69549 -12286893.62247  22108619.501    22108622.210
 03  3 23  2 12 30.0000000  0  8G 9G14G31G23G17G15G 3G18
  23649641.883    -6860244.39249  -5335637.36945  23649641.444    23649646.198
  20273254.792   -24654746.64149 -19181270.25848  20273254.128    20273256.308
  22394090.834   -11451336.15549  -8896655.07646  22394090.144    22394094.538
  23356187.943    -9184260.68449  -7138347.75646  23356187.238    23356191.679
  23810671.786    -8218702.56949  -6385306.59345  23810671.046    23810677.272
  21201152.089   -23014494.76849 -17433261.31447  21201151.188    21201155.352
  22112515.034   -15008704.44049 -11407073.59147  22112514.515    22112519.052
  22119759.219   -16486316.66649 -12241281.11647  22119758.560    22119761.238
 03  3 23  2 13  0.0000000  0  8G 9G14G31G23G17G15G 3G18
  23656452.568    -6824453.74749  -5307748.51945  23656452.199    23656456.958
  20269584.079   -24674036.14749 -19196301.00048  20269583.420    20269585.571
  22394560.463   -11448868.36149  -8894732.08646  22394559.749    22394564.142
  23367551.454    -9124545.03949  -7091816.06946  23367550.751    23367555.170
  23828887.793    -8122976.73249  -6310714.99345  23828887.065    23828893.285
  21213276.709   -22950779.34049 -17383612.92647  21213275.815    21213279.945
  22121832.105   -14959742.84349 -11368921.68747  22121831.605    22121836.099
  22130919.392   -16427669.46849 -12195581.98247  22130918.724    22130921.370
 03  3 23  2 13 30.0000000  0  8G 9G14G31G23G17G15G 3G18
  23663372.882    -6788087.12849  -5279410.85445  23663372.518    23663377.284
  20266014.825   -24692792.41049 -19210916.23148  20266014.190    20266016.315
  22395138.261   -11445831.76049  -8892365.86846  22395137.559    22395141.928
  23378919.894    -9064803.41049  -7045264.14946  23378919.201    23378923.605
  23847148.338    -8027016.87849  -6235941.03245  23847147.454    23847153.763
  21225476.632   -22886668.18849 -17333656.18647  21225475.729    21225479.898
  22131232.757   -14910342.21649 -11330427.68047  22131232.247    22131236.722
  22142100.403   -16368912.86349 -12149797.59747  22142099.733    22142102.365
 03  3 23  2 14  0.0000000  0  8G 9G14G31G23G17G15G 3G18
  23670402.389    -6751146.70949  -5250626.07745  23670402.012    23670406.796
  20262546.778   -24711016.99649 -19225117.16648  20262546.131    20262548.262
  22395823.895   -11442228.35449  -8889557.98446  22395823.204    22395827.576
  23390293.040    -9005037.07249  -6998692.96646  23390292.348    23390296.790
  23865452.976    -7930825.26349  -6160986.48245  23865452.092    23865458.499
  21237751.491   -22822163.31849 -17283392.64047  21237750.581    21237754.769
  22140716.218   -14860506.25549 -11291594.44447  22140715.711    22140720.174
  22153301.892   -16310048.27949 -12103929.07747  22153301.229    22153303.883
 03  3 23  2 14 30.0000000  0  8G 9G14G31G23G17G15G 3G18
  23677541.435    -6713630.53849  -5221392.66845  23677541.050    23677545.880
  20259180.382   -24728707.38749 -19238901.84648  20259179.732    20259181.856
  22396617.835   -11438056.01449  -8886306.77946  22396617.174    22396621.514
  23401671.424    -8945243.12349  -6952100.27746  23401670.731    23401675.209
  23883801.968    -7834400.54949  -6085850.29745  23883801.048    23883807.492
  21250101.692   -22757262.49949 -17232820.57447  21250100.791    21250104.969
  22150282.600   -14810234.49049 -11252421.62647  22150282.089    22150286.570
  22164524.398   -16251073.39649 -12057974.60647  22164523.739    22164526.432
 03  3 23  2 15  0.0000000  0  8G 9G14G31G23G17G15G 3G18
  23684789.308    -6675542.36649  -5191713.54645  23684788.932    23684793.831
  20255915.119   -24745866.34949 -19252272.42948  20255914.472    20255916.574
  22397519.416   -11433317.95549  -8882614.75146  22397518.780    22397523.139
  23413054.581    -8885423.99849  -6905487.96846  23413053.870    23413058.387
  23902194.600    -7737746.18849  -6010535.15945  23902193.835    23902200.120
  21262526.638   -22691968.94449 -17181942.48447  21262525.740    21262529.914
  22159931.035   -14759531.59549 -11212912.86347  22159930.539    22159935.014
  22175767.341   -16191991.21849 -12011936.54047  22175766.686    22175769.385
 03  3 23  2 15 30.0000000  0  8G 9G14G31G23G17G15G 3G18
  23692146.421    -6636880.41449  -5161587.32145  23692146.019    23692150.875
  20252751.395   -24762491.57349 -19265227.11048  20252750.752    20252752.834
  22398529.032   -11428012.24749  -8878480.40246  22398528.371    22398532.734
  23424443.025    -8825577.13349  -6858854.04146  23424442.316    23424446.827
  23920631.170    -7640861.05949  -5935040.20745  23920630.382    23920636.888
  21275026.758   -22626280.50849 -17130756.69847  21275025.836    21275030.027
  22169661.550   -14708397.31549 -11173067.95147  22169661.033    22169665.520
  22187031.126   -16132799.50849 -11965813.12247  22187030.478    22187033.209
 03  3 23  2 16  0.0000000  0  8G 9G14G31G23G17G15G 3G18
  23699612.142    -6597647.64949  -5131016.30545  23699611.700    23699616.610
  20249688.863   -24778585.05049 -19277767.44448  20249688.213    20249690.304
  22399646.191   -11422141.45049  -8873905.72546  22399645.498    22399649.870
  23435836.398    -8765704.29149  -6812199.86546  23435835.679    23435840.227
  23939111.089    -7543748.09049  -5859367.71445  23939110.299    23939116.748
  21287601.488   -22560199.65449 -17079265.11847  21287600.571    21287604.808
  22179473.422   -14656835.53049 -11132889.92247  22179472.930    22179477.401
  22198315.352   -16073500.35449 -11919605.97647  22198314.707    22198317.485
 03  3 23  2 16 30.0000000  0  8G 9G14G31G23G17G15G 3G18
  23707186.283    -6557845.26749  -5100001.42645  23707185.817    23707190.699
  20246727.305   -24794147.79149 -19289894.21548  20246726.663    20246728.758
  22400870.690   -11415706.66449  -8868891.57346  22400870.001    22400874.347
  23447234.666    -8705805.95049  -6765525.82146  23447233.928    23447238.511
  23957634.013    -7446409.08149  -5783519.08745  23957633.196    23957639.593
  21300250.658   -22493727.66349 -17027468.75747  21300249.744    21300253.971
  22189366.096   -14604849.15249 -11092381.03947  22189365.582    22189370.074
  22209619.870   -16014094.62449 -11873315.78647  22209619.241    22209622.004
 03  3 23  2 17  0.0000000  0  8G 9G14G31G23G17G15G 3G18
  23714868.787    -6517473.33049  -5068542.74345  23714868.338    23714873.224
  20243866.846   -24809179.40249 -19301607.12248  20243866.203    20243868.296
  22402202.460   -11408707.99049  -8863438.02546  22402201.788    22402206.118
  23458637.965    -8645881.21249  -6718831.20246  23458637.204    23458641.816
  23976199.829    -7348844.71749  -5707494.85945  23976199.073    23976205.499
  21312974.278   -22426864.55549 -16975367.63147  21312973.376    21312977.583
  22199339.221   -14552439.87649 -11051542.62347  22199338.718    22199343.205
  22220944.749   -15954581.93949 -11826942.25647  22220944.100    22220946.875
 03  3 23  2 17 30.0000000  0  8G 9G14G31G23G17G15G 3G18
  23722659.620    -6476532.13749  -5036640.48445  23722659.195    23722663.988
  20241107.617   -24823679.13749 -19312905.58248  20241106.983    20241109.068
  22403641.595   -11401145.15149  -8857544.88146  22403640.942    22403645.263
  23470046.474    -8585929.13549  -6672115.28446  23470045.686    23470050.331
  23994808.562    -7251054.85449  -5631294.91845  23994807.880    23994814.117
  21325772.435   -22359609.94549 -16922961.44147  21325771.526    21325775.723
  22209392.579   -14499608.91649 -11010375.62847  22209392.078    22209396.547
  22232290.171   -15894961.33649 -11780484.63546  22232289.526    22232292.281
 03  3 23  2 18  0.0000000  0  8G 9G14G31G23G17G15G 3G18
  23730558.300    -6435024.24949  -5004296.64845  23730557.846    23730562.653
  20238449.190   -24837648.97549 -19323791.14148  20238448.554    20238450.645
  22405187.643   -11393020.62649  -8851214.06046  22405187.022    22405191.282
  23481459.883    -8525951.13249  -6625379.15846  23481459.134    23481463.722
  24013459.562    -7153042.78949  -5554921.82945  24013458.778    24013464.993
  21338644.601   -22291966.14249 -16870251.98847  21338643.684    21338647.883
  22219525.479   -14446360.07049 -10968883.01247  22219524.973    22219529.456
  22243655.764   -15835234.83749 -11733944.49046  22243655.118    22243657.849
 03  3 23  2 18 30.0000000  0  8G 9G14G31G23G17G15G 3G18
  23738564.660    -6392950.40649  -4971511.80545  23738564.224    23738569.074
  20235891.619   -24851088.93049 -19334263.79848  20235890.974    20235893.067
  22406840.491   -11384334.76049  -8844445.82546  22406839.857    22406844.113
  23492878.333    -8465946.67849  -6578622.41646  23492877.619    23492882.198
  24032152.743    -7054809.30949  -5478376.20045  24032151.937    24032158.317
  21351590.786   -22223933.52749 -16817239.56147  21351589.882    21351594.070
  22229737.456   -14392695.55249 -10927066.49047  22229736.953    22229741.458
  22255041.470   -15775402.40949 -11687321.80646  22255040.826    22255043.534
 03  3 23  2 19  0.0000000  0  8G 9G14G31G23G17G15G 3G18
  23746678.459    -6350312.04049  -4938287.07845  23746678.037    23746682.804
  20233434.813   -24863999.53849 -19344323.98048  20233434.165    20233436.231
  22408599.949   -11375088.44949  -8837240.88746  22408599.280    22408603.583
  23504301.825    -8405915.79349  -6531845.09546  23504301.081    23504305.682
  24050887.788    -6956355.46649  -5401658.87145  24050887.038    24050893.218
  21364610.782   -22155512.96549 -16763924.83347  21364609.868    21364614.075
  22240028.142   -14338617.63049 -10884927.83147  22240027.649    22240032.127
  22266447.263   -15715464.51649 -11640616.94046  22266446.600    22266449.338
 03  3 23  2 19 30.0000000  0  8G 9G14G31G23G17G15G 3G18
  23754899.377    -6307110.82349  -4904623.77345  23754898.936    23754903.700
  20231078.505   -24876381.85149 -19353972.50448  20231077.856    20231079.903
  22410465.743   -11365283.42949  -8829600.58946  22410465.078    22410469.399
  23515730.229    -8345859.20349  -6485047.72346  23515729.439    23515734.098
  24069664.459    -6857683.43149  -5324771.50945  24069663.579    24069669.741
  21377704.263   -22086706.08749 -16710309.07947  21377703.344    21377707.565
  22250396.850   -14284129.69849 -10842469.69547  22250396.361    22250400.854
  22277872.884   -15655422.21049 -11593830.72446  22277872.260    22277874.974
 03  3 23  2 20  0.0000000  0  8G 9G14G31G23G17G15G 3G18
  23763227.547    -6263345.86649  -4870521.18945  23763227.120    23763231.920
  20228822.943   -24888234.55749 -19363208.34348  20228822.298    20228824.347
  22412438.096   -11354918.47249  -8821523.97846  22412437.442    22412441.756
  23527163.890    -8285774.67849  -6438228.60246  23527163.134    23527167.808
  24088482.808    -6758792.14349  -5247713.30845  24088481.901    24088488.129
  21390871.565   -22017511.45449 -16656391.17847  21390870.648    21390874.877
  22260843.538   -14229231.89549 -10799692.17047  22260843.049    22260847.573
  22289318.779   -15595273.57349 -11546961.63946  22289318.156    22289320.900
 03  3 23  2 20 30.0000000  0  8G 9G14G31G23G17G15G 3G18
  23771662.771    -6219018.48949  -4835980.35645  23771662.341    23771667.122
  20226668.109   -24899558.27549 -19372031.99048  20226667.460    20226669.496
  22414516.814   -11343994.81749  -8813012.01946  22414516.143    22414520.448
  23538602.851    -8225662.49549  -6391387.91846  23538602.125    23538606.806
  24107342.444    -6659683.93649  -5170486.07445  24107341.545    24107347.840
  21404112.454   -21947930.05949 -16602171.90147  21404111.542    21404115.759
  22271367.687   -14173926.91849 -10756597.37047  22271367.173    22271371.729
  22300784.838   -15535019.11849 -11500010.10346  22300784.198    22300786.929
 03  3 23  2 21  0.0000000  0  9G 9G14G25G31G23G17G15G 3G18
  23780203.790    -6174135.03349  -4801006.21745  23780203.298    23780208.098
  20224612.883   -24910358.43549 -19380447.67148  20224612.222    20224614.256
  24537730.839    -5226991.59559  -4036015.32545  24537730.544    24537737.352
  22416700.714   -11332518.30749  -8804069.26647  22416700.031    22416704.326
  23550046.126    -8165527.43149  -6344529.40946  23550045.383    23550050.073
  24126242.308    -6560364.23449  -5093094.04545  24126241.360    24126247.684
  21417425.826   -21877967.70249 -16547655.77447  21417424.905    21417429.139
  22281967.882   -14118222.24649 -10713191.12747  22281967.385    22281971.947
  22312269.946   -15474664.41149 -11452980.45246  22312269.327    22312272.042
 03  3 23  2 21 30.0000000  0  9G 9G14G25G31G23G17G15G 3G18
  23788851.148    -6128692.76649  -4765596.63845  23788850.722    23788855.473
  20222657.952   -24920631.49549 -19388452.61948  20222657.286    20222659.325
  24519089.893    -5324949.29649  -4112345.71645  24519089.488    24519096.288
  22418990.357   -11320485.88449  -8794693.33447  22418989.696    22418994.004
  23561494.573    -8105365.41549  -6297649.89346  23561493.838    23561498.501
  24145182.787    -6460831.28849  -5015535.86445  24145182.048    24145188.334
  21430812.308   -21807621.25149 -16492840.35247  21430811.378    21430815.574
  22292644.471   -14062116.27349 -10669472.17947  22292643.974    22292648.551
  22323774.969   -15414205.27349 -11405869.41446  22323774.322    22323777.061
 03  3 23  2 22  0.0000000  0  9G 9G14G25G31G23G17G15G 3G18
  23797604.903    -6082691.35549  -4729751.37745  23797604.482    23797609.257
  20220803.548   -24930376.36849 -19396045.99748  20220802.880    20220804.924
  24500438.391    -5422962.28149  -4188719.21445  24500438.010    24500444.802
  22421385.908   -11307896.86649  -8784883.69346  22421385.258    22421389.582
  23572948.443    -8045174.65449  -6250747.98946  23572947.778    23572952.372
  24164164.008    -6361084.34749  -4937810.92145  24164163.328    24164169.403
  21444272.064   -21736889.82549 -16437724.94447  21444271.140    21444275.320
  22303397.294   -14005609.73049 -10625441.10146  22303396.780    22303401.388
  22335300.101   -15353640.40549 -11358675.99346  22335299.444    22335302.203
 03  3 23  2 22 30.0000000  0  9G 9G14G25G31G23G17G15G 3G18
  23806464.580    -6036133.53149  -4693472.52845  23806464.188    23806468.906
  20219049.227   -24939595.04749 -19403229.35348  20219048.564    20219050.601
  24481776.610    -5521029.39949  -4265134.89145  24481776.249    24481782.908
  22423886.944   -11294753.91649  -8774642.41246  22423886.276    22423890.574
  23584407.505    -7984956.62349  -6203824.82846  23584406.815    23584411.486
  24183185.357    -6261126.24749  -4859921.44845  24183184.769    24183190.621
  21457804.523   -21665776.02149 -16382311.58647  21457803.622    21457807.781
  22314225.565   -13948706.62449 -10581101.00946  22314225.084    22314229.696
  22346844.870   -15292971.77649 -11311401.72846  22346844.251    22346847.043
 03  3 23  2 23  0.0000000  0  9G 9G14G25G31G23G17G15G 3G18
  23815429.893    -5989020.54149  -4656761.09045  23815429.512    23815434.217
  20217394.943   -24948288.28849 -19410003.27548  20217394.289    20217396.316
  24463104.997    -5619148.31549  -4341590.93545  24463104.646    24463111.254
  22426493.231   -11281058.00349  -8763970.25246  22426492.532    22426496.802
  23595871.817    -7924711.11749  -6156880.26646  23595871.148    23595875.827
  24202246.665    -6160958.34249  -4781868.48645  24202245.984    24202251.799
  21471409.674   -21594280.57149 -16326600.83647  21471408.773    21471412.936
  22325128.828   -13891409.60049 -10536453.96347  22325128.345    22325132.947
  22358409.409   -15232199.65849 -11264046.81146  22358408.776    22358411.596
 03  3 23  2 23 30.0000000  0  9G 9G14G25G31G23G17G15G 3G18
  23824500.505    -5941354.05549  -4619618.34745  23824500.072    23824504.835
  20215840.463   -24956456.93849 -19416368.42648  20215839.815    20215841.843
  24444423.980    -5717316.88049  -4418085.67145  24444423.459    24444430.056
  22429204.371   -11266810.60149  -8752868.36746  22429203.716    22429207.994
  23607341.374    -7864438.30849  -6109914.42546  23607340.698    23607345.277
  24221347.534    -6060582.31349  -4703653.34445  24221346.901    24221352.557
  21485087.259   -21522404.30249 -16270593.34947  21485086.354    21485090.543
  22336106.557   -13833721.27449 -10491502.01747  22336106.055    22336110.633
  22369993.549   -15171324.46349 -11216611.57846  22369992.886    22369995.727
 03  3 23  2 24  0.0000000  0  9G 9G14G25G31G23G17G15G 3G18
  23833675.993    -5893136.43449  -4582046.16745  23833675.580    23833680.377
  20214385.468   -24964102.80049 -19422326.21148  20214384.833    20214386.864
  24425733.743    -5815533.46349  -4494617.83245  24425733.306    24425739.685
  22432020.080   -11252013.85649  -8741338.41646  22432019.406    22432023.715
  23618815.882    -7804139.26649  -6062928.15446  23618815.174    23618819.770
  24240487.448    -5960000.92649  -4625278.17745  24240486.810    24240492.467
  21498836.856   -21450149.49449 -16214290.90347  21498835.975    21498840.167
  22347158.001   -13775645.43849 -10446248.10646  22347157.475    22347162.082
  22381597.054   -15110347.58049 -11169097.10246  22381596.383    22381599.214
 03  3 23  2 24 30.0000000  0  9G 9G14G25G31G23G17G15G 3G18
  23842956.558    -5844366.74549  -4544043.80245  23842956.125    23842960.896
  20213030.360   -24971223.93649 -19427875.11748  20213029.721    20213031.744
  24407035.352    -5913793.05549  -4571183.52745  24407035.062    24407041.259
  22434940.612   -11236666.46149  -8729379.39046  22434939.934    22434944.187
  23630295.894    -7743811.33449  -6015919.36246  23630295.117    23630299.747
  24259666.755    -5859212.96049  -4546742.05145  24259666.013    24259671.852
  21512658.836   -21377514.56049 -16157692.25047  21512657.947    21512662.114
  22358283.134   -13717182.38849 -10400692.47746  22358282.653    22358287.242
  22393220.276   -15049266.82649 -11121501.69446  22393219.637    22393222.450
 03  3 23  2 25  0.0000000  0  9G 9G14G25G31G23G17G15G 3G18
  23852341.324    -5795049.27649  -4505614.59545  23852340.918    23852345.696
  20211774.439   -24977823.77349 -19433017.81248  20211773.800    20211775.806
  24388328.761    -6012095.73749  -4647782.76945  24388328.442    24388334.577
  22437965.185   -11220772.20749  -8716994.23546  22437964.530    22437968.727
  23641780.913    -7683457.06649  -5968890.05746  23641780.166    23641784.739
  24278884.631    -5758222.00749  -4468047.76445  24278883.968    24278889.688
  21526552.436   -21304503.11349 -16100800.20447  21526551.539    21526555.712
  22369481.063   -13658336.78949 -10354838.75446  22369480.561    22369485.151
  22404862.707   -14988085.22849 -11073827.70046  22404862.087    22404864.900
 03  3 23  2 25 30.0000000  0  8G 9G14G25G31G23G15G 3G18
  23861830.757    -5745182.00049  -4466756.96945  23861830.408    23861835.034
  20210618.094   -24983900.15849 -19437752.62948  20210617.451    20210619.463
  24369615.095    -6110435.72049  -4724411.10345  24369614.707    24369620.667
  22441094.162   -11204329.14549  -8704181.43646  22441093.484    22441097.715
  23653271.576    -7623073.16249  -5921837.65246  23653270.851    23653275.360
  21540518.122   -21231112.91449 -16043613.03447  21540517.240    21540521.401
  22380751.849   -13599108.17849 -10308686.57746  22380751.349    22380755.951
  22416524.959   -14926799.69249 -11026072.71046  22416524.333    22416527.120
 03  3 23  2 26  0.0000000  0  8G 9G14G25G31G23G15G 3G18
  23871424.199    -5694768.14849  -4427473.42845  23871423.787    23871428.478
  20209561.038   -24989455.04449 -19442081.08348  20209560.393    20209562.388
  24350894.492    -6208812.06849  -4801067.76245  24350894.128    24350900.145
  22444327.038   -11187340.12049  -8690943.22246  22444326.356    22444330.583
  23664767.662    -7562661.14049  -5874763.33846  23664766.902    23664771.386
  21554555.413   -21157346.53249 -15986132.72547  21554554.533    21554558.673
  22392094.745   -13539500.90349 -10262239.34346  22392094.246    22392098.816
  22428206.633   -14865412.19749 -10978238.28546  22428205.966    22428208.762
 03  3 23  2 26 30.0000000  0  8G 9G14G25G31G23G15G 3G18
  23881120.939    -5643811.28449  -4387766.77445  23881120.514    23881125.148
  20208602.609   -24994491.32649 -19446005.43048  20208601.966    20208603.962
  24332167.083    -6307224.32049  -4877752.42245  24332166.742    24332172.629
  22447663.172   -11169808.48649  -8677282.19146  22447662.487    22447666.680
  23676268.649    -7502223.10549  -5827668.75546  23676267.881    23676272.345
  21568663.662   -21083207.14049 -15928361.75947  21568662.785    21568666.924
  22403508.817   -13479519.57349 -10215500.63646  22403508.304    22403512.844
  22439907.172   -14803925.21049 -10930326.32046  22439906.506    22439909.288
 03  3 23  2 27  0.0000000  0  8G 9G14G25G31G23G15G 3G18
  23890921.260    -5592310.29049  -4347636.13845  23890920.790    23890925.471
  20207743.203   -24999007.30849 -19449524.35548  20207742.571    20207744.567
  24313433.866    -6405667.22749  -4954460.97145  24313433.571    24313439.386
  22451102.870   -11151732.81549  -8663197.24046  22451102.175    22451106.345
  23687775.141    -7441756.20149  -5780551.68246  23687774.435    23687778.742
  21582843.243   -21008692.85749 -15870298.67547  21582842.359    21582846.540
  22414994.120   -13419164.13349 -10168470.41546  22414993.603    22414998.110
  22451627.135   -14742336.26349 -10882334.91746  22451626.512    22451629.264
 03  3 23  2 27 30.0000000  0  8G 9G14G25G31G23G15G 3G18
  23900824.323    -5540269.36049  -4307084.76245  23900823.824    23900828.522
  20206982.211   -25003006.24649 -19452640.38348  20206981.568    20206983.577
  24294694.828    -6504140.54749  -5031193.20745  24294694.394    24294700.365
  22454645.305   -11133117.07149  -8648691.44846  22454644.593    22454648.787
  23699286.679    -7381262.84149  -5733413.98846  23699285.926    23699290.221
  21597093.475   -20933807.35749 -15811946.32347  21597092.594    21597096.785
  22426549.490   -13358440.01449 -10121152.90446  22426548.973    22426553.482
  22463366.008   -14680648.08849 -10834266.18546  22463365.376    22463368.115
 03  3 23  2 28  0.0000000  0  8G 9G14G25G31G23G15G 3G18
  23910830.626    -5487685.63649  -4266110.44545  23910830.157    23910834.888
  20206320.228   -25006484.83649 -19455350.94948  20206319.586    20206321.579
  24275951.188    -6602638.02249  -5107944.28545  24275950.780    24275956.836
  22458291.049   -11113958.26549  -8633762.49646  22458290.349    22458294.541
  23710804.059    -7320738.66149  -5686252.28146  23710803.303    23710807.639
  21611414.914   -20858547.63549 -15753302.37747  21611414.029    21611418.212
  22438175.402   -13297345.38649 -10073546.69046  22438174.905    22438179.400
  22475124.518   -14618856.69949 -10786117.03746  22475123.886    22475126.642
 03  3 23  2 28 30.0000000  0  8G 9G14G25G31G23G15G 3G18
  23920939.120    -5434565.12149  -4224717.83845  23920938.728    23920943.484
  20205756.334   -25009447.99949 -19457659.88248  20205755.687    20205757.686
  24257202.748    -6701160.92549  -5184715.18145  24257202.368    24257208.335
  22462039.052   -11094262.08549  -8618414.80646  22462038.404    22462042.609
  23722326.480    -7260187.76649  -5639069.75446  23722325.676    23722330.094
  21625806.611   -20782918.78349 -15694370.79347  21625805.716    21625809.912
  22449870.485   -13235887.20549 -10025657.18346  22449869.979    22449874.511
  22486901.781   -14556966.67749 -10737891.02546  22486901.132    22486903.891
 03  3 23  2 29  0.0000000  0  8G 9G14G25G31G23G15G 3G18
  23931149.802    -5380907.56449  -4182906.77845  23931149.400    23931154.260
  20205290.689   -25011894.98149 -19459566.59648  20205290.039    20205292.029
  24238450.281    -6799704.95649  -5261502.53645  24238449.931    24238455.845
  22465889.483   -11074028.06749  -8602648.01846  22465888.799    22465893.021
  23733854.390    -7199608.26049  -5591864.93246  23733853.625    23733857.991
  21640268.675   -20706920.21849 -15635151.12347  21640267.774    21640271.976
  22461634.576   -13174066.38049  -9977485.10346  22461634.074    22461638.637
  22498698.095   -14494976.46449 -10689586.95746  22498697.456    22498700.221
 03  3 23  2 29 30.0000000  0  8G 9G14G25G31G23G15G 3G18
  23941462.578    -5326713.59049  -4140677.72145  23941462.180    23941466.986
  20204923.283   -25013825.57449 -19461070.92548  20204922.633    20204924.612
  24219694.529    -6898266.41249  -5338303.47745  24219694.215    24219700.028
  22469842.141   -11053256.50649  -8586462.37046  22469841.492    22469845.729
  23745387.952    -7138998.91349  -5544636.86245  23745387.131    23745391.508
  21654801.101   -20630551.77049 -15575643.23147  21654800.194    21654804.406
  22473467.435   -13111884.38149  -9929031.58446  22473466.903    22473471.475
  22510513.666   -14432885.05149 -10641204.01946  22510513.016    22510515.801
 03  3 23  2 30  0.0000000  0  9G 9G14G25G31G11G23G15G 3G18
  23951876.747    -5271986.79649  -4098033.47345  23951876.361    23951881.165
  20204653.658   -25015242.30049 -19462174.84448  20204653.010    20204654.991
  24200935.567    -6996844.47549  -5415117.37045  24200935.222    24200940.867
  22473896.516   -11031950.60149  -8569860.35246  22473895.856    22473900.091
  24679765.676    -5356223.28659  -4160902.35145  24679765.124    24679770.502
  23756926.798    -7078361.59249  -5497386.99445  23756926.022    23756930.386
  21669403.395   -20553816.26449 -15515849.32847  21669402.495    21669406.697
  22485368.180   -13049345.75749  -9880300.17946  22485367.654    22485372.169
  22522348.074   -14370694.69949 -10592743.99146  22522347.423    22522350.226
 03  3 23  2 30 30.0000000  0  9G 9G14G25G31G11G23G15G 3G18
  23962391.660    -5216730.70949  -4054976.78345  23962391.193    23962396.004
  20204481.238   -25016148.28149 -19462880.77648  20204480.589    20204482.578
  24182173.677    -7095438.41249  -5491943.61745  24182173.220    24182178.944
  22478051.931   -11010113.89749  -8552844.72346  22478051.239    22478055.503
  24660672.456    -5456558.13949  -4239085.20645  24660672.032    24660677.246
  23768470.738    -7017697.97149  -5450116.62345  23768469.941    23768474.258
  21684074.924   -20476716.85749 -15455771.86347  21684074.018    21684078.239
  22497335.837   -12986455.13649  -9831294.48946  22497335.319    22497339.808
  22534200.928   -14308407.51649 -10544208.51146  22534200.268    22534203.010
 03  3 23  2 31  0.0000000  0  9G 9G14G25G31G11G23G15G 3G18
  23973007.607    -5160943.35049  -4011506.11945  23973007.203    23973012.002
  20204406.591   -25016540.57149 -19463186.42748  20204405.951    20204407.909
  24163409.879    -7194042.24949  -5568777.57445  24163409.401    24163415.059
  22482308.770   -10987744.02449  -8535413.63646  22482308.082    22482312.340
  24641590.338    -5556834.91549  -4317222.80545  24641589.853    24641595.012
  23780020.366    -6957004.20249  -5402822.76945  23780019.555    23780023.840
  21698816.169   -20399250.77749 -15395408.67547  21698815.273    21698819.490
  22509370.630   -12923211.60649  -9782013.80746  22509370.138    22509374.612
  22546072.857   -14246020.30149 -10495595.08646  22546072.209    22546074.884
 03  3 23  2 31 30.0000000  0  9G 9G14G25G31G11G23G15G 3G18
  23983724.370    -5104626.39349  -3967622.78445  23983723.934    23983728.728
  20204429.526   -25016419.89349 -19463092.36348  20204428.885    20204430.846
  24144644.742    -7292652.86849  -5645616.82745  24144644.321    24144649.817
  22486666.794   -10964842.35549  -8517568.16746  22486666.075    22486670.344
  24622519.636    -5657051.50249  -4395313.52345  24622519.065    24622524.234
  23791575.766    -6896279.84049  -5355505.06845  23791575.025    23791579.287
  21713626.981   -20321419.20549 -15334760.69247  21713626.089    21713630.353
  22521472.133   -12859617.67849  -9732460.08446  22521471.640    22521476.111
  22557963.823   -14183532.81849 -10446903.52946  22557963.167    22557965.813
 03  3 23  2 32  0.0000000  0  9G 9G14G25G31G11G23G15G 3G18
  23994541.800    -5047780.45149  -3923327.25245  23994541.394    23994546.161
  20204550.036   -25015786.44749 -19462598.73848  20204549.392    20204551.355
  24125878.955    -7391267.25549  -5722459.01145  24125878.492    24125883.963
  22491125.853   -10941409.44549  -8499308.74346  22491125.188    22491129.454
  24603460.909    -5757205.01049  -4473355.08545  24603460.419    24603465.514
  23803137.227    -6835523.91449  -5308162.77445  23803136.452    23803140.763
  21728507.342   -20243222.35449 -15273828.07747  21728506.458    21728510.721
  22533639.982   -12795675.16649  -9682634.74146  22533639.486    22533643.961
  22569873.972   -14120944.48749 -10398133.38946  22569873.342    22569875.937
 03  3 23  2 32 30.0000000  0  9G 9G14G25G31G11G23G15G 3G18
  24005458.909    -4990410.56349  -3878623.44245  24005458.517    24005463.220
  20204767.330   -25014644.52249 -19461708.89948  20204766.681    20204768.608
  24107112.344    -7489885.52349  -5799304.21645  24107111.894    24107117.291
  22495685.134   -10917450.12649  -8480639.13246  22495684.442    22495688.735
  24584413.993    -5857296.95449  -4551348.68645  24584413.526    24584418.563
  23814704.098    -6774739.51849  -5260798.30145  23814703.374    23814707.747
  21743456.361   -20164664.57049 -15212614.20747  21743455.489    21743459.757
  22545873.002   -12731389.98749  -9632542.39746  22545872.507    22545877.010
  22581802.713   -14058258.57449 -10349287.22146  22581802.094    22581804.665
 03  3 23  2 33  0.0000000  0  9G 9G14G25G31G11G23G15G 3G18
  24016475.650    -4932517.23749  -3833511.75645  24016475.240    24016479.966
  20205081.449   -25012993.67849 -19460422.49448  20205080.814    20205082.715
  24088345.784    -7588503.63349  -5876149.30345  24088345.406    24088350.698
  22500344.642   -10892964.57649  -8461559.46346  22500343.896    22500348.154
  24565379.390    -5957323.95349  -4629291.66945  24565378.922    24565383.959
  23826276.646    -6713925.12749  -5213410.44645  23826275.943    23826280.335
  21758474.137   -20085745.68049 -15151118.96647  21758473.242    21758477.530
  22558170.932   -12666763.98149  -9582184.46146  22558170.424    22558174.925
  22593750.154   -13995474.11149 -10300364.25346  22593749.533    22593752.141
 03  3 23  2 33 30.0000000  0  9G 9G14G25G31G11G23G15G 3G18
  24027591.758    -4874101.47649  -3787992.97945  24027591.365    24027596.082
  20205492.358   -25010834.16849 -19458739.73148  20205491.719    20205493.620
  24069579.858    -7687118.35249  -5952991.75345  24069579.468    24069584.831
  22505103.980   -10867953.52649  -8442070.31546  22505103.291    22505107.603
  24546357.649    -6057283.47749  -4707182.09245  24546357.071    24546361.995
  23837855.146    -6653079.68349  -5165998.41145  23837854.477    23837858.863
  21773560.514   -20006466.11849 -15089342.67647  21773559.619    21773563.909
  22570533.357   -12601798.63849  -9531562.11246  22570532.865    22570537.422
  22605716.497   -13932590.38549 -10251363.93646  22605715.889    22605718.510
 03  3 23  2 34  0.0000000  0  9G 9G14G25G31G11G23G15G 3G18
  24038806.741    -4815166.06149  -3742069.29045  24038806.371    24038810.977
  20205999.695   -25008167.88149 -19456662.07648  20205999.068    20206000.979
  24050814.916    -7785727.94549  -6029830.21445  24050814.557    24050819.735
  22509962.907   -10842419.43449  -8422173.60546  22509962.267    22509966.536
  24527349.020    -6157174.00149  -4785018.73045  24527348.500    24527353.293
  23849439.388    -6592203.91949  -5118562.73445  23849438.747    23849443.188
  21788715.122   -19926827.89649 -15027286.91647  21788714.237    21788718.556
  22582959.716   -12536497.58449  -9480678.16946  22582959.232    22582963.808
  22617701.529   -13869608.53749 -10202287.16546  22617700.892    22617703.512
 03  3 23  2 34 30.0000000  0  9G 9G14G25G31G11G23G15G 3G18
  24050120.447    -4755711.85449  -3695741.35045  24050120.028    24050124.747
  20206603.459   -25004994.98349 -19454189.66148  20206602.830    20206604.711
  24032051.684    -7884328.52449  -6106661.64545  24032051.307    24032056.536
  22514921.340   -10816363.02249  -8401869.88846  22514920.625    22514924.882
  24508354.053    -6256992.72449  -4862799.41545  24508353.500    24508358.355
  23861029.631    -6531296.70749  -5071102.56245  23861028.963    23861033.512
  21803938.007   -19846831.04349 -14964951.69547  21803937.138    21803941.422
  22595449.620   -12470862.63449  -9429534.04646  22595449.116    22595453.729
  22629705.376   -13806527.76849 -10153133.30946  22629704.752    22629707.338
 03  3 23  2 35  0.0000000  0  9G 9G14G25G31G11G23G15G 3G18
  24061532.137    -4695743.11349  -3649012.47645  24061531.698    24061536.448
  20207302.983   -25001318.87749 -19451325.13748  20207302.346    20207304.217
  24013290.195    -7982919.89049  -6183485.93045  24013289.845    24013294.977
  22519978.355   -10789788.18549  -8381162.20846  22519977.654    22519981.918
  24489372.583    -6356740.26249  -4940524.61645  24489372.051    24489376.944
  23872625.454    -6470360.21049  -5023619.57845  23872624.786    23872629.357
  21819228.482   -19766478.94749 -14902339.66647  21819227.583    21819231.884
  22608002.066   -12404898.87349  -9378133.71246  22608001.586    22608006.211
  22641727.655   -13743350.39749 -10103904.18446  22641727.029    22641729.569
 03  3 23  2 35 30.0000000  0  9G 9G14G25G31G11G23G15G 3G18
  24073041.905    -4635259.02249  -3601882.01645  24073041.460    24073046.136
  20208098.592   -24997138.01749 -19448067.29748  20208097.945    20208099.805
  23994531.384    -8081496.94849  -6260299.06045  23994531.092    23994536.195
  22525134.227   -10762694.02049  -8360049.85646  22525133.495    22525137.749
  24470405.650    -6456411.73349  -5018190.54745  24470405.121    24470409.933
  23884227.360    -6409391.52649  -4976111.51645  23884226.684    23884231.255
  21834586.803   -19685770.44949 -14839449.92147  21834585.911    21834590.212
  22620617.091   -12338606.46549  -9326477.29446  22620616.603    22620621.228
  22653768.710   -13680074.24649 -10054598.08446  22653768.063    22653770.604
 03  3 23  2 36  0.0000000  0  9G 9G14G25G31G11G23G15G 3G18
  24084649.112    -4574263.06749  -3554352.72245  24084648.604    24084653.275
  20208989.724   -24992454.82049 -19444418.02548  20208989.078    20208990.940
  23975775.570    -8180058.73149  -6337100.29045  23975775.248    23975780.279
  22530388.193   -10735083.73049  -8338535.32446  22530387.547    22530391.811
  24451453.234    -6556006.89449  -5095797.00645  24451452.722    24451457.386
  23895835.124    -6348392.15549  -4928579.53545  23895834.428    23895839.052
  21850012.414   -19604708.30349 -14776284.60147  21850011.522    21850015.787
  22633293.834   -12271989.70649  -9274568.12346  22633293.337    22633297.984
  22665828.237   -13616700.95249 -10005216.28246  22665827.594    22665830.148
 03  3 23  2 36 30.0000000  0  9G 9G14G25G31G11G23G15G 3G18
  24096353.580    -4512755.95449  -3506425.10845  24096352.982    24096357.786
  20209976.394   -24987269.75749 -19440377.69848  20209975.745    20209977.596
  23957023.351    -8278601.36549  -6413886.61745  23957022.989    23957028.059
  22535740.350   -10706958.03749  -8316619.18546  22535739.682    22535743.924
  24432515.900    -6655522.75049  -5173341.68245  24432515.322    24432520.061
  23907448.989    -6287360.82949  -4881022.65545  23907448.277    23907452.820
  21865505.300   -19523292.69449 -14712843.86047  21865504.416    21865508.650
  22646031.903   -12205050.72149  -9222407.88346  22646031.429    22646036.047
  22677906.369   -13553229.88149  -9955758.28746  22677905.703    22677908.298
 03  3 23  2 37  0.0000000  0  9G 9G14G25G31G11G23G15G 3G18
  24108154.706    -4450740.55049  -3458101.42945  24108154.071    24108158.976
  20211058.270   -24981584.43849 -19435947.55548  20211057.616    20211059.464
  23938275.193    -8377122.76949  -6490656.38445  23938274.828    23938279.802
  22541190.009   -10678319.46249  -8294303.39346  22541189.379    22541193.650
  24413593.878    -6754957.98749  -5250823.54045  24413593.321    24413598.105
  23919068.833    -6226297.98049  -4833441.21845  23919068.183    23919072.691
  21881065.048   -19441525.89649 -14649129.45747  21881064.144    21881068.343
  22658830.685   -12137792.69649  -9169999.03346  22658830.188    22658834.764
  22690002.956   -13489661.99149  -9906224.85146  22690002.298    22690004.870
 03  3 23  2 37 30.0000000  0  9G 9G14G25G31G11G23G15G 3G18
  24120052.200    -4388218.64949  -3409383.07145  24120051.616    24120056.464
  20212235.117   -24975399.96049 -19431128.46048  20212234.471    20212236.304
  23919531.719    -8475619.83949  -6567407.20645  23919531.344    23919536.264
  22546737.142   -10649169.41249  -8271589.05046  22546736.419    22546740.693
  24394687.528    -6854310.89949  -5328241.26145  24394686.999    24394691.729
  23930694.765    -6165203.32949  -4785834.99445  23930694.125    23930698.668
  21896691.368   -19359408.85949 -14585142.14847  21896690.477    21896694.659
  22671689.660   -12070218.32449  -9117343.68646  22671689.186    22671693.771
  22702118.015   -13425996.88349  -9856615.66046  22702117.341    22702119.952
 03  3 23  2 38  0.0000000  0  9G 9G14G25G31G11G23G15G 3G18
  24132045.778    -4325191.60149  -3360271.10245  24132045.353    24132049.978
  20213506.816   -24968716.92849 -19425920.88248  20213506.181    20213508.015
  23900793.432    -8574089.80849  -6644136.90045  23900792.996    23900797.944
  22552381.165   -10619509.25549  -8248477.23246  22552380.522    22552384.765
  24375797.445    -6953578.33549  -5405592.38445  24375796.827    24375801.659
  23942326.860    -6104076.30149  -4738203.55345  23942326.182    23942330.792
  21912384.248   -19276942.15149 -14520882.36647  21912383.343    21912387.546
  22684608.419   -12002329.88949  -9064443.60146  22684607.953    22684612.506
  22714251.617   -13362234.35349  -9806930.56046  22714250.951    22714253.556
 03  3 23  2 38 30.0000000  0  9G 9G14G25G31G11G23G15G 3G18
  24144135.002    -4261662.47149  -3310767.87945  24144134.563    24144139.275
  20214873.002   -24961537.48149 -19420326.48548  20214872.365    20214874.191
  23882060.613    -8672530.93049  -6720844.10845  23882060.184    23882065.090
  22558121.859   -10589341.61749  -8224969.96246  22558121.208    22558125.416
  24356923.792    -7052759.61749  -5482876.38145  24356923.263    24356927.904
  23953964.928    -6042917.48549  -4690547.33045  23953964.256    23953968.892
  21928143.255   -19194127.85349 -14456351.73847  21928142.383    21928146.555
  22697586.203   -11934131.27149  -9011301.81946  22697585.738    22697590.272
  22726403.511   -13298375.58049  -9757170.46446  22726402.879    22726405.512
 03  3 23  2 39  0.0000000  0  9G 9G14G25G31G11G23G15G 3G18
  24156319.678    -4197631.90149  -3260873.92445  24156319.158    24156323.931
  20216333.663   -24953861.57549 -19414345.24248  20216333.024    20216334.860
  23863334.109    -8770938.92849  -6797525.50945  23863333.669    23863338.507
  22563959.074   -10558666.83849  -8201067.52346  22563958.417    22563962.605
  24338067.194    -7151851.06149  -5560090.39245  24338066.647    24338071.245
  23965609.456    -5981725.14649  -4642864.99145  23965608.754    23965613.348
  21943968.447   -19110966.01749 -14391550.29947  21943967.577    21943971.717
  22710622.739   -11865623.68649  -8957919.28246  22710622.283    22710626.801
  22738573.996   -13234419.15749  -9707334.28546  22738573.383    22738575.975
 03  3 23  2 39 30.0000000  0  9G 9G14G25G31G11G23G15G 3G18
  24168598.924    -4133104.08349  -3210592.51045  24168598.428    24168603.174
  20217888.125   -24945692.69149 -19407979.85448  20217887.488    20217889.331
  23844613.984    -8869313.45249  -6874180.81645  23844613.528    23844618.308
  22569892.041   -10527489.24549  -8176773.27446  22569891.309    22569895.510
  24319227.592    -7250853.17949  -5637234.79245  24319227.030    24319231.657
  23977259.968    -5920501.45849  -4595158.21645  23977259.199    23977263.815
  21959859.036   -19027460.45149 -14326481.01747  21959858.137    21959862.283
  22723717.088   -11796812.39049  -8904300.08946  22723716.648    22723721.124
  22750762.497   -13170367.73449  -9657424.06646  22750761.915    22750764.556
 03  3 23  2 40  0.0000000  0  9G 9G14G25G31G11G23G15G 3G18
  24180972.869    -4068078.70149  -3159923.38645  24180972.381    24180977.127
  20219536.624   -24937029.64949 -19401229.41248  20219535.987    20219537.829
  23825901.103    -8967649.69949  -6950806.30145  23825900.682    23825905.434
  22575920.638   -10495808.29549  -8152086.80246  22575919.976    22575924.190
  24300405.840    -7349761.40149  -5714306.02545  24300405.330    24300409.893
  23988916.878    -5859243.86149  -4547425.01345  23988916.089    23988920.678
  21975815.254   -18943609.81049 -14261142.84947  21975814.350    21975818.495
  22736869.133   -11727697.99949  -8850444.72046  22736868.653    22736873.092
  22762969.593   -13106218.85549  -9607437.91846  22762969.005    22762971.645
 03  3 23  2 40 30.0000000  0  9G 9G14G25G31G11G23G15G 3G18
  24193441.177    -4002557.67249  -3108868.04145  24193440.659    24193445.365
  20221278.899   -24927873.69049 -19394094.87748  20221278.260    20221280.125
  23807196.017    -9065944.85849  -7027399.75945  23807195.642    23807200.347
  22582044.805   -10463625.64349  -8127009.39946  22582044.106    22582048.355
  24281602.333    -7448573.76549  -5791302.55945  24281601.907    24281606.427
  24000580.328    -5797952.07449  -4499665.17845  24000579.584    24000584.123
  21991836.832   -18859415.50749 -14195536.89447  21991835.949    21991840.121
  22750078.321   -11658283.25049  -8796355.29746  22750077.819    22750082.289
  22775195.206   -13041972.78749  -9557376.03346  22775194.611    22775197.282
 03  3 23  2 41  0.0000000  0  9G 9G14G25G31G11G23G15G 3G18
  24206003.012    -3936544.79649  -3057429.42945  24206002.483    24206007.198
  20223114.446   -24918227.66449 -19386578.47848  20223113.810    20223115.677
  23788499.009    -9164197.64349  -7103960.20645  23788498.585    23788503.272
  22588263.733   -10430944.72149  -8101543.73546  22588263.061    22588267.287
  24262817.164    -7547289.77249  -5868224.01445  24262816.722    24262821.263
  24012250.046    -5736627.41549  -4451879.73045  24012249.366    24012253.821
  22007923.280   -18774880.41549 -14129665.39547  22007922.402    22007926.600
  22763343.889   -11588572.52149  -8742035.25446  22763343.415    22763347.822
  22787439.025   -12977631.03149  -9507239.59646  22787438.394    22787441.082
 03  3 23  2 41 30.0000000  0  9G 9G14G25G31G11G23G15G 3G18
  24218658.113    -3870041.34949  -3005608.58445  24218657.672    24218662.503
  20225043.227   -24908091.86049 -19378680.42348  20225042.594    20225044.446
  23769810.709    -9262404.50749  -7180484.86245  23769810.273    23769814.931
  22594577.300   -10397766.68549  -8075690.70246  22594576.620    22594580.863
  24244050.824    -7645906.63249  -5945068.20245  24244050.433    24244055.115
  24023926.209    -5675268.80449  -4404067.82345  24023925.512    24023929.966
  22024074.544   -18690005.06149 -14063528.74447  22024073.661    22024077.859
  22776665.330   -11518568.05549  -8687486.32046  22776664.843    22776669.257
  22799701.164   -12913193.17649  -9457028.27346  22799700.546    22799703.207
 03  3 23  2 42  0.0000000  0  9G 9G14G25G31G11G23G15G 3G18
  24231406.279    -3803049.19549  -2953406.90045  24231405.807    24231410.696
  20227064.990   -24897467.33349 -19370401.55048  20227064.345    20227066.204
  23751131.740    -9360562.37549  -7256971.35345  23751131.294    23751135.982
  22600985.150   -10364093.11649  -8049451.54346  22600984.474    22600988.710
  24225303.902    -7744421.62949  -6021833.01845  24225303.431    24225308.165
  24035608.900    -5613875.89749  -4356229.18645  24035608.215    24035612.654
  22040290.381   -18604790.40549 -13997127.71747  22040289.505    22040293.695
  22790042.145   -11448272.34549  -8632710.44146  22790041.672    22790046.107
  22811981.631   -12848658.83649  -9406741.76846  22811981.014    22811983.662
 03  3 23  2 42 30.0000000  0  9G 9G14G25G31G11G23G15G 3G18
  24244246.940    -3735571.26649  -2900826.68745  24244246.507    24244251.390
  20229179.308   -24886356.23749 -19361743.52848  20229178.661    20229180.537
  23732462.398    -9458669.74549  -7333418.48945  23732462.039    23732466.604
  22607486.718   -10329926.97449  -8022828.55946  22607486.033    22607490.236
  24206576.547    -7842833.97449  -6098517.83445  24206576.016    24206580.754
  24047298.014    -5552449.19649  -4308364.21145  24047297.292    24047301.678
  22056570.398   -18519238.48449 -13930463.87447  22056569.505    22056573.700
  22803473.694   -11377689.04949  -8577710.46946  22803473.184    22803477.696
  22824280.222   -12784029.13449  -9356380.95246  22824279.640    22824282.298
 03  3 23  2 43  0.0000000  0  9G 9G14G25G31G11G23G15G 3G18
  24257179.735    -3667609.07049  -2847869.14045  24257179.274    24257184.174
  20231386.055   -24874759.64849 -19352707.20448  20231385.413    20231387.272
  23713803.306    -9556723.20349  -7409823.62045  23713802.927    23713807.507
  22614081.876   -10295269.46249  -7995822.69246  22614081.158    22614085.306
  24187869.269    -7941141.02149  -6175120.60245  24187868.717    24187873.494
  24058993.754    -5490987.60449  -4260472.05845  24058993.056    24058997.450
  22072914.360   -18433350.35749 -13863538.05647  22072913.460    22072917.663
  22816959.598   -11306820.05149  -8522487.87446  22816959.088    22816963.639
  22836597.063   -12719303.69649  -9305945.54046  22836596.483    22836599.151
 03  3 23  2 43 30.0000000  0  9G 9G14G25G31G11G23G15G 3G18
  24270204.263    -3599164.74449  -2794535.90345  24270203.867    24270208.657
  20233685.054   -24862678.28049 -19343293.13248  20233684.402    20233686.251
  23695155.052    -9654719.86349  -7486184.50145  23695154.607    23695159.205
  22620770.108   -10260122.43349  -7968435.38646  22620769.397    22620773.539
  24169182.526    -8039340.17749  -6251639.31745  24169181.974    24169186.648
  24070696.225    -5429490.86649  -4212552.51545  24070695.444    24070699.888
  22089322.089   -18347127.33349 -13796351.28247  22089321.191    22089325.396
  22830499.308   -11235668.30849  -8467044.95146  22830498.794    22830503.360
  22848932.180   -12654482.10149  -9255435.19446  22848931.594    22848934.257
 03  3 23  2 44  0.0000000  0  9G 9G14G25G31G11G23G15G 3G18
  24283320.100    -3530240.52049  -2740828.71545  24283319.718    24283324.475
  20236076.004   -24850113.64449 -19333502.48448  20236075.367    20236077.208
  23676518.134    -9752656.93849  -7562498.95045  23676517.708    23676522.226
  22627551.115   -10224487.88149  -7940668.18546  22627550.443    22627554.585
  24150516.687    -8137429.34249  -6328072.30145  24150516.136    24150520.793
  24082405.341    -5367958.91549  -4164605.52445  24082404.638    24082408.959
  22105793.228   -18260570.79849 -13728904.62946  22105792.348    22105796.521
  22844092.269   -11164236.89249  -8411384.09946  22844091.764    22844096.312
  22861285.529   -12589564.73949  -9204850.22846  22861284.932    22861287.568
 03  3 23  2 44 30.0000000  0  9G 9G14G25G31G11G23G15G 3G18
  24296526.883    -3460838.68749  -2686749.36445  24296526.515    24296531.215
  20238558.640   -24837067.21249 -19323336.41248  20238558.008    20238559.831
  23657893.167    -9850531.36349  -7638764.59545  23657892.761    23657897.222
  22634424.573   -10188367.81249  -7912522.65846  22634423.884    22634427.990
  24131872.176    -8235406.51849  -6404418.03345  24131871.623    24131876.144
  24094121.274    -5306391.37649  -4116630.80445  24094120.617    24094124.881
  22122327.593   -18173681.88749 -13661198.98546  22122326.722    22122330.895
  22857737.891   -11092528.66749  -8355507.55846  22857737.417    22857741.963
  22873657.056   -12524551.72749  -9154190.72946  22873656.477    22873659.103
 03  3 23  2 45  0.0000000  0  9G 9G14G25G31G11G23G15G 3G18
  24309824.054    -3390961.45449  -2632299.56645  24309823.699    24309828.414
  20241132.657   -24823540.52449 -19312796.11848  20241132.006    20241133.827
  23639280.479    -9948340.94049  -7714979.70745  23639280.097    23639284.470
  22641389.967   -10151764.38449  -7884000.49446  22641389.292    22641393.377
  24113249.281    -8333270.00149  -6480675.15945  24113248.796    24113253.211
  24105844.030    -5244787.97849  -4068628.14445  24105843.352    24105847.665
  22138924.939   -18086462.35749 -13593235.70946  22138924.042    22138928.205
  22871435.642   -11020546.44149  -8299417.52246  22871435.184    22871439.683
  22886046.749   -12459443.36649  -9103456.93846  22886046.151    22886048.801
 03  3 23  2 45 30.0000000  0  9G 9G14G25G31G11G23G15G 3G18
  24323211.155    -3320611.46049  -2577481.37545  24323210.781    24323215.533
  20243797.732   -24809535.36649 -19301882.98448  20243797.091    20243798.916
  23620680.599   -10046083.37649  -7791142.50445  23620680.234    23620684.575
  22648446.808   -10114680.16749  -7855103.69746  22648446.137    22648450.254
  24094648.364    -8431017.94449  -6556842.25445  24094647.903    24094652.237
  24117573.485    -5183149.05749  -4020597.80245  24117572.822    24117577.172
  22155584.858   -17998913.91949 -13525016.13846  22155583.978    22155588.115
  22885184.919   -10948293.73449  -8243116.69846  22885184.427    22885188.914
  22898454.553   -12394240.05249  -9052649.16046  22898453.951    22898456.565
 03  3 23  2 46  0.0000000  0  9G 9G14G25G31G11G23G15G 3G18
  24336688.157    -3249789.37849  -2522295.32945  24336687.632    24336692.506
  20246553.860   -24795051.64149 -19290596.94748  20246553.213    20246555.046
  23602094.246   -10143754.46949  -7867249.71945  23602093.851    23602098.277
  22655595.093   -10077115.68449  -7825832.66446  22655594.438    22655598.567
  24076070.131    -8528646.80449  -6632916.54845  24076069.684    24076073.953
  24129310.010    -5121472.86549  -3972538.41645  24129309.407    24129313.767
  22172307.341   -17911036.70349 -13456540.38946  22172306.472    22172310.619
  22898985.352   -10875772.01049  -8186606.26346  22898984.863    22898989.346
  22910880.613   -12328940.55349  -9001766.42246  22910880.018    22910882.616
 03  3 23  2 46 30.0000000  0  9G 9G14G25G31G11G23G15G 3G18
  24350254.191    -3178499.26749  -2466744.57745  24350253.710    24350258.565
  20249400.423   -24780092.64149 -19278940.56748  20249399.782    20249401.640
  23583521.757   -10241353.10949  -7943300.48946  23583521.378    23583525.743
  22662834.024   -10039074.81349  -7796190.42546  22662833.366    22662837.487
  24057514.593    -8626156.24049  -6708897.78945  24057514.140    24057518.437
  24141053.370    -5059760.98149  -3924451.22645  24141052.747    24141057.106
  22189091.737   -17822834.02349 -13387811.03246  22189090.852    22189095.052
  22912836.038   -10802986.08249  -8129889.95346  22912835.534    22912839.996
  22923324.693   -12263546.63949  -8950810.12546  22923324.083    22923326.699
 03  3 23  2 47  0.0000000  0  8G14G25G31G11G23G15G 3G18
  20252337.450   -24764658.31549 -19266913.79548  20252336.819    20252338.669
  23564963.883   -10338875.02649  -8019291.46946  23564963.506    23564967.831
  22670163.456   -10000558.28949  -7766177.54046  22670162.833    22670166.950
  24038982.452    -8723542.89849  -6784783.35145  24038981.979    24038986.262
  24152803.854    -4998011.63749  -3876334.84145  24152803.232    24152807.638
  22205938.078   -17734305.70949 -13318827.92546  22205937.220    22205941.437
  22926736.737   -10729937.33549  -8072968.85046  22926736.251    22926740.753
  22935786.965   -12198056.88249  -8899779.13246  22935786.365    22935788.948
 03  3 23  2 47 30.0000000  0  8G14G25G31G11G23G15G 3G18
  20255364.334   -24748751.89049 -19254519.16348  20255363.704    20255365.550
  23546420.780   -10436319.25549  -8095221.93746  23546420.402    23546424.591
  22677582.745    -9961569.58849  -7735796.73446  22677582.146    22677586.220
  24020473.787    -8820806.13449  -6860572.74645  24020473.303    24020477.559
  24164561.257    -4936226.01749  -3828190.19145  24164560.513    24164565.074
  22222845.878   -17645454.66549 -13249593.35646  22222845.005    22222849.242
  22940686.582   -10656630.18349  -8015846.40246  22940686.103    22940690.671
  22948267.149   -12132473.18849  -8848674.96346  22948266.506    22948269.101
 03  3 23  2 48  0.0000000  0  8G14G25G31G11G23G15G 3G18
  20258481.107   -24732372.91949 -19241756.30648  20258480.486    20258482.361
  23527893.313   -10533681.22349  -8171088.30046  23527892.969    23527897.126
  22685091.790    -9922109.22049  -7705048.39546  22685091.158    22685095.250
  24001989.421    -8917941.53949  -6936262.53845  24001988.900    24001993.142
  24176325.931    -4874402.20849  -3780015.77645  24176325.169    24176329.742
  22239815.110   -17556280.74549 -13180107.18246  22239814.237    22239818.453
  22954685.389   -10583065.71849  -7958523.43646  22954684.933    22954689.514
  22960765.531   -12066793.48349  -8797495.96546  22960764.913    22960767.512
 03  3 23  2 48 30.0000000  0  8G14G25G31G11G23G15G 3G18
  20261687.485   -24715523.16949 -19228626.61548  20261686.856    20261688.720
  23509382.019   -10630958.53149  -8246888.71846  23509381.704    23509385.692
  22692690.066    -9882179.84449  -7673934.59346  22692689.428    22692693.526
  23983529.652    -9014947.74449  -7011851.65645  23983529.149    23983533.358
  24188097.809    -4812540.19949  -3731811.60145  24188097.099    24188101.665
  22256845.389   -17466786.03949 -13110371.04546  22256844.537    22256848.725
  22968732.520   -10509247.35549  -7901002.63646  22968732.048    22968736.657
  22973282.145   -12001018.10349  -8746242.41646  22973281.538    22973284.145
 03  3 23  2 49  0.0000000  0  8G14G25G31G11G23G15G 3G18
  20264983.007   -24698204.99749 -19215131.91548  20264982.365    20264984.214
  23490887.132   -10728149.50449  -8322621.85446  23490886.797    23490890.760
  22700377.084    -9841784.37549  -7642457.60146  22700376.427    22700380.535
  23965094.650    -9111823.69649  -7087339.27745  23965094.181    23965098.315
  24199876.846    -4750640.57549  -3683578.12145  24199876.165    24199880.747
  22273936.300   -17376972.81249 -13040386.71346  22273935.435    22273939.568
  22982827.288   -10435178.86149  -7843286.93446  22982826.850    22982831.417
  22985816.714   -11935148.50949  -8694915.45846  22985816.111    22985818.664
 03  3 23  2 49 30.0000000  0  8G14G25G31G11G23G15G 3G18
  20268367.481   -24680419.25349 -19201272.87348  20268366.852    20268368.706
  23472409.327   -10825250.56949  -8398284.93446  23472409.019    23472412.931
  22708152.504    -9800924.21149  -7610618.51546  22708151.834    22708155.955
  23946685.074    -9208566.23349  -7162722.94445  23946684.566    23946688.698
  24211663.355    -4688702.35549  -3635314.57245  24211662.644    24211667.276
  22291087.675   -17286841.73649 -12970154.70346  22291086.782    22291090.964
  22996969.255   -10360862.41849  -7785378.02446  22996968.740    22996973.334
  22998369.398   -11869183.95749  -8643514.50946  22998368.781    22998371.342
 03  3 23  2 50  0.0000000  0  8G14G25G31G11G23G15G 3G18
  20271840.645   -24662167.66049 -19187050.83248  20271840.017    20271841.865
  23453949.105   -10922259.16549  -8473875.97145  23453948.789    23453952.712
  22716015.848    -9759601.84649  -7578419.26446  22716015.180    22716019.292
  23928301.247    -9305173.30349  -7238001.06145  23928300.763    23928304.891
  24223457.181    -4626725.53049  -3587020.92145  24223456.460    24223461.007
  22308299.182   -17196394.54949 -12899676.37846  22308298.296    22308302.477
  23011157.758   -10286301.24249  -7727278.41646  23011157.248    23011161.899
  23010940.063   -11803124.74049  -8592039.77946  23010939.468    23010941.978
 03  3 23  2 50 30.0000000  0  8G14G25G31G11G23G15G 3G18
  20275402.271   -24643451.16249 -19172466.53548  20275401.632    20275403.466
  23435507.127   -11019171.89049  -8549392.30046  23435506.806    23435510.730
  22723966.855    -9717818.85549  -7545861.09646  22723966.235    22723970.352
  23909943.678    -9401642.51849  -7313171.75645  23909943.181    23909947.287
  24235258.425    -4564709.13549  -3538696.45545  24235257.771    24235262.284
  22325570.644   -17105632.32549 -12828952.56946  22325569.740    22325573.954
  23025392.360   -10211497.74349  -7668989.97446  23025391.843    23025396.521
  23023528.880   -11736970.15449  -8540490.75346  23023528.243    23023530.751
 03  3 23  2 51  0.0000000  0  8G14G25G31G11G23G15G 3G18
  20279051.731   -24624273.00049 -19157522.49048  20279051.095    20279052.928
  23417083.565   -11115987.71149  -8624833.12546  23417083.281    23417087.191
  22732004.836    -9675579.04649  -7512946.94946  22732004.151    22732008.311
  23891612.517    -9497972.97249  -7388234.33145  23891612.032    23891616.080
  24247066.996    -4502654.49349  -3490342.17945  24247066.355    24247070.817
  22342901.497   -17014557.89749 -12757985.48546  22342900.612    22342904.839
  23039672.292   -10136456.30049  -7610516.12146  23039671.747    23039676.430
  23036135.537   -11670721.79249  -8488868.65146  23036134.945    23036137.370
 03  3 23  2 51 30.0000000  0  8G14G25G31G11G23G15G 3G18
  20282789.306   -24604631.71649 -19142217.58148  20282788.668    20282790.502
  23398679.505   -11212701.10149  -8700194.13946  23398679.211    23398683.133
  22740129.779    -9632881.99249  -7479676.52146  22740129.086    22740133.259
  23873308.638    -9594159.86849  -7463185.03545  23873308.144    23873312.157
  24258883.414    -4440558.63849  -3441955.79645  24258882.775    24258887.305
  22360292.026   -16923170.22749 -12686774.32346  22360291.112    22360295.316
  23053997.439   -10061177.07249  -7551856.98246  23053996.900    23054001.579
  23048760.598   -11604376.86149  -8437171.30346  23048759.946    23048762.411
 03  3 23  2 52  0.0000000  0  8G14G25G31G11G23G15G 3G18
  20286614.221   -24584531.62549 -19126555.15948  20286613.590    20286615.417
  23380295.110   -11309311.39149  -8775474.82546  23380294.819    23380298.746
  22748340.835    -9589732.49049  -7446053.53646  22748340.202    22748344.315
  23855032.073    -9690203.27249  -7538023.93945  23855031.605    23855035.606
  24270707.339    -4378423.73549  -3393538.98145  24270706.670    24270711.173
  22377741.368   -16831473.42149 -12615322.26546  22377740.473    22377744.658
  23068366.816    -9985665.60949  -7493016.89246  23068366.322    23068370.944
  23061403.467   -11537938.28749  -8385400.97946  23061402.833    23061405.291
 03  3 23  2 52 30.0000000  0  8G14G25G31G11G23G15G 3G18
  20290526.364   -24563972.99549 -19110535.42748  20290525.731    20290527.561
  23361931.067   -11405814.71149  -8850672.14346  23361930.782    23361934.696
  22756637.807    -9546131.34649  -7412078.60646  22756637.188    22756641.321
  23836783.455    -9786099.90049  -7612748.46545  23836782.929    23836786.931
  24282539.044    -4316248.03149  -3345090.35745  24282538.328    24282542.848
  22395249.444   -16739467.70949 -12543629.49946  22395248.552    22395252.738
  23082780.090    -9909923.45749  -7433997.03046  23082779.554    23082784.192
  23074064.365   -11471404.70649  -8333556.61846  23074063.708    23074066.170
 03  3 23  2 53  0.0000000  0  8G14G25G31G11G23G15G 3G18
  20294525.202   -24542959.06449 -19094160.92448  20294524.563    20294526.383
  23343587.586   -11502210.12449  -8925785.38346  23343587.281    23343591.156
  22765019.992    -9502082.70549  -7377754.99146  22765019.375    22765023.495
  23818562.840    -9881849.33749  -7687358.30845  23818562.313    23818566.297
  24294378.226    -4254033.02649  -3296611.12645  24294377.452    24294381.977
  22412815.668   -16647156.40249 -12471698.61546  22412814.831    22412818.959
  23097236.344    -9833955.40949  -7374801.15346  23097235.806    23097240.375
  23086743.046   -11404777.69449  -8281639.46146  23086742.411    23086744.906
 03  3 23  2 53 30.0000000  0  8G14G25G31G11G23G15G 3G18
  20298610.866   -24521488.59249 -19077430.67348  20298610.225    20298612.049
  23325265.668   -11598492.17549  -9000810.28946  23325265.355    23325269.246
  22773487.429    -9457586.12049  -7343082.31846  22773486.783    22773490.914
  23800371.158    -9977446.71449  -7761849.64945  23800370.706    23800374.638
  24306225.383    -4191775.73549  -3248098.93045  24306224.631    24306229.127
  22430440.325   -16554538.13149 -12399528.53746  22430439.480    22430443.602
  23111735.551    -9757761.50149  -7315429.27946  23111735.049    23111739.586
  23099439.990   -11338054.62249  -8229647.45146  23099439.391    23099441.888
 03  3 23  2 54  0.0000000  0  8G14G25G31G11G23G15G 3G18
  20302782.723   -24499565.28649 -19060347.55948  20302782.086    20302783.910
  23306965.436   -11694660.35249  -9075746.45546  23306965.104    23306969.000
  22782039.308    -9412645.86149  -7308063.92946  22782038.663    22782042.775
  23782208.528   -10072891.60949  -7836222.17445  23782208.040    23782211.952
  24318080.311    -4129477.75349  -3199555.04445  24318079.594    24318084.092
  22448122.673   -16461616.77749 -12327122.27846  22448121.839    22448125.969
  23126276.782    -9681346.87849  -7255885.42046  23126276.282    23126280.832
  23112154.733   -11271237.92249  -8177582.46946  23112154.149    23112156.657
 03  3 23  2 54 30.0000000  0  8G14G25G31G11G23G15G 3G18
  20307040.452   -24477190.66049 -19042912.76748  20307039.819    20307041.620
  23288687.423   -11790711.65149  -9150591.54346  23288687.098    23288690.968
  22790675.099    -9367264.21949  -7272701.60146  22790674.484    22790678.611
  23764075.349   -10168181.63349  -7910474.02445  23764074.803    23764078.718
  24329943.033    -4067138.62649  -3150979.08745  24329942.321    24329946.789
  22465862.517   -16368393.48849 -12254480.76346  22465861.677    22465865.760
  23140859.475    -9604714.30849  -7196171.73146  23140858.967    23140863.484
  23124887.467   -11204327.02249  -8125444.09546  23124886.854    23124889.410
 03  3 23  2 55  0.0000000  0  8G14G25G31G11G23G15G 3G18
  20311384.006   -24454365.07749 -19025126.58748  20311383.382    20311385.173
  23270432.556   -11886641.40749  -9225341.93046  23270432.195    23270436.086
  22799394.701    -9321442.27349  -7236996.18046  22799394.088    22799398.231
  23745972.311   -10263313.32549  -7984602.48945  23745971.736    23745975.702
  24341813.932    -4004756.70849  -3102369.78445  24341813.143    24341817.661
  22483659.690   -16274868.81249 -12181604.40046  22483658.847    22483662.944
  23155483.311    -9527865.54749  -7136289.57846  23155482.753    23155487.302
  23137638.357   -11137320.71749  -8073231.38446  23137637.727    23137640.299
 03  3 23  2 55 30.0000000  0  8G14G25G31G11G23G15G 3G18
  20315812.947   -24431090.94949 -19006990.88848  20315812.316    20315814.082
  23252201.206   -11982447.60849  -9299996.02746  23252200.837    23252204.759
  22808197.575    -9275183.07549  -7200950.04946  22808196.904    22808201.053
  23727899.720   -10358285.19449  -8058606.41945  23727899.217    23727903.030
  24353692.884    -3942332.46849  -3053727.50345  24353692.140    24353696.508
  22501513.825   -16181044.72749 -12108494.72346  22501512.987    22501517.115
  23170147.657    -9450804.13749  -7076241.71846  23170147.121    23170151.586
  23150407.203   -11070219.79249  -8020944.93346  23150406.567    23150409.149
 03  3 23  2 56  0.0000000  0  8G14G25G31G11G23G15G 3G18
  20320326.578   -24407371.54949 -18988508.22448  20320325.951    20320327.704
  23233993.395   -12078129.67349  -9374553.40746  23233993.062    23233997.010
  22817082.829    -9228490.81249  -7164566.46246  22817082.152    22817086.284
  23709857.598   -10453096.77449  -8132485.45045  23709857.128    23709860.891
  24365579.566    -3879867.48149  -3005053.47045  24365578.840    24365583.189
  22519424.209   -16086924.98649 -12035154.67546  22519423.377    22519427.498
  23184851.509    -9373534.87749  -7016031.90246  23184851.001    23184855.442
  23163193.653   -11003026.26049  -7968586.32946  23163193.025    23163195.673
 03  3 23  2 56 30.0000000  0  8G14G25G31G11G23G15G 3G18
  20324925.248   -24383205.38749 -18969677.43448  20324924.617    20324926.373
  23215810.414   -12173681.40049  -9449009.22446  23215810.059    23215813.988
  22826050.692    -9181364.48949  -7127844.64746  22826050.034    22826054.123
  23691847.039   -10547742.59749  -8206235.32045  23691846.596    23691850.261
  24377474.686    -3817358.09149  -2956344.83345  24377474.016    24377478.272
  22537391.222   -15992507.85449 -11961582.88546  22537390.399    22537394.514
  23199595.024    -9296057.29149  -6955659.75146  23199594.515    23199598.943
  23175998.411   -10935736.69249  -7916152.88846  23175997.780    23176000.417
 03  3 23  2 57  0.0000000  0  8G14G25G31G11G23G15G 3G18
  20329608.364   -24358595.33049 -18950500.75248  20329607.725    20329609.503
  23197652.529   -12269101.48749  -9523362.45746  23197652.170    23197656.044
  22835100.508    -9133807.88449  -7090787.54646  22835099.780    22835103.879
  23673868.175   -10642221.81049  -8279855.36045  23673867.733    23673871.293
  24389378.104    -3754805.08349  -2907602.20145  24389377.406    24389381.691
  22555414.229   -15897796.36449 -11887781.73346  22555413.382    22555417.489
  23214377.318    -9218375.69049  -6895128.63546  23214376.861    23214381.270
  23188821.279   -10868352.28649  -7863645.55446  23188820.614    23188823.256
 03  3 23  2 57 30.0000000  0  8G14G25G31G11G23G15G 3G18
  20334375.398   -24333544.32349 -18930980.46648  20334374.785    20334376.536
  23179520.057   -12364388.18749  -9597611.76046  23179519.713    23179523.499
  22844231.389    -9085824.78349  -7053398.10846  22844230.678    22844234.747
  23655921.227   -10736533.33249  -8353344.73445  23655920.737    23655924.253
  24401289.640    -3692209.58349  -2858826.45745  24401288.909    24401293.257
  22573492.707   -15802793.52349 -11813753.55546  22573491.847    22573495.925
  23229197.642    -9140494.32449  -6834441.85546  23229197.171    23229201.532
  23201661.860   -10800874.60549  -7811065.52746  23201661.194    23201663.785
 03  3 23  2 58  0.0000000  0  8G14G25G31G11G23G15G 3G18
  20339226.279   -24308052.81849 -18911116.94248  20339225.667    20339227.418
  23161413.684   -12459537.58149  -9671754.07046  23161413.337    23161417.074
  22853443.164    -9037416.25949  -7015677.17846  22853442.481    22853446.561
  23638006.872   -10830673.51149  -8426700.59045  23638006.369    23638009.771
  24413209.552    -3629569.93549  -2810016.32445  24413208.828    24413213.043
  22591626.592   -15707499.29749 -11739498.31946  22591625.703    22591629.763
  23244055.642    -9062415.11549  -6773600.91546  23244055.156    23244059.551
  23214520.462   -10733302.26349  -7758411.74246  23214519.782    23214522.372
 03  3 23  2 58 30.0000000  0  8G14G25G31G11G23G15G 3G18
  20344160.699   -24282122.18949 -18890911.24048  20344160.081    20344161.808
  23143334.102   -12554546.34849  -9745786.81746  23143333.774    23143337.431
  22862735.542    -8988584.23449  -6977626.24746  22862734.908    22862738.997
  23620125.561   -10924639.81249  -8499920.95245  23620125.067    23620128.415
  24425138.033    -3566885.30449  -2761171.13445  24425137.279    24425141.511
  22609815.666   -15611915.03149 -11665017.07946  22609814.811    22609818.850
  23258950.853    -8984140.27349  -6712607.55146  23258950.404    23258954.767
  23227397.128   -10665634.89849  -7705683.91346  23227396.468    23227399.015
 03  3 23  2 59  0.0000000  0  8G14G25G31G11G23G15G 3G18
  20349178.130   -24255755.34449 -18870365.62648  20349177.518    20349179.226
  23125281.544   -12649413.13249  -9819708.91546  23125281.192    23125284.818
  22872107.801    -8939332.57549  -6939248.32346  22872107.170    22872111.277
  23602277.571   -11018431.06249  -8573004.92145  23602277.144    23602280.407
  24437074.866    -3504156.69149  -2712291.67045  24437074.115    24437078.354
  22628059.407   -15516043.66649 -11590312.12346  22628058.541    22628062.581
  23273882.459    -8905674.08349  -6651465.06146  23273881.977    23273886.361
  23240291.670   -10597873.55249  -7652882.84646  23240291.001    23240293.560
 03  3 23  2 59 30.0000000  0  8G14G25G31G11G23G15G 3G18
  20354278.546   -24228952.49249 -18849480.27048  20354277.927    20354279.614
  23107256.820   -12744133.56149  -9893516.97346  23107256.449    23107260.032
  22881559.748    -8889662.31649  -6900544.21946  22881559.106    22881563.250
  23584463.525   -11112043.77249  -8645949.76346  23584463.086    23584466.431
  24449020.319    -3441382.31349  -2663376.54045  24449019.556    24449023.958
  22646357.668   -15419885.57249 -11515383.74446  22646356.794    22646360.867
  23288850.192    -8827018.18649  -6590174.75546  23288849.705    23288854.102
  23253204.323   -10530016.80949  -7600007.45046  23253203.662    23253206.215
 03  3 23  3  0  0.0000000  0  8G14G25G31G11G23G15G 3G18
  20359461.297   -24201716.99349 -18828257.78248  20359460.669    20359462.345
  23089260.183   -12838706.28049  -9967209.94946  23089259.888    23089263.392
  22891090.621    -8839577.33349  -6861516.95346  22891089.988    22891094.097
  23566683.666   -11205476.94249  -8718754.71246  23566683.235    23566686.550
  24460974.332    -3378563.26249  -2614426.61045  24460973.650    24460977.993
  22664709.871   -15323443.97349 -11440234.45346  22664708.998    22664713.123
  23303853.163    -8748177.04249  -6528740.09746  23303852.718    23303857.069
  23266134.879   -10462066.30749  -7547058.98246  23266134.210    23266136.748
 03  3 23  3  0 30.0000000  0  8G14G25G31G11G23G15G 3G18
  20364726.278   -24174049.18749 -18806698.43248  20364725.644    20364727.354
  23071292.404   -12933127.14249 -10040784.57646  23071292.117    23071295.602
  22900700.159    -8789078.94849  -6822167.55446  22900699.516    22900703.600
  23548938.679   -11298727.08749  -8791417.02546  23548938.180    23548941.532
  24472937.131    -3315697.96149  -2565440.63245  24472936.579    24472940.821
  22683116.022   -15226719.17049 -11364864.48546  22683115.146    22683119.264
  23318891.085    -8669152.41149  -6467162.46946  23318890.628    23318895.005
  23279083.524   -10394020.62349  -7494036.35246  23279082.855    23279085.400
 03  3 23  3  1  0.0000000  0  8G14G25G31G11G23G15G 3G18
  20370072.825   -24145952.73349 -18784805.06948  20370072.183    20370073.914
  23053353.657   -13027395.50349 -10114240.39046  23053353.376    23053356.877
  22910387.512    -8738171.56849  -6782499.46946  22910386.899    22910390.938
  23531228.572   -11391793.85849  -8863936.47846  23531228.070    23531231.451
  24484908.540    -3252787.90149  -2516419.78145  24484907.970    24484912.251
  22701575.366   -15129714.58149 -11289276.50246  22701574.487    22701578.619
  23333963.030    -8589948.88349  -6405445.44246  23333962.544    23333966.986
  23292049.908   -10325881.83849  -7440941.17346  23292049.220    23292051.812
 03  3 23  3  1 30.0000000  0  8G14G25G31G11G23G15G 3G18
  20375500.858   -24117428.28349 -18762578.20548  20375500.215    20375501.945
  23035444.772   -13121507.07949 -10187574.03146  23035444.464    23035447.984
  22920152.529    -8686856.31149  -6742513.55346  22920151.889    22920155.858
  23513554.061   -11484673.47849  -8936310.09246  23513553.546    23513556.924
  24496888.719    -3189831.52249  -2467362.83545  24496888.067    24496892.346
  22720087.862   -15032430.63049 -11213470.82246  22720087.001    22720091.142
  23349068.662    -8510568.08049  -6343590.29446  23349068.126    23349072.680
  23305034.222   -10257648.55149  -7387772.36246  23305033.561    23305036.142
 03  3 23  3  2  0.0000000  0  8G14G25G31G11G23G15G 3G18
  20381010.185   -24088476.43249 -18740018.30348  20381009.541    20381011.240
  23017566.429   -13215458.18349 -10260782.62246  23017566.090    23017569.617
  22929994.831    -8635134.80749  -6702211.08046  22929994.165    22929998.100
  23495915.685   -11577362.95949  -9008535.55546  23495915.207    23495918.616
  24508877.992    -3126827.45849  -2418268.74645  24508877.328    24508881.618
  22738653.386   -14934868.22649 -11137448.18346  22738652.508    22738656.702
  23364207.605    -8431012.23449  -6281598.73946  23364207.066    23364211.679
  23318036.728   -10189319.82849  -7334529.19046  23318036.100    23318038.659
 03  3 23  3  2 30.0000000  0  8G14G25G31G11G23G15G 3G18
  20386600.280   -24059100.32049 -18717127.80348  20386599.631    20386601.333
  22999718.862   -13309247.51549 -10333865.16446  22999718.497    22999722.073
  22939913.628    -8583010.99549  -6661595.12546  22939913.019    22939916.983
  23478313.765   -11669861.18949  -9080611.98246  23478313.331    23478316.689
  24520876.090    -3063776.72149  -2369138.27645  24520875.371    24520879.737
  22757271.280   -14837030.47849 -11061210.98446  22757270.370    22757274.619
  23379379.045    -8351285.56649  -6219474.06346  23379378.563    23379383.156
  23331057.162   -10120896.87049  -7281212.58346  23331056.546    23331059.109
 03  3 23  3  3  0.0000000  0  8G14G25G31G11G23G15G 3G18
  20392270.800   -24029301.26049 -18693907.73948  20392270.165    20392271.867
  22981902.721   -13402871.56849 -10406818.92846  22981902.400    22981905.959
  22949908.671    -8530486.92849  -6620667.27746  22949908.039    22949911.973
  23460748.791   -11762165.24449  -9152537.11146  23460748.372    23460751.702
  24532883.260    -3000678.37249  -2319970.70745  24532882.659    24532886.973
  22775941.325   -14738918.52949 -10984760.13146  22775940.425    22775944.697
  23394582.512    -8271390.48149  -6157218.16346  23394582.078    23394586.732
  23344095.652   -10052379.16949  -7227822.16446  23344095.029    23344097.590
 03  3 23  3  3 30.0000000  0  8G14G25G31G11G23G15G 3G18
  20398021.372   -23999081.79349 -18670360.08648  20398020.734    20398022.417
  22964118.419   -13496328.26749 -10479642.27146  22964118.072    22964121.650
  22959979.272    -8477565.72149  -6579429.98046  22959978.608    22959982.594
  23443221.052   -11854273.63549  -9224309.77446  23443220.646    23443223.937
  24544899.418    -2937532.62949  -2270766.20945  24544898.850    24544903.146
  22794663.095   -14640534.84949 -10908097.53146  22794662.193    22794666.454
  23409817.360    -8191330.63649  -6094833.87746  23409816.911    23409821.620
  23357151.993    -9983767.47649  -7174358.48846  23357151.380    23357153.945
 03  3 23  3  4  0.0000000  0  8G14G25G31G11G23G15G 3G18
  20403851.655   -23968443.22949 -18646485.86448  20403851.018    20403852.720
  22946366.586   -13589614.42849 -10552332.73746  22946366.242    22946369.838
  22970124.916    -8424249.79149  -6537885.09946  22970124.254    22970128.267
  23425731.076   -11946183.62049  -9295927.84346  23425730.634    23425733.866
  24556924.762    -2874339.02949  -2221524.41045  24556924.125    24556928.421
  22813436.385   -14541880.77549 -10831224.23546  22813435.487    22813439.748
  23425083.111    -8111108.64349  -6032323.24546  23425082.663    23425087.370
  23370226.324    -9915061.31349  -7120821.21346  23370225.720    23370228.244
 03  3 23  3  4 30.0000000  0  8G14G25G31G11G23G15G 3G18
  20409761.431   -23937386.85949 -18622286.07848  20409760.797    20409762.516
  22928647.770   -13682726.97349 -10624887.91146  22928647.437    22928651.025
  22980345.268    -8370541.21349  -6496034.26346  22980344.639    22980348.715
  23408279.359   -12037892.44849  -9367389.16146  23408278.896    23408282.153
  24568959.317    -2811096.80049  -2172244.73045  24568958.734    24568962.993
  22832260.880   -14442957.53049 -10754141.19146  22832259.975    22832264.220
  23440379.269    -8030726.91649  -5969688.13846  23440378.823    23440383.551
  23383318.701    -9846260.34749  -7067210.05546  23383318.116    23383320.626
 03  3 23  3  5  0.0000000  0  8G14G25G31G11G23G15G 3G18
  20415750.352   -23905914.84649 -18597762.41348  20415749.721    20415751.437
  22910962.533   -13775663.28549 -10697305.76446  22910962.211    22910965.781
  22990639.798    -8316442.83749  -6453879.68646  22990639.232    22990643.278
  23390866.281   -12129398.11149  -9438692.15646  23390865.841    23390869.111
  24581003.224    -2747805.66849  -2122926.94945  24581002.606    24581006.915
  22851136.209   -14343767.13849 -10676849.98346  22851135.298    22851139.562
  23455705.154    -7950188.85749  -5906931.21546  23455704.734    23455709.389
  23396429.102    -9777364.70849  -7013525.12146  23396428.500    23396431.055
 03  3 23  3  5 30.0000000  0  8G14G25G31G11G23G15G 3G18
  20421817.818   -23874029.99249 -18572917.06048  20421817.190    20421818.926
  22893311.197   -13868421.54749 -10769584.87346  22893310.871    22893314.447
  23001007.883    -8261958.18949  -6411424.11646  23001007.284    23001011.309
  23373492.205   -12220699.14049  -9509835.71346  23373491.728    23373495.020
  24593056.288    -2684466.27249  -2073571.57245  24593055.632    24593060.074
  22870061.782   -14244312.51249 -10599352.87746  22870060.876    22870065.126
  23471060.039    -7869498.43349  -5844055.56046  23471059.603    23471064.275
  23409557.293    -9708375.46449  -6959767.25546  23409556.691    23409559.202
 03  3 23  3  6  0.0000000  0  8G14G25G31G11G23G15G 3G18
  20427963.986   -23841731.61949 -18547749.47848  20427963.355    20427965.102
  22875694.775   -13960996.23149 -10841720.93246  22875694.446    22875698.014
  23011449.426    -8207087.47549  -6368667.71046  23011448.815    23011452.839
  23356158.010   -12311790.71049  -9580816.05746  23356157.529    23356160.776
  24605119.179    -2621075.50049  -2024176.15145  24605118.531    24605122.935
  22889037.821   -14144592.70349 -10521649.13946  22889036.949    22889041.196
  23486443.839    -7788656.03849  -5781061.50146  23486443.393    23486448.088
  23422703.827    -9639289.91349  -6905934.33846  23422703.170    23422705.722
 03  3 23  3  6 30.0000000  0  8G14G25G31G11G23G15G 3G18
  20434187.955   -23809024.32549 -18522263.26248  20434187.327    20434189.079
  22858113.291   -14053387.47249 -10913714.05546  22858112.938    22858116.487
  23021963.440    -8151836.11849  -6325614.70946  23021962.817    23021966.847
  23338863.557   -12402673.42649  -9651633.65146  23338863.041    23338866.259
  24617191.345    -2557635.84249  -1974742.61845  24617190.763    24617195.028
  22908063.497   -14044612.22149 -10443742.26446  22908062.648    22908066.876
  23501855.499    -7707667.31449  -5717953.40946  23501855.015    23501859.728
  23435868.162    -9570110.72649  -6852028.46345  23435867.487    23435870.030
 03  3 23  3  7  0.0000000  0  8G14G25G31G11G23G15G 3G18
  20440489.644   -23775908.59249 -18496458.78048  20440489.024    20440490.771
  22840567.507   -14145591.11449 -10985560.99046  22840567.125    22840570.683
  23032549.661    -8096205.25349  -6282265.98146  23032548.959    23032553.025
  23321609.597   -12493343.20049  -9722285.31446  23321609.126    23321612.245
  24629273.205    -2494145.62049  -1925269.69445  24629272.629    24629276.898
  22927138.693   -13944371.28449 -10365632.45446  22927137.883    22927142.065
  23517294.717    -7626533.57249  -5654732.32946  23517294.246    23517298.937
  23449050.541    -9500836.60649  -6798048.62845  23449049.861    23449052.476
 03  3 23  3  7 30.0000000  0  8G14G25G31G11G23G15G 3G18
  20446868.410   -23742387.79149 -18470338.66048  20446867.788    20446869.530
  22823057.580   -14237606.08449 -11057260.91946  22823057.197    22823060.772
  23043207.205    -8040199.15249  -6238624.86846  23043206.550    23043210.644
  23304396.229   -12583799.48549  -9792770.62746  23304395.763    23304398.839
  24641364.338    -2430606.18749  -1875758.43945  24641363.659    24641367.948
  22946262.794   -13843873.59449 -10287322.56346  22946261.973    22946266.182
  23532760.662    -7545259.63449  -5591401.99646  23532760.169    23532764.839
  23462250.769    -9431468.86149  -6743995.82245  23462250.102    23462252.739
 03  3 23  3  8  0.0000000  0  8G14G25G31G11G23G15G 3G18
  20453324.516   -23708460.64649 -18443901.90448  20453323.889    20453325.638
  22805584.762   -14329426.28949 -11128809.08746  22805584.393    22805587.923
  23053936.302    -7983817.33249  -6194690.97546  23053935.633    23053939.780
  23287224.575   -12674036.77149  -9863085.28546  23287224.120    23287227.144
  24653465.547    -2367013.77349  -1826205.88345  24653464.901    24653469.097
  22965435.986   -13743117.75049 -10208811.52046  22965435.130    22965439.376
  23548253.451    -7463844.86449  -5527961.92346  23548252.914    23548257.550
  23475469.442    -9362004.22949  -6689867.52246  23475468.771    23475471.398
 03  3 23  3  8 30.0000000  0  8G14G25G31G11G23G15G 3G18
  20459857.001   -23674131.98549 -18417152.28648  20459856.376    20459858.137
  22788148.981   -14421051.80749 -11200205.54546  22788148.622    22788152.103
  23064735.763    -7927065.53349  -6150468.78946  23064735.096    23064739.275
  23270094.456   -12764055.83549  -9933229.90546  23270093.979    23270096.996
  24665576.246    -2303371.20749  -1776614.24045  24665575.628    24665579.847
  22984657.378   -13642108.53749 -10130103.02646  22984656.523    22984660.806
  23563771.766    -7382295.58549  -5464417.03546  23563771.260    23563775.876
  23488705.898    -9292446.15849  -6635666.41246  23488705.248    23488707.898
 03  3 23  3  9  0.0000000  0  8G14G25G31G11G23G15G 3G18
  20466465.776   -23639402.62449 -18390090.42548  20466465.131    20466466.912
  22770750.960   -14512479.02849 -11271447.48946  22770750.597    22770754.008
  23075605.333    -7869945.50049  -6105959.67046  23075604.661    23075608.864
  23253006.555   -12853853.04349 -10003201.66146  23253006.049    23253009.035
  24677696.763    -2239677.08149  -1726982.42345  24677696.156    24677700.432
  23003926.845   -13540846.69149 -10051197.70846  23003925.973    23003930.326
  23579315.302    -7300613.85849  -5400768.94146  23579314.819    23579319.380
  23501960.318    -9222793.60049  -6581391.67045  23501959.702    23501962.302
 03  3 23  3  9 30.0000000  0  8G14G25G31G11G23G15G 3G18
  20473150.442   -23604274.41549 -18362717.77448  20473149.793    20473151.573
  22753391.209   -14603705.08649 -11342532.68446  22753390.835    22753394.226
  23086544.501    -7812459.65849  -6061165.49246  23086543.808    23086548.093
  23235961.343   -12943425.99549 -10072998.66246  23235960.869    23235963.738
  24689827.204    -2175930.83149  -1677310.00945  24689826.599    24689830.932
  23023244.029   -13439334.09149  -9972096.99146  23023243.151    23023247.507
  23594883.521    -7218802.39749  -5337019.74946  23594883.092    23594887.559
  23515232.781    -9153046.21149  -6527043.04645  23515232.164    23515234.818
 03  3 23  3 10  0.0000000  0  8G14G25G31G11G23G15G 3G18
  20479910.912   -23568747.60549 -18335034.53148  20479910.273    20479912.064
  22736070.571   -14694725.55149 -11413457.67746  22736070.196    22736073.578
  23097553.050    -7754609.11549  -6016087.15646  23097552.377    23097556.660
  23218959.516   -13032770.75549 -10142617.86446  23218959.019    23218961.846
  24701968.045    -2112130.42549  -1627595.37845  24701967.564    24701971.773
  23042608.941   -13337570.94149  -9892801.03646  23042608.064    23042612.350
  23610476.241    -7136862.33249  -5273170.35846  23610475.778    23610480.246
  23528523.629    -9083202.20449  -6472619.13945  23528523.012    23528525.693
 03  3 23  3 10 30.0000000  0  8G14G25G31G11G23G15G 3G18
  20486746.197   -23532827.85449 -18307045.09048  20486745.561    20486747.344
  22718788.856   -14785541.19049 -11484223.05846  22718788.510    22718791.845
  23108629.812    -7696400.40349  -5970729.70246  23108629.129    23108633.417
  23202000.844   -13121888.69849 -10212060.31746  23202000.370    23202003.108
  24714118.507    -2048279.30049  -1577841.22645  24714117.962    24714122.263
  23062020.412   -13235562.88149  -9813314.23646  23062019.506    23062023.864
  23626092.105    -7054800.44349  -5209226.01646  23626091.657    23626096.134
  23541832.124    -9013265.27449  -6418122.81845  23541831.559    23541834.252
 03  3 23  3 11  0.0000000  0  8G14G25G31G11G23G15G 3G18
  20493656.350   -23496514.70049 -18278749.11048  20493655.717    20493657.481
  22701547.149   -14876146.82449 -11554824.81446  22701546.796    22701550.105
  23119774.617    -7637833.95249  -5925093.50046  23119773.943    23119778.212
  23185086.170   -13210775.38749 -10281322.59046  23185085.699    23185088.431
  24726279.108    -1984374.82549  -1528045.50145  24726278.554    24726282.840
  23081478.605   -13133309.32449  -9733636.14546  23081477.686    23081482.085
  23641731.041    -6972617.38049  -5145187.27046  23641730.541    23641735.059
  23555158.815    -8943233.12149  -6363552.29945  23555158.213    23555160.862
 03  3 23  3 11 30.0000000  0  8G14G25G31G11G23G15G 3G18
  20500641.134   -23459809.42749 -18250147.58048  20500640.482    20500642.252
  22684346.005   -14966539.17849 -11625260.36446  22684345.654    22684348.931
  23130987.157    -7578911.77149  -5879180.11446  23130986.451    23130990.709
  23168216.147   -13299427.43149 -10350402.00746  23168215.668    23168218.444
  24738450.112    -1920415.91449  -1478207.36145  24738449.517    24738453.833
  23100983.341   -13030811.34049  -9653767.59546  23100982.393    23100986.828
  23657392.581    -6890315.43749  -5081055.89245  23657392.048    23657396.648
  23568503.775    -8873105.04849  -6308907.02645  23568503.145    23568505.778
 03  3 23  3 12  0.0000000  0  8G14G25G31G11G23G15G 3G18
  20507699.849   -23422715.35949 -18221243.09248  20507699.215    20507701.005
  22667185.580   -15056717.40149 -11695529.04946  22667185.264    22667188.528
  23142266.522    -7519638.23349  -5832992.92546  23142265.813    23142270.072
  23151390.961   -13387843.81949 -10419297.79846  23151390.497    23151393.257
  24750631.257    -1856403.66349  -1428327.66045  24750630.645    24750634.837
  23120533.955   -12928072.31849  -9573711.22346  23120533.028    23120537.444
  23673075.882    -6807899.13849  -5016835.40045  23673075.391    23673079.967
  23581866.658    -8802882.47949  -6254188.12445  23581866.084    23581868.723
 03  3 23  3 12 30.0000000  0  8G14G25G31G11G23G15G 3G18
  20514832.367   -23385233.55549 -18192036.47148  20514831.738    20514833.516
  22650066.715   -15146677.45449 -11765627.74746  22650066.425    22650069.637
  23153612.445    -7460014.91049  -5786533.18346  23153611.729    23153615.962
  23134611.215   -13476021.60449 -10488007.66746  23134610.733    23134613.518
  24762822.748    -1792336.71149  -1378405.33345  24762822.115    24762826.333
  23140130.286   -12825093.05449  -9493467.64346  23140129.352    23140133.700
  23688780.595    -6725370.29749  -4952527.21645  23688780.078    23688784.643
  23595247.699    -8732564.37449  -6199394.77645  23595247.101    23595249.779
 03  3 23  3 13  0.0000000  0  8G14G25G31G11G23G15G 3G18
  20522038.120   -23347366.93949 -18162529.99648  20522037.489    20522039.269
  22632989.668   -15236417.60349 -11835555.08346  22632989.387    22632992.584
  23165024.173    -7400045.81749  -5739804.00546  23165023.488    23165027.708
  23117877.133   -13563959.36349 -10556530.50846  23117876.637    23117879.397
  24775024.473    -1728215.95349  -1328441.07445  24775023.868    24775028.112
  23159771.729   -12721876.56149  -9413039.20646  23159770.854    23159775.183
  23704505.911    -6642733.24149  -4888134.72245  23704505.392    23704509.915
  23608646.806    -8662151.57049  -6144527.63945  23608646.175    23608648.925
 03  3 23  3 13 30.0000000  0  8G14G25G31G11G23G15G 3G18
  20529316.944   -23309116.50849 -18132724.44948  20529316.310    20529318.086
  22615955.200   -15325934.17549 -11905308.20746  22615954.910    22615958.102
  23176501.357    -7339732.84549  -5692806.88146  23176500.702    23176504.871
  23101189.367   -13651653.83949 -10624863.76746  23101188.920    23101191.648
  24787236.718    -1664040.05249  -1278433.86245  24787236.174    24787240.310
  23179458.085   -12618423.94049  -9332426.79146  23179457.215    23179461.541
  23720251.447    -6559989.80149  -4823659.32945  23720250.932    23720255.481
  23622064.030    -8591643.67849  -6089586.41245  23622063.425    23622066.083
 03  3 23  3 14  0.0000000  0  8G14G25G31G11G23G15G 3G18
  20536668.470   -23270483.93049 -18102621.12748  20536667.831    20536669.603
  22598963.808   -15415224.29349 -11974884.86646  22598963.503    22598966.678
  23188043.514    -7279078.42449  -5645543.68346  23188042.853    23188046.963
  23084548.389   -13739102.35949 -10693005.38246  23084547.910    23084550.693
  24799459.600    -1599808.21749  -1228383.06145  24799459.002    24799463.157
  23199189.136   -12514736.70549  -9251631.55146  23199188.286    23199192.636
  23736016.751    -6477142.32649  -4759102.86845  23736016.239    23736020.906
  23635499.502    -8521039.80749  -6034570.39945  23635498.915    23635501.511
 03  3 23  3 14 30.0000000  0  7G14G25G31G11G15G 3G18
  20544092.135   -23231472.34449 -18072222.47048  20544091.501    20544093.247
  22582015.814   -15504286.39349 -12044283.85046  22582015.496    22582018.679
  23199649.924    -7218086.55849  -5598017.54446  23199649.237    23199653.294
  23067954.441   -13826303.68249 -10760954.36646  23067953.938    23067956.743
  23218964.232   -12410817.62549  -9170655.64946  23218963.376    23218967.739
  23751801.055    -6394195.08749  -4694468.67145  23751800.550    23751805.208
  23648953.092    -8450341.02949  -5979480.43045  23648952.491    23648954.926
 03  3 23  3 15  0.0000000  0  7G14G25G31G11G15G 3G18
  20551587.928   -23192081.47149 -18041528.26448  20551587.282    20551589.023
  22565112.172   -15593115.36049 -12113501.17646  22565111.828    22565115.034
  23211320.401    -7156757.87449  -5550228.94246  23211319.718    23211323.742
  23051408.392   -13913253.56849 -10828707.43046  23051407.883    23051410.672
  23238783.518   -12306666.61349  -9089499.01846  23238782.695    23238787.056
  23767604.253    -6311148.91949  -4629757.38045  23767603.779    23767608.439
  23662425.015    -8379545.58949  -5924315.14745  23662424.385    23662426.831
 03  3 23  3 15 30.0000000  0  7G14G25G31G11G15G 3G18
  20559155.151   -23152315.29149 -18010541.60848  20559154.514    20559156.259
  22548253.067   -15681710.37149 -12182536.19746  22548252.710    22548255.932
  23223054.042    -7095097.10549  -5502181.57646  23223053.355    23223057.387
  23034910.370   -13999951.07849 -10896263.83446  23034909.884    23034912.603
  23258646.141   -12202287.68449  -9008164.80046  23258645.305    23258649.725
  23783425.295    -6228008.67549  -4564972.78845  23783424.867    23783429.508
  23675914.986    -8308655.23549  -5869075.90245  23675914.385    23675916.717
 03  3 23  3 16  0.0000000  0  7G14G25G31G11G15G 3G18
  20566793.237   -23112176.74649 -17979264.80748  20566792.616    20566794.349
  22531438.770   -15770069.95849 -12251387.77646  22531438.430    22531441.630
  23234850.150    -7033108.19249  -5453878.52346  23234849.478    23234853.490
  23018460.509   -14086395.31849 -10963622.90346  23018460.012    23018462.716
  23278551.617   -12097683.79449  -8926655.28546  23278550.754    23278555.209
  23799263.450    -6144778.38549  -4500118.02945  23799262.994    23799267.698
  23689422.803    -8237671.04149  -5813763.53145  23689422.214    23689424.577
 03  3 23  3 16 30.0000000  0  7G14G25G31G11G15G 3G18
  20574502.342   -23071665.15249 -17947697.31648  20574501.709    20574503.446
  22514670.297   -15858188.63349 -12320051.62746  22514669.949    22514673.177
  23246708.648    -6970791.20549  -5405319.82046  23246708.009    23246711.969
  23002059.848   -14172580.94749 -11030780.43946  23002059.336    23002062.017
  23298500.067   -11992853.97349  -8844969.71846  23298499.195    23298503.685
  23815118.818    -6061457.97949  -4435193.05345  23815118.337    23815123.041
  23702949.066    -8166590.08849  -5758375.76345  23702948.480    23702950.840
 03  3 23  3 17  0.0000000  0  7G14G25G31G11G15G 3G18
  20582281.804   -23030783.82449 -17915841.71948  20582281.163    20582282.901
  22497947.952   -15946064.82949 -12388526.53446  22497947.595    22497950.844
  23258628.759    -6908150.48849  -5356508.86346  23258628.137    23258632.063
  22985708.567   -14258507.18049 -11097735.85846  22985708.085    22985710.734
  23318490.867   -11887801.67649  -8763110.79146  23318489.975    23318494.467
  23830990.452    -5978052.00049  -4370201.39545  23830989.919    23830994.702
  23716493.483    -8095413.66449  -5702913.59845  23716492.914    23716495.225
 03  3 23  3 17 30.0000000  0  7G14G25G31G11G15G 3G18
  20590131.180   -22989535.10149 -17883699.84548  20590130.549    20590132.280
  22481272.132   -16033696.53549 -12456810.93446  22481271.780    22481275.018
  23270609.974    -6845189.08149  -5307448.01646  23270609.362    23270613.231
  22969407.112   -14344171.58849 -11164487.25946  22969406.591    22969409.264
  23338523.592   -11782529.13349  -8681080.24746  23338522.736    23338527.150
  23846877.754    -5894563.60049  -4305145.52345  23846877.270    23846882.061
  23730055.967    -8024142.26349  -5647377.42345  23730055.434    23730057.673
 03  3 23  3 18  0.0000000  0  7G14G25G31G11G15G 3G18
  20598050.076   -22947920.90849 -17851273.18748  20598049.437    20598051.164
  22464643.392   -16121081.01949 -12524902.69246  22464643.051    22464646.286
  23282651.610    -6781909.94849  -5258139.59446  23282650.986    23282654.832
  22953155.863   -14429572.07449 -11231033.00946  22953155.342    22953157.999
  23358597.841   -11677038.23149  -8598879.54446  23358597.009    23358601.370
  23862780.197    -5810995.75149  -4240027.73245  23862779.691    23862784.513
  23743636.517    -7952775.74549  -5591767.14245  23743635.953    23743638.253
 03  3 23  3 18 30.0000000  0  7G14G25G31G11G15G 3G18
  20606038.350   -22905942.22849 -17818562.51248  20606037.717    20606039.433
  22448062.485   -16208214.02949 -12592798.49046  22448062.140    22448065.354
  23294753.388    -6718314.76549  -5208584.89746  23294752.748    23294756.563
  22936955.495   -14514705.23149 -11297370.44646  22936954.977    22936957.609
  23378713.531   -11571329.72149  -8516509.27246  23378712.694    23378717.010
  23878697.406    -5727350.31749  -4174849.48645  23878696.932    23878701.667
  23757235.435    -7881312.95549  -5536081.84345  23757234.839    23757237.102
 03  3 23  3 19  0.0000000  0  7G14G25G31G11G15G 3G18
  20614095.494   -22863601.59649 -17785569.79848  20614094.839    20614096.555
  22431529.843   -16295093.66449 -12660496.86546  22431529.495    22431532.669
  23306914.584    -6654407.17449  -5158786.77346  23306913.939    23306917.784
  22920806.341   -14599569.21549 -11363498.14946  22920805.837    22920808.451
  23398870.103   -11465406.29949  -8433971.54445  23398869.280    23398873.570
  23894628.782    -5643630.71949  -4109613.44845  23894628.313    23894633.039
  23770852.538    -7809754.50949  -5480321.99345  23770851.962    23770854.153
 03  3 23  3 19 30.0000000  0  7G14G25G31G11G15G 3G18
  20622221.077   -22820901.45949 -17752296.94648  20622220.414    20622222.123
  22415045.754   -16381717.83549 -12727996.16847  22415045.427    22415048.581
  23319134.600    -6590190.50349  -5108747.80346  23319133.910    23319137.803
  22904708.772   -14684162.21249 -11429414.68946  22904708.281    22904710.840
  23419067.078   -11359270.39549  -8351268.24745  23419066.238    23419070.482
  23910573.587    -5559840.36249  -4044322.29045  23910573.124    23910577.775
  23784487.798    -7738100.67449  -5424487.82445  23784487.143    23784489.421
 03  3 23  3 20  0.0000000  0  7G14G25G31G11G15G 3G18
  20630414.849   -22777842.61249 -17718744.58248  20630414.201    20630415.895
  22398611.053   -16468082.65049 -12795293.38847  22398610.704    22398613.870
  23331413.170    -6525666.25749  -5058469.16146  23331412.509    23331416.401
  22888663.468   -14768480.45449 -11495117.13446  22888662.989    22888665.534
  23439304.395   -11252922.53449  -8268399.77845  23439303.598    23439307.847
  23926531.580    -5475980.76449  -3978977.15745  23926531.127    23926535.751
  23798141.428    -7666350.22349  -5368578.36845  23798140.810    23798143.168
 03  3 23  3 20 30.0000000  0  7G14G25G31G11G15G 3G18
  20638676.206   -22734428.87949 -17684915.67948  20638675.562    20638677.274
  22382225.868   -16554187.16249 -12862387.76247  22382225.538    22382228.685
  23343749.347    -6460839.13149  -5007954.51046  23343748.689    23343752.597
  22872670.521   -14852523.59449 -11560605.22546  22872670.070    22872672.580
  23459581.279   -11146366.74949  -8185369.29745  23459580.460    23459584.718
  23942501.757    -5392056.82549  -3913581.91345  23942501.271    23942505.957
  23811813.077    -7594505.00949  -5312595.08445  23811812.516    23811814.835
 03  3 23  3 21  0.0000000  0  7G14G25G31G11G15G 3G18
  20647005.111   -22690659.93749 -17650809.99448  20647004.476    20647006.191
  22365891.181   -16640026.29949 -12929275.35347  22365890.846    22365894.003
  23356142.991    -6395709.95449  -4957204.50046  23356142.319    23356146.281
  22856730.880   -14936286.71849 -11625875.11746  22856730.445    22856732.899
  23479897.783   -11039602.76349  -8102176.59245  23479896.876    23479901.208
  23958484.093    -5308069.14749  -3848136.98545  23958483.577    23958488.339
  23825503.162    -7522562.63849  -5256536.08045  23825502.588    23825505.007
 03  3 23  3 21 30.0000000  0  7G14G25G31G11G15G 3G18
  20655400.833   -22646539.96949 -17616430.78248  20655400.194    20655401.920
  22349607.086   -16725599.55249 -12995955.76347  22349606.750    22349609.895
  23368593.249    -6330283.62549  -4906222.94446  23368592.560    23368596.522
  22840844.496   -15019769.79549 -11690926.78846  22840844.053    22840846.485
  23500253.202   -10932634.48049  -8018824.69045  23500252.324    23500256.568
  23974477.578    -5224022.78949  -3782646.33645  23974477.145    23974481.853
  23839211.419    -7450525.14949  -5200402.96945  23839210.828    23839213.312
 03  3 23  3 22  0.0000000  0  7G14G25G31G11G15G 3G18
  20663863.315   -22602069.21149 -17581778.22648  20663862.676    20663864.394
  22333374.366   -16810902.73449 -13062425.73047  22333374.037    22333377.197
  23381099.744    -6264561.39449  -4855010.81046  23381099.062    23381103.014
  22825012.196   -15102968.63349 -11755756.98246  22825011.763    22825014.185
  23520647.360   -10825462.34949  -7935313.92545  23520646.545    23520650.714
  23990482.047    -5139918.86149  -3717110.82645  23990481.635    23990486.277
  23852938.123    -7378390.99949  -5144194.54645  23852937.455    23852939.997
 03  3 23  3 22 30.0000000  0  7G14G25G31G11G15G 3G18
  20672391.797   -22557251.73249 -17546855.49448  20672391.151    20672392.870
  22317193.226   -16895935.04449 -13128684.62047  22317192.889    22317196.069
  23393661.623    -6198548.19049  -4803571.93946  23393660.925    23393664.952
  22809234.079   -15185882.79449 -11820365.33746  22809233.626    22809236.049
  23541079.599   -10718090.28649  -7851647.38645  23541078.800    23541083.026
  24006496.511    -5055762.29649  -3651534.29745  24006496.068    24006500.673
  23866682.874    -7306162.01149  -5087912.20345  23866682.170    23866684.725
 03  3 23  3 23  0.0000000  0  7G14G25G31G11G15G 3G18
  20680986.384   -22512086.81949 -17511662.03748  20680985.742    20680987.455
  22301064.665   -16980690.91849 -13194728.10447  22301064.305    22301067.531
  23406278.783    -6132244.25049  -4751906.52946  23406278.151    23406282.180
  22793511.087   -15268507.32649 -11884748.01446  22793510.651    22793513.037
  23561549.958   -10610517.65449  -7767824.55945  23561549.139    23561553.442
  24022520.925    -4971553.33449  -3585916.93145  24022520.455    24022525.147
  23880446.148    -7233835.32649  -5031553.76245  23880445.531    23880447.993
 03  3 23  3 23 30.0000000  0  7G14G25G31G11G15G 3G18
  20689646.171   -22466579.15249 -17476201.49948  20689645.527    20689647.251
  22284988.706   -17065170.45649 -13260556.26247  22284988.354    22284991.553
  23418950.272    -6065654.96749  -4700018.78146  23418949.579    23418953.709
  22777843.198   -15350842.37949 -11948905.12646  22777842.768    22777845.093
  23582057.629   -10502749.07749  -7683849.04945  23582056.852    23582061.172
  24038554.339    -4887297.13149  -3520262.78445  24038553.876    24038558.614
  23894227.576    -7161413.55449  -4975121.20445  23894226.942    23894229.435
 03  3 23  3 24  0.0000000  0  7G14G25G31G11G15G 3G18
  20698370.966   -22420729.86149 -17440474.76548  20698370.336    20698372.041
  22268966.024   -17149370.02549 -13326166.27047  22268965.666    22268968.865
  23431675.630    -5998782.46849  -4647910.33546  23431674.989    23431679.143
  22762230.975   -15432884.81549 -12012834.21746  22762230.526    22762232.864
  23602602.438   -10394785.42949  -7599721.55345  23602601.619    23602605.981
  24054596.308    -4802995.86549  -3454573.50145  24054595.870    24054600.659
  23908027.259    -7088895.70549  -4918613.79445  23908026.618    23908029.108
 03  3 23  3 24 30.0000000  0  7G14G25G31G11G15G 3G18
  20707160.682   -22374539.51449 -17404482.27248  20707160.051    20707161.751
  22252997.349   -17233285.93349 -13391555.23847  22252996.971    22253000.153
  23444454.549    -5931628.67349  -4595582.70246  23444453.913    23444458.083
  22746675.119   -15514630.97249 -12076532.45346  22746674.685    22746677.028
  23623184.169   -10286627.72149  -7515442.82245  23623183.331    23623187.698
  24070646.551    -4718651.18749  -3388850.39445  24070646.108    24070650.897
  23921845.393    -7016280.81549  -4862030.75945  23921844.712    23921847.261
 03  3 23  3 25  0.0000000  0  7G14G25G31G11G15G 3G18
  20716014.799   -22328010.86849 -17368226.16848  20716014.152    20716015.866
  22237083.067   -17316915.95649 -13456721.44147  22237082.668    22237085.811
  23457286.442    -5864196.66549  -4543038.28146  23457285.769    23457289.972
  22731176.068   -15596078.79049 -12139998.21146  22731175.635    22731177.953
  23643802.412   -10178278.25549  -7431014.67645  23643801.547    23643805.911
  24086704.493    -4634266.38449  -3323096.01045  24086704.002    24086708.756
  23935681.937    -6943569.19949  -4805372.36945  23935681.243    23935683.837
 03  3 23  3 25 30.0000000  0  7G14G25G31G11G15G 3G18
  20724932.442   -22281148.30849 -17331709.87248  20724931.798    20724933.520
  22221223.158   -17400260.14249 -13521664.91247  22221222.768    22221225.863
  23470170.108    -5796492.33449  -4490281.65846  23470169.440    23470173.684
  22715733.651   -15677228.82849 -12203231.93546  22715733.205    22715735.523
  23664456.244   -10069741.82749  -7346440.83945  23664455.368    23664459.715
  24102769.004    -4549847.18949  -3257314.83045  24102768.421    24102773.203
  23949536.446    -6870763.24849  -4748640.46945  23949535.711    23949538.266
 03  3 23  3 26  0.0000000  0  7G14G25G31G11G15G 3G18
  20733913.937   -22233950.02049 -17294931.97148  20733913.301    20733915.022
  22205418.926   -17483311.75549 -13586380.40747  22205418.559    22205421.613
  23483105.894    -5728514.43249  -4437311.86446  23483105.254    23483109.439
  22700349.174   -15758074.45949 -12266228.45746  22700348.716    22700351.034
  23685146.045    -9961016.31649  -7261719.67345  23685145.155    23685149.548
  24118840.275    -4465392.25549  -3191505.79445  24118839.725    24118844.376
  23963409.656    -6797858.99749  -4691831.95045  23963409.027    23963411.486
